<?xml version="1.0" encoding="UTF-8" standalone="no" ?>
<gpx xmlns="http://www.topografix.com/GPX/1/1" xmlns:xsi="http://www.w3.org/2001/XMLSchema-instance" xsi:schemaLocation="http://www.topografix.com/GPX/1/1 http://www.topografix.com/GPX/1/1/gpx.xsd" version="1.1" creator="VisuGPX - https://www.visugpx.com">
  <metadata>
    <name>J5 Redu - Bouillon</name>
    <desc><![CDATA[La traversée des Ardennes Belge
J5 Redu - Bouillon 52km 1200m]]></desc>
  </metadata>
  <trk>
    <name><![CDATA[J5 Redu-Bouillon]]></name>
    <trkseg>
      <trkpt lat="50.00751" lon="5.15974">
        <ele>357</ele>
        <time>2000-01-01T11:00:37Z</time>
      </trkpt>
      <trkpt lat="50.00753" lon="5.1593">
        <ele>358</ele>
        <time>2000-01-01T11:00:47Z</time>
      </trkpt>
      <trkpt lat="50.0075" lon="5.15891">
        <ele>356</ele>
        <time>2000-01-01T11:00:57Z</time>
      </trkpt>
      <trkpt lat="50.00746" lon="5.15837">
        <ele>356</ele>
        <time>2000-01-01T11:01:07Z</time>
      </trkpt>
      <trkpt lat="50.00736" lon="5.15796">
        <ele>357</ele>
        <time>2000-01-01T11:01:17Z</time>
      </trkpt>
      <trkpt lat="50.00727" lon="5.15758">
        <ele>357</ele>
        <time>2000-01-01T11:01:27Z</time>
      </trkpt>
      <trkpt lat="50.00715" lon="5.15705">
        <ele>358</ele>
        <time>2000-01-01T11:01:37Z</time>
      </trkpt>
      <trkpt lat="50.0071" lon="5.1567">
        <ele>361</ele>
        <time>2000-01-01T11:01:47Z</time>
      </trkpt>
      <trkpt lat="50.00704" lon="5.15628">
        <ele>363</ele>
        <time>2000-01-01T11:01:57Z</time>
      </trkpt>
      <trkpt lat="50.00701" lon="5.15583">
        <ele>363</ele>
        <time>2000-01-01T11:02:07Z</time>
      </trkpt>
      <trkpt lat="50.00698" lon="5.15538">
        <ele>363</ele>
        <time>2000-01-01T11:02:17Z</time>
      </trkpt>
      <trkpt lat="50.00695" lon="5.15491">
        <ele>363</ele>
        <time>2000-01-01T11:02:27Z</time>
      </trkpt>
      <trkpt lat="50.00693" lon="5.15456">
        <ele>369</ele>
        <time>2000-01-01T11:02:37Z</time>
      </trkpt>
      <trkpt lat="50.00692" lon="5.15418">
        <ele>371</ele>
        <time>2000-01-01T11:02:47Z</time>
      </trkpt>
      <trkpt lat="50.00707" lon="5.15401">
        <ele>371</ele>
        <time>2000-01-01T11:02:57Z</time>
      </trkpt>
      <trkpt lat="50.00733" lon="5.15354">
        <ele>373</ele>
        <time>2000-01-01T11:03:07Z</time>
      </trkpt>
      <trkpt lat="50.00747" lon="5.15325">
        <ele>373</ele>
        <time>2000-01-01T11:03:17Z</time>
      </trkpt>
      <trkpt lat="50.00764" lon="5.15293">
        <ele>370</ele>
        <time>2000-01-01T11:03:27Z</time>
      </trkpt>
      <trkpt lat="50.00782" lon="5.15261">
        <ele>370</ele>
        <time>2000-01-01T11:03:37Z</time>
      </trkpt>
      <trkpt lat="50.00798" lon="5.15233">
        <ele>371</ele>
        <time>2000-01-01T11:03:47Z</time>
      </trkpt>
      <trkpt lat="50.00816" lon="5.15201">
        <ele>370</ele>
        <time>2000-01-01T11:03:57Z</time>
      </trkpt>
      <trkpt lat="50.00849" lon="5.1516">
        <ele>370</ele>
        <time>2000-01-01T11:04:07Z</time>
      </trkpt>
      <trkpt lat="50.00878" lon="5.15113">
        <ele>366</ele>
        <time>2000-01-01T11:04:17Z</time>
      </trkpt>
      <trkpt lat="50.00898" lon="5.1509">
        <ele>365</ele>
        <time>2000-01-01T11:04:27Z</time>
      </trkpt>
      <trkpt lat="50.00925" lon="5.1506">
        <ele>362</ele>
        <time>2000-01-01T11:04:37Z</time>
      </trkpt>
      <trkpt lat="50.00936" lon="5.15036">
        <ele>357</ele>
        <time>2000-01-01T11:04:47Z</time>
      </trkpt>
      <trkpt lat="50.00941" lon="5.15014">
        <ele>373.3</ele>
        <time>2000-01-01T11:04:57Z</time>
      </trkpt>
      <trkpt lat="50.00976" lon="5.14931">
        <ele>347</ele>
        <time>2000-01-01T11:05:07Z</time>
      </trkpt>
      <trkpt lat="50.00992" lon="5.14896">
        <ele>339</ele>
        <time>2000-01-01T11:05:17Z</time>
      </trkpt>
      <trkpt lat="50.01005" lon="5.14867">
        <ele>333</ele>
        <time>2000-01-01T11:05:27Z</time>
      </trkpt>
      <trkpt lat="50.01019" lon="5.14836">
        <ele>331</ele>
        <time>2000-01-01T11:05:37Z</time>
      </trkpt>
      <trkpt lat="50.01034" lon="5.14791">
        <ele>327</ele>
        <time>2000-01-01T11:05:47Z</time>
      </trkpt>
      <trkpt lat="50.01063" lon="5.14783">
        <ele>322</ele>
        <time>2000-01-01T11:05:57Z</time>
      </trkpt>
      <trkpt lat="50.01067" lon="5.14747">
        <ele>322</ele>
        <time>2000-01-01T11:06:07Z</time>
      </trkpt>
      <trkpt lat="50.01083" lon="5.14743">
        <ele>325.8</ele>
        <time>2000-01-01T11:06:17Z</time>
      </trkpt>
      <trkpt lat="50.0109" lon="5.14738">
        <ele>321</ele>
        <time>2000-01-01T11:06:27Z</time>
      </trkpt>
      <trkpt lat="50.01096" lon="5.1473">
        <ele>325.2</ele>
        <time>2000-01-01T11:06:37Z</time>
      </trkpt>
      <trkpt lat="50.01101" lon="5.1472">
        <ele>324.9</ele>
        <time>2000-01-01T11:06:47Z</time>
      </trkpt>
      <trkpt lat="50.01103" lon="5.1471">
        <ele>321</ele>
        <time>2000-01-01T11:06:57Z</time>
      </trkpt>
      <trkpt lat="50.01106" lon="5.1466">
        <ele>321</ele>
        <time>2000-01-01T11:07:07Z</time>
      </trkpt>
      <trkpt lat="50.01104" lon="5.14626">
        <ele>322</ele>
        <time>2000-01-01T11:07:17Z</time>
      </trkpt>
      <trkpt lat="50.011" lon="5.1461">
        <ele>322.9</ele>
        <time>2000-01-01T11:07:27Z</time>
      </trkpt>
      <trkpt lat="50.01087" lon="5.14587">
        <ele>320</ele>
        <time>2000-01-01T11:07:37Z</time>
      </trkpt>
      <trkpt lat="50.01065" lon="5.14571">
        <ele>319</ele>
        <time>2000-01-01T11:07:47Z</time>
      </trkpt>
      <trkpt lat="50.01036" lon="5.1455">
        <ele>318</ele>
        <time>2000-01-01T11:07:57Z</time>
      </trkpt>
      <trkpt lat="50.01012" lon="5.14533">
        <ele>318</ele>
        <time>2000-01-01T11:08:07Z</time>
      </trkpt>
      <trkpt lat="50.00998" lon="5.14521">
        <ele>316.3</ele>
        <time>2000-01-01T11:08:17Z</time>
      </trkpt>
      <trkpt lat="50.0098" lon="5.14412">
        <ele>314</ele>
        <time>2000-01-01T11:08:27Z</time>
      </trkpt>
      <trkpt lat="50.00976" lon="5.14345">
        <ele>310</ele>
        <time>2000-01-01T11:08:37Z</time>
      </trkpt>
      <trkpt lat="50.00983" lon="5.14307">
        <ele>311</ele>
        <time>2000-01-01T11:08:47Z</time>
      </trkpt>
      <trkpt lat="50.00992" lon="5.14253">
        <ele>312</ele>
        <time>2000-01-01T11:08:57Z</time>
      </trkpt>
      <trkpt lat="50.00998" lon="5.14212">
        <ele>312</ele>
        <time>2000-01-01T11:09:07Z</time>
      </trkpt>
      <trkpt lat="50.01008" lon="5.14143">
        <ele>315</ele>
        <time>2000-01-01T11:09:17Z</time>
      </trkpt>
      <trkpt lat="50.01024" lon="5.14088">
        <ele>323</ele>
        <time>2000-01-01T11:09:27Z</time>
      </trkpt>
      <trkpt lat="50.01034" lon="5.14053">
        <ele>325</ele>
        <time>2000-01-01T11:09:37Z</time>
      </trkpt>
      <trkpt lat="50.01048" lon="5.1401">
        <ele>324</ele>
        <time>2000-01-01T11:09:47Z</time>
      </trkpt>
      <trkpt lat="50.01048" lon="5.13968">
        <ele>324</ele>
        <time>2000-01-01T11:09:57Z</time>
      </trkpt>
      <trkpt lat="50.01048" lon="5.13894">
        <ele>319</ele>
        <time>2000-01-01T11:10:07Z</time>
      </trkpt>
      <trkpt lat="50.01043" lon="5.13851">
        <ele>318</ele>
        <time>2000-01-01T11:10:17Z</time>
      </trkpt>
      <trkpt lat="50.01034" lon="5.13772">
        <ele>312</ele>
        <time>2000-01-01T11:10:27Z</time>
      </trkpt>
      <trkpt lat="50.01043" lon="5.13739">
        <ele>311</ele>
        <time>2000-01-01T11:10:37Z</time>
      </trkpt>
      <trkpt lat="50.01053" lon="5.13699">
        <ele>310</ele>
        <time>2000-01-01T11:10:47Z</time>
      </trkpt>
      <trkpt lat="50.01067" lon="5.13658">
        <ele>308</ele>
        <time>2000-01-01T11:10:57Z</time>
      </trkpt>
      <trkpt lat="50.01081" lon="5.13616">
        <ele>308</ele>
        <time>2000-01-01T11:11:07Z</time>
      </trkpt>
      <trkpt lat="50.011" lon="5.13562">
        <ele>302</ele>
        <time>2000-01-01T11:11:17Z</time>
      </trkpt>
      <trkpt lat="50.01112" lon="5.13509">
        <ele>296</ele>
        <time>2000-01-01T11:11:27Z</time>
      </trkpt>
      <trkpt lat="50.01123" lon="5.13456">
        <ele>301</ele>
        <time>2000-01-01T11:11:37Z</time>
      </trkpt>
      <trkpt lat="50.01135" lon="5.13403">
        <ele>301</ele>
        <time>2000-01-01T11:11:47Z</time>
      </trkpt>
      <trkpt lat="50.01146" lon="5.1335">
        <ele>298</ele>
        <time>2000-01-01T11:11:57Z</time>
      </trkpt>
      <trkpt lat="50.01169" lon="5.13246">
        <ele>296</ele>
        <time>2000-01-01T11:12:07Z</time>
      </trkpt>
      <trkpt lat="50.01192" lon="5.13199">
        <ele>291</ele>
        <time>2000-01-01T11:12:17Z</time>
      </trkpt>
      <trkpt lat="50.01221" lon="5.13202">
        <ele>285</ele>
        <time>2000-01-01T11:12:27Z</time>
      </trkpt>
      <trkpt lat="50.0125" lon="5.13205">
        <ele>285</ele>
        <time>2000-01-01T11:12:37Z</time>
      </trkpt>
      <trkpt lat="50.01281" lon="5.13208">
        <ele>289</ele>
        <time>2000-01-01T11:12:47Z</time>
      </trkpt>
      <trkpt lat="50.01308" lon="5.13205">
        <ele>294</ele>
        <time>2000-01-01T11:12:57Z</time>
      </trkpt>
      <trkpt lat="50.01357" lon="5.13199">
        <ele>292</ele>
        <time>2000-01-01T11:13:07Z</time>
      </trkpt>
      <trkpt lat="50.01387" lon="5.13182">
        <ele>295</ele>
        <time>2000-01-01T11:13:17Z</time>
      </trkpt>
      <trkpt lat="50.01417" lon="5.13165">
        <ele>296</ele>
        <time>2000-01-01T11:13:27Z</time>
      </trkpt>
      <trkpt lat="50.01474" lon="5.13133">
        <ele>290</ele>
        <time>2000-01-01T11:13:37Z</time>
      </trkpt>
      <trkpt lat="50.015" lon="5.1312">
        <ele>285</ele>
        <time>2000-01-01T11:13:47Z</time>
      </trkpt>
      <trkpt lat="50.01547" lon="5.13097">
        <ele>278</ele>
        <time>2000-01-01T11:13:57Z</time>
      </trkpt>
      <trkpt lat="50.01572" lon="5.13076">
        <ele>274</ele>
        <time>2000-01-01T11:14:07Z</time>
      </trkpt>
      <trkpt lat="50.01614" lon="5.13041">
        <ele>262</ele>
        <time>2000-01-01T11:14:17Z</time>
      </trkpt>
      <trkpt lat="50.01625" lon="5.13005">
        <ele>261</ele>
        <time>2000-01-01T11:14:27Z</time>
      </trkpt>
      <trkpt lat="50.01641" lon="5.12955">
        <ele>239</ele>
        <time>2000-01-01T11:14:37Z</time>
      </trkpt>
      <trkpt lat="50.01655" lon="5.12921">
        <ele>232</ele>
        <time>2000-01-01T11:14:47Z</time>
      </trkpt>
      <trkpt lat="50.01675" lon="5.12873">
        <ele>231</ele>
        <time>2000-01-01T11:14:57Z</time>
      </trkpt>
      <trkpt lat="50.01648" lon="5.12882">
        <ele>231</ele>
        <time>2000-01-01T11:15:07Z</time>
      </trkpt>
      <trkpt lat="50.01602" lon="5.12899">
        <ele>230</ele>
        <time>2000-01-01T11:15:17Z</time>
      </trkpt>
      <trkpt lat="50.01562" lon="5.12903">
        <ele>230</ele>
        <time>2000-01-01T11:15:27Z</time>
      </trkpt>
      <trkpt lat="50.01538" lon="5.12921">
        <ele>232</ele>
        <time>2000-01-01T11:15:37Z</time>
      </trkpt>
      <trkpt lat="50.015" lon="5.12948">
        <ele>233</ele>
        <time>2000-01-01T11:15:47Z</time>
      </trkpt>
      <trkpt lat="50.01475" lon="5.1296">
        <ele>230</ele>
        <time>2000-01-01T11:15:57Z</time>
      </trkpt>
      <trkpt lat="50.01436" lon="5.12978">
        <ele>231</ele>
        <time>2000-01-01T11:16:07Z</time>
      </trkpt>
      <trkpt lat="50.01407" lon="5.12982">
        <ele>233</ele>
        <time>2000-01-01T11:16:17Z</time>
      </trkpt>
      <trkpt lat="50.01378" lon="5.12986">
        <ele>235</ele>
        <time>2000-01-01T11:16:27Z</time>
      </trkpt>
      <trkpt lat="50.01344" lon="5.12991">
        <ele>245</ele>
        <time>2000-01-01T11:16:37Z</time>
      </trkpt>
      <trkpt lat="50.01321" lon="5.13">
        <ele>245</ele>
        <time>2000-01-01T11:16:47Z</time>
      </trkpt>
      <trkpt lat="50.01294" lon="5.13011">
        <ele>244</ele>
        <time>2000-01-01T11:16:57Z</time>
      </trkpt>
      <trkpt lat="50.01248" lon="5.13032">
        <ele>243</ele>
        <time>2000-01-01T11:17:07Z</time>
      </trkpt>
      <trkpt lat="50.01219" lon="5.13015">
        <ele>240</ele>
        <time>2000-01-01T11:17:17Z</time>
      </trkpt>
      <trkpt lat="50.01202" lon="5.12992">
        <ele>239</ele>
        <time>2000-01-01T11:17:27Z</time>
      </trkpt>
      <trkpt lat="50.01184" lon="5.12967">
        <ele>239</ele>
        <time>2000-01-01T11:17:37Z</time>
      </trkpt>
      <trkpt lat="50.01161" lon="5.12942">
        <ele>239</ele>
        <time>2000-01-01T11:17:47Z</time>
      </trkpt>
      <trkpt lat="50.0113" lon="5.12929">
        <ele>246</ele>
        <time>2000-01-01T11:17:57Z</time>
      </trkpt>
      <trkpt lat="50.01099" lon="5.12961">
        <ele>241</ele>
        <time>2000-01-01T11:18:07Z</time>
      </trkpt>
      <trkpt lat="50.01121" lon="5.1292">
        <ele>236</ele>
        <time>2000-01-01T11:18:17Z</time>
      </trkpt>
      <trkpt lat="50.01152" lon="5.12881">
        <ele>241</ele>
        <time>2000-01-01T11:18:27Z</time>
      </trkpt>
      <trkpt lat="50.01162" lon="5.12875">
        <ele>236.8</ele>
        <time>2000-01-01T11:18:37Z</time>
      </trkpt>
      <trkpt lat="50.0117" lon="5.12877">
        <ele>246</ele>
        <time>2000-01-01T11:18:47Z</time>
      </trkpt>
      <trkpt lat="50.01209" lon="5.12904">
        <ele>258</ele>
        <time>2000-01-01T11:18:57Z</time>
      </trkpt>
      <trkpt lat="50.01227" lon="5.1291">
        <ele>253</ele>
        <time>2000-01-01T11:19:07Z</time>
      </trkpt>
      <trkpt lat="50.01244" lon="5.12909">
        <ele>236.6</ele>
        <time>2000-01-01T11:19:17Z</time>
      </trkpt>
      <trkpt lat="50.01307" lon="5.12901">
        <ele>249</ele>
        <time>2000-01-01T11:19:27Z</time>
      </trkpt>
      <trkpt lat="50.01338" lon="5.12891">
        <ele>249</ele>
        <time>2000-01-01T11:19:37Z</time>
      </trkpt>
      <trkpt lat="50.0137" lon="5.1288">
        <ele>248</ele>
        <time>2000-01-01T11:19:47Z</time>
      </trkpt>
      <trkpt lat="50.01402" lon="5.1287">
        <ele>247</ele>
        <time>2000-01-01T11:19:57Z</time>
      </trkpt>
      <trkpt lat="50.01434" lon="5.1286">
        <ele>244</ele>
        <time>2000-01-01T11:20:07Z</time>
      </trkpt>
      <trkpt lat="50.01458" lon="5.12851">
        <ele>242</ele>
        <time>2000-01-01T11:20:17Z</time>
      </trkpt>
      <trkpt lat="50.01487" lon="5.1284">
        <ele>237</ele>
        <time>2000-01-01T11:20:27Z</time>
      </trkpt>
      <trkpt lat="50.01504" lon="5.12833">
        <ele>238</ele>
        <time>2000-01-01T11:20:37Z</time>
      </trkpt>
      <trkpt lat="50.01533" lon="5.12817">
        <ele>236</ele>
        <time>2000-01-01T11:20:47Z</time>
      </trkpt>
      <trkpt lat="50.01563" lon="5.128">
        <ele>237</ele>
        <time>2000-01-01T11:20:57Z</time>
      </trkpt>
      <trkpt lat="50.01586" lon="5.12788">
        <ele>236</ele>
        <time>2000-01-01T11:21:07Z</time>
      </trkpt>
      <trkpt lat="50.01614" lon="5.12772">
        <ele>236</ele>
        <time>2000-01-01T11:21:17Z</time>
      </trkpt>
      <trkpt lat="50.01624" lon="5.1276">
        <ele>237.1</ele>
        <time>2000-01-01T11:21:27Z</time>
      </trkpt>
      <trkpt lat="50.0163" lon="5.12747">
        <ele>236</ele>
        <time>2000-01-01T11:21:37Z</time>
      </trkpt>
      <trkpt lat="50.01632" lon="5.1274">
        <ele>237.2</ele>
        <time>2000-01-01T11:21:47Z</time>
      </trkpt>
      <trkpt lat="50.01632" lon="5.12725">
        <ele>237.9</ele>
        <time>2000-01-01T11:21:57Z</time>
      </trkpt>
      <trkpt lat="50.01626" lon="5.12707">
        <ele>239</ele>
        <time>2000-01-01T11:22:07Z</time>
      </trkpt>
      <trkpt lat="50.01636" lon="5.12701">
        <ele>237.4</ele>
        <time>2000-01-01T11:22:17Z</time>
      </trkpt>
      <trkpt lat="50.01648" lon="5.12703">
        <ele>241</ele>
        <time>2000-01-01T11:22:27Z</time>
      </trkpt>
      <trkpt lat="50.01658" lon="5.1272">
        <ele>237.4</ele>
        <time>2000-01-01T11:22:37Z</time>
      </trkpt>
      <trkpt lat="50.01675" lon="5.12741">
        <ele>242</ele>
        <time>2000-01-01T11:22:47Z</time>
      </trkpt>
      <trkpt lat="50.01685" lon="5.12744">
        <ele>236.2</ele>
        <time>2000-01-01T11:22:57Z</time>
      </trkpt>
      <trkpt lat="50.01701" lon="5.12742">
        <ele>247</ele>
        <time>2000-01-01T11:23:07Z</time>
      </trkpt>
      <trkpt lat="50.01715" lon="5.12737">
        <ele>236</ele>
        <time>2000-01-01T11:23:17Z</time>
      </trkpt>
      <trkpt lat="50.01878" lon="5.12669">
        <ele>251</ele>
        <time>2000-01-01T11:23:27Z</time>
      </trkpt>
      <trkpt lat="50.01915" lon="5.12665">
        <ele>253</ele>
        <time>2000-01-01T11:23:37Z</time>
      </trkpt>
      <trkpt lat="50.01941" lon="5.12666">
        <ele>256</ele>
        <time>2000-01-01T11:23:47Z</time>
      </trkpt>
      <trkpt lat="50.01981" lon="5.12667">
        <ele>260</ele>
        <time>2000-01-01T11:23:57Z</time>
      </trkpt>
      <trkpt lat="50.02022" lon="5.12682">
        <ele>258</ele>
        <time>2000-01-01T11:24:07Z</time>
      </trkpt>
      <trkpt lat="50.02045" lon="5.12698">
        <ele>259</ele>
        <time>2000-01-01T11:24:17Z</time>
      </trkpt>
      <trkpt lat="50.02073" lon="5.12718">
        <ele>251</ele>
        <time>2000-01-01T11:24:27Z</time>
      </trkpt>
      <trkpt lat="50.02097" lon="5.12753">
        <ele>248</ele>
        <time>2000-01-01T11:24:37Z</time>
      </trkpt>
      <trkpt lat="50.02121" lon="5.12788">
        <ele>246</ele>
        <time>2000-01-01T11:24:47Z</time>
      </trkpt>
      <trkpt lat="50.02145" lon="5.12823">
        <ele>245</ele>
        <time>2000-01-01T11:24:57Z</time>
      </trkpt>
      <trkpt lat="50.02171" lon="5.12862">
        <ele>247</ele>
        <time>2000-01-01T11:25:07Z</time>
      </trkpt>
      <trkpt lat="50.02194" lon="5.12891">
        <ele>250</ele>
        <time>2000-01-01T11:25:17Z</time>
      </trkpt>
      <trkpt lat="50.02216" lon="5.12921">
        <ele>255</ele>
        <time>2000-01-01T11:25:27Z</time>
      </trkpt>
      <trkpt lat="50.0224" lon="5.12952">
        <ele>252</ele>
        <time>2000-01-01T11:25:37Z</time>
      </trkpt>
      <trkpt lat="50.02262" lon="5.12984">
        <ele>253</ele>
        <time>2000-01-01T11:25:47Z</time>
      </trkpt>
      <trkpt lat="50.02284" lon="5.13016">
        <ele>249</ele>
        <time>2000-01-01T11:25:57Z</time>
      </trkpt>
      <trkpt lat="50.02313" lon="5.13057">
        <ele>246</ele>
        <time>2000-01-01T11:26:07Z</time>
      </trkpt>
      <trkpt lat="50.02339" lon="5.13074">
        <ele>245</ele>
        <time>2000-01-01T11:26:17Z</time>
      </trkpt>
      <trkpt lat="50.02362" lon="5.13088">
        <ele>243</ele>
        <time>2000-01-01T11:26:27Z</time>
      </trkpt>
      <trkpt lat="50.0239" lon="5.13105">
        <ele>241</ele>
        <time>2000-01-01T11:26:37Z</time>
      </trkpt>
      <trkpt lat="50.02421" lon="5.13113">
        <ele>239</ele>
        <time>2000-01-01T11:26:47Z</time>
      </trkpt>
      <trkpt lat="50.02446" lon="5.13114">
        <ele>241</ele>
        <time>2000-01-01T11:26:57Z</time>
      </trkpt>
      <trkpt lat="50.0246" lon="5.13113">
        <ele>227.3</ele>
        <time>2000-01-01T11:27:07Z</time>
      </trkpt>
      <trkpt lat="50.02476" lon="5.13103">
        <ele>244</ele>
        <time>2000-01-01T11:27:17Z</time>
      </trkpt>
      <trkpt lat="50.02493" lon="5.13091">
        <ele>238</ele>
        <time>2000-01-01T11:27:27Z</time>
      </trkpt>
      <trkpt lat="50.02526" lon="5.13053">
        <ele>233</ele>
        <time>2000-01-01T11:27:37Z</time>
      </trkpt>
      <trkpt lat="50.02554" lon="5.13009">
        <ele>226</ele>
        <time>2000-01-01T11:27:47Z</time>
      </trkpt>
      <trkpt lat="50.02567" lon="5.12974">
        <ele>223</ele>
        <time>2000-01-01T11:27:57Z</time>
      </trkpt>
      <trkpt lat="50.02585" lon="5.12925">
        <ele>221</ele>
        <time>2000-01-01T11:28:07Z</time>
      </trkpt>
      <trkpt lat="50.02592" lon="5.12887">
        <ele>221</ele>
        <time>2000-01-01T11:28:17Z</time>
      </trkpt>
      <trkpt lat="50.02602" lon="5.12832">
        <ele>221</ele>
        <time>2000-01-01T11:28:27Z</time>
      </trkpt>
      <trkpt lat="50.02605" lon="5.12795">
        <ele>224</ele>
        <time>2000-01-01T11:28:37Z</time>
      </trkpt>
      <trkpt lat="50.02609" lon="5.12748">
        <ele>225</ele>
        <time>2000-01-01T11:28:47Z</time>
      </trkpt>
      <trkpt lat="50.02608" lon="5.12707">
        <ele>224</ele>
        <time>2000-01-01T11:28:57Z</time>
      </trkpt>
      <trkpt lat="50.02607" lon="5.12644">
        <ele>223</ele>
        <time>2000-01-01T11:29:07Z</time>
      </trkpt>
      <trkpt lat="50.02613" lon="5.1261">
        <ele>222</ele>
        <time>2000-01-01T11:29:17Z</time>
      </trkpt>
      <trkpt lat="50.02619" lon="5.12574">
        <ele>221</ele>
        <time>2000-01-01T11:29:27Z</time>
      </trkpt>
      <trkpt lat="50.02622" lon="5.12537">
        <ele>221</ele>
        <time>2000-01-01T11:29:37Z</time>
      </trkpt>
      <trkpt lat="50.02627" lon="5.12493">
        <ele>221</ele>
        <time>2000-01-01T11:29:47Z</time>
      </trkpt>
      <trkpt lat="50.0263" lon="5.12448">
        <ele>226</ele>
        <time>2000-01-01T11:29:57Z</time>
      </trkpt>
      <trkpt lat="50.02633" lon="5.1241">
        <ele>235</ele>
        <time>2000-01-01T11:30:07Z</time>
      </trkpt>
      <trkpt lat="50.02636" lon="5.1236">
        <ele>244</ele>
        <time>2000-01-01T11:30:17Z</time>
      </trkpt>
      <trkpt lat="50.02643" lon="5.12317">
        <ele>254</ele>
        <time>2000-01-01T11:30:27Z</time>
      </trkpt>
      <trkpt lat="50.02659" lon="5.1229">
        <ele>259</ele>
        <time>2000-01-01T11:30:37Z</time>
      </trkpt>
      <trkpt lat="50.02679" lon="5.12257">
        <ele>264</ele>
        <time>2000-01-01T11:30:47Z</time>
      </trkpt>
      <trkpt lat="50.02702" lon="5.12229">
        <ele>262</ele>
        <time>2000-01-01T11:30:57Z</time>
      </trkpt>
      <trkpt lat="50.02725" lon="5.122">
        <ele>261</ele>
        <time>2000-01-01T11:31:07Z</time>
      </trkpt>
      <trkpt lat="50.02748" lon="5.12171">
        <ele>249</ele>
        <time>2000-01-01T11:31:17Z</time>
      </trkpt>
      <trkpt lat="50.02771" lon="5.12156">
        <ele>245</ele>
        <time>2000-01-01T11:31:27Z</time>
      </trkpt>
      <trkpt lat="50.02799" lon="5.12138">
        <ele>245</ele>
        <time>2000-01-01T11:31:37Z</time>
      </trkpt>
      <trkpt lat="50.02819" lon="5.12086">
        <ele>240</ele>
        <time>2000-01-01T11:31:47Z</time>
      </trkpt>
      <trkpt lat="50.02797" lon="5.12044">
        <ele>235</ele>
        <time>2000-01-01T11:31:57Z</time>
      </trkpt>
      <trkpt lat="50.02776" lon="5.12002">
        <ele>235</ele>
        <time>2000-01-01T11:32:07Z</time>
      </trkpt>
      <trkpt lat="50.02754" lon="5.1196">
        <ele>242</ele>
        <time>2000-01-01T11:32:17Z</time>
      </trkpt>
      <trkpt lat="50.02732" lon="5.11918">
        <ele>241</ele>
        <time>2000-01-01T11:32:27Z</time>
      </trkpt>
      <trkpt lat="50.0271" lon="5.11875">
        <ele>241</ele>
        <time>2000-01-01T11:32:37Z</time>
      </trkpt>
      <trkpt lat="50.02696" lon="5.11841">
        <ele>241</ele>
        <time>2000-01-01T11:32:47Z</time>
      </trkpt>
      <trkpt lat="50.02678" lon="5.11827">
        <ele>245</ele>
        <time>2000-01-01T11:32:57Z</time>
      </trkpt>
      <trkpt lat="50.02657" lon="5.11818">
        <ele>247</ele>
        <time>2000-01-01T11:33:07Z</time>
      </trkpt>
      <trkpt lat="50.02646" lon="5.11808">
        <ele>245.7</ele>
        <time>2000-01-01T11:33:17Z</time>
      </trkpt>
      <trkpt lat="50.02637" lon="5.11794">
        <ele>248</ele>
        <time>2000-01-01T11:33:27Z</time>
      </trkpt>
      <trkpt lat="50.02634" lon="5.11782">
        <ele>245.7</ele>
        <time>2000-01-01T11:33:37Z</time>
      </trkpt>
      <trkpt lat="50.02633" lon="5.11761">
        <ele>248</ele>
        <time>2000-01-01T11:33:47Z</time>
      </trkpt>
      <trkpt lat="50.02629" lon="5.11748">
        <ele>252</ele>
        <time>2000-01-01T11:33:57Z</time>
      </trkpt>
      <trkpt lat="50.02616" lon="5.11732">
        <ele>251</ele>
        <time>2000-01-01T11:34:07Z</time>
      </trkpt>
      <trkpt lat="50.02594" lon="5.11719">
        <ele>256</ele>
        <time>2000-01-01T11:34:17Z</time>
      </trkpt>
      <trkpt lat="50.02576" lon="5.11711">
        <ele>256</ele>
        <time>2000-01-01T11:34:27Z</time>
      </trkpt>
      <trkpt lat="50.02569" lon="5.11697">
        <ele>262.6</ele>
        <time>2000-01-01T11:34:37Z</time>
      </trkpt>
      <trkpt lat="50.02547" lon="5.11685">
        <ele>268</ele>
        <time>2000-01-01T11:34:47Z</time>
      </trkpt>
      <trkpt lat="50.02524" lon="5.11682">
        <ele>268</ele>
        <time>2000-01-01T11:34:57Z</time>
      </trkpt>
      <trkpt lat="50.02498" lon="5.11678">
        <ele>271</ele>
        <time>2000-01-01T11:35:07Z</time>
      </trkpt>
      <trkpt lat="50.02459" lon="5.11684">
        <ele>275</ele>
        <time>2000-01-01T11:35:17Z</time>
      </trkpt>
      <trkpt lat="50.02418" lon="5.11684">
        <ele>275</ele>
        <time>2000-01-01T11:35:27Z</time>
      </trkpt>
      <trkpt lat="50.02383" lon="5.11669">
        <ele>275</ele>
        <time>2000-01-01T11:35:37Z</time>
      </trkpt>
      <trkpt lat="50.02345" lon="5.11646">
        <ele>278</ele>
        <time>2000-01-01T11:35:47Z</time>
      </trkpt>
      <trkpt lat="50.02309" lon="5.11637">
        <ele>280</ele>
        <time>2000-01-01T11:35:57Z</time>
      </trkpt>
      <trkpt lat="50.02296" lon="5.11635">
        <ele>283.8</ele>
        <time>2000-01-01T11:36:07Z</time>
      </trkpt>
      <trkpt lat="50.02288" lon="5.11641">
        <ele>279</ele>
        <time>2000-01-01T11:36:17Z</time>
      </trkpt>
      <trkpt lat="50.02284" lon="5.11652">
        <ele>286</ele>
        <time>2000-01-01T11:36:27Z</time>
      </trkpt>
      <trkpt lat="50.02282" lon="5.11697">
        <ele>279</ele>
        <time>2000-01-01T11:36:37Z</time>
      </trkpt>
      <trkpt lat="50.02278" lon="5.11712">
        <ele>288.6</ele>
        <time>2000-01-01T11:36:47Z</time>
      </trkpt>
      <trkpt lat="50.02269" lon="5.11725">
        <ele>280</ele>
        <time>2000-01-01T11:36:57Z</time>
      </trkpt>
      <trkpt lat="50.02254" lon="5.11738">
        <ele>280</ele>
        <time>2000-01-01T11:37:07Z</time>
      </trkpt>
      <trkpt lat="50.02236" lon="5.1175">
        <ele>286</ele>
        <time>2000-01-01T11:37:17Z</time>
      </trkpt>
      <trkpt lat="50.02219" lon="5.11767">
        <ele>286</ele>
        <time>2000-01-01T11:37:27Z</time>
      </trkpt>
      <trkpt lat="50.02198" lon="5.11783">
        <ele>290</ele>
        <time>2000-01-01T11:37:37Z</time>
      </trkpt>
      <trkpt lat="50.02174" lon="5.11795">
        <ele>291</ele>
        <time>2000-01-01T11:37:47Z</time>
      </trkpt>
      <trkpt lat="50.02152" lon="5.11797">
        <ele>294</ele>
        <time>2000-01-01T11:37:57Z</time>
      </trkpt>
      <trkpt lat="50.02129" lon="5.118">
        <ele>298</ele>
        <time>2000-01-01T11:38:07Z</time>
      </trkpt>
      <trkpt lat="50.02106" lon="5.11808">
        <ele>298</ele>
        <time>2000-01-01T11:38:17Z</time>
      </trkpt>
      <trkpt lat="50.02076" lon="5.11822">
        <ele>300</ele>
        <time>2000-01-01T11:38:27Z</time>
      </trkpt>
      <trkpt lat="50.02054" lon="5.11828">
        <ele>302</ele>
        <time>2000-01-01T11:38:37Z</time>
      </trkpt>
      <trkpt lat="50.0203" lon="5.11834">
        <ele>303</ele>
        <time>2000-01-01T11:38:47Z</time>
      </trkpt>
      <trkpt lat="50.02021" lon="5.118">
        <ele>304</ele>
        <time>2000-01-01T11:38:57Z</time>
      </trkpt>
      <trkpt lat="50.0201" lon="5.11756">
        <ele>304</ele>
        <time>2000-01-01T11:39:07Z</time>
      </trkpt>
      <trkpt lat="50.02001" lon="5.11714">
        <ele>306</ele>
        <time>2000-01-01T11:39:17Z</time>
      </trkpt>
      <trkpt lat="50.01993" lon="5.11678">
        <ele>310</ele>
        <time>2000-01-01T11:39:27Z</time>
      </trkpt>
      <trkpt lat="50.01983" lon="5.11634">
        <ele>317</ele>
        <time>2000-01-01T11:39:37Z</time>
      </trkpt>
      <trkpt lat="50.0197" lon="5.11597">
        <ele>321</ele>
        <time>2000-01-01T11:39:47Z</time>
      </trkpt>
      <trkpt lat="50.01949" lon="5.11546">
        <ele>330</ele>
        <time>2000-01-01T11:39:57Z</time>
      </trkpt>
      <trkpt lat="50.01932" lon="5.11509">
        <ele>331</ele>
        <time>2000-01-01T11:40:07Z</time>
      </trkpt>
      <trkpt lat="50.01915" lon="5.11473">
        <ele>331</ele>
        <time>2000-01-01T11:40:17Z</time>
      </trkpt>
      <trkpt lat="50.01898" lon="5.11435">
        <ele>331</ele>
        <time>2000-01-01T11:40:27Z</time>
      </trkpt>
      <trkpt lat="50.0188" lon="5.11402">
        <ele>332</ele>
        <time>2000-01-01T11:40:37Z</time>
      </trkpt>
      <trkpt lat="50.01865" lon="5.11375">
        <ele>335</ele>
        <time>2000-01-01T11:40:47Z</time>
      </trkpt>
      <trkpt lat="50.01847" lon="5.11343">
        <ele>336</ele>
        <time>2000-01-01T11:40:57Z</time>
      </trkpt>
      <trkpt lat="50.01828" lon="5.11295">
        <ele>337</ele>
        <time>2000-01-01T11:41:07Z</time>
      </trkpt>
      <trkpt lat="50.01819" lon="5.11264">
        <ele>339</ele>
        <time>2000-01-01T11:41:17Z</time>
      </trkpt>
      <trkpt lat="50.01809" lon="5.11232">
        <ele>340</ele>
        <time>2000-01-01T11:41:27Z</time>
      </trkpt>
      <trkpt lat="50.01801" lon="5.11199">
        <ele>341</ele>
        <time>2000-01-01T11:41:37Z</time>
      </trkpt>
      <trkpt lat="50.01795" lon="5.11152">
        <ele>342</ele>
        <time>2000-01-01T11:41:47Z</time>
      </trkpt>
      <trkpt lat="50.01789" lon="5.11104">
        <ele>342</ele>
        <time>2000-01-01T11:41:57Z</time>
      </trkpt>
      <trkpt lat="50.01785" lon="5.1107">
        <ele>340</ele>
        <time>2000-01-01T11:42:07Z</time>
      </trkpt>
      <trkpt lat="50.0178" lon="5.11031">
        <ele>339</ele>
        <time>2000-01-01T11:42:17Z</time>
      </trkpt>
      <trkpt lat="50.01774" lon="5.10996">
        <ele>339</ele>
        <time>2000-01-01T11:42:27Z</time>
      </trkpt>
      <trkpt lat="50.01767" lon="5.10953">
        <ele>339</ele>
        <time>2000-01-01T11:42:37Z</time>
      </trkpt>
      <trkpt lat="50.01761" lon="5.10927">
        <ele>340</ele>
        <time>2000-01-01T11:42:47Z</time>
      </trkpt>
      <trkpt lat="50.01759" lon="5.109">
        <ele>354.9</ele>
        <time>2000-01-01T11:42:57Z</time>
      </trkpt>
      <trkpt lat="50.01742" lon="5.10808">
        <ele>345</ele>
        <time>2000-01-01T11:43:07Z</time>
      </trkpt>
      <trkpt lat="50.01736" lon="5.10785">
        <ele>357.9</ele>
        <time>2000-01-01T11:43:17Z</time>
      </trkpt>
      <trkpt lat="50.01727" lon="5.10763">
        <ele>349</ele>
        <time>2000-01-01T11:43:27Z</time>
      </trkpt>
      <trkpt lat="50.01717" lon="5.10748">
        <ele>359.9</ele>
        <time>2000-01-01T11:43:37Z</time>
      </trkpt>
      <trkpt lat="50.01684" lon="5.10705">
        <ele>360</ele>
        <time>2000-01-01T11:43:47Z</time>
      </trkpt>
      <trkpt lat="50.01666" lon="5.10674">
        <ele>359</ele>
        <time>2000-01-01T11:43:57Z</time>
      </trkpt>
      <trkpt lat="50.01654" lon="5.10644">
        <ele>359</ele>
        <time>2000-01-01T11:44:07Z</time>
      </trkpt>
      <trkpt lat="50.01642" lon="5.10608">
        <ele>360</ele>
        <time>2000-01-01T11:44:17Z</time>
      </trkpt>
      <trkpt lat="50.01625" lon="5.10555">
        <ele>364</ele>
        <time>2000-01-01T11:44:27Z</time>
      </trkpt>
      <trkpt lat="50.01614" lon="5.10509">
        <ele>366</ele>
        <time>2000-01-01T11:44:37Z</time>
      </trkpt>
      <trkpt lat="50.01604" lon="5.10464">
        <ele>367</ele>
        <time>2000-01-01T11:44:47Z</time>
      </trkpt>
      <trkpt lat="50.01596" lon="5.10429">
        <ele>372</ele>
        <time>2000-01-01T11:44:57Z</time>
      </trkpt>
      <trkpt lat="50.01586" lon="5.1039">
        <ele>374</ele>
        <time>2000-01-01T11:45:07Z</time>
      </trkpt>
      <trkpt lat="50.01577" lon="5.10341">
        <ele>379</ele>
        <time>2000-01-01T11:45:17Z</time>
      </trkpt>
      <trkpt lat="50.0157" lon="5.10297">
        <ele>380</ele>
        <time>2000-01-01T11:45:27Z</time>
      </trkpt>
      <trkpt lat="50.01563" lon="5.10252">
        <ele>382</ele>
        <time>2000-01-01T11:45:37Z</time>
      </trkpt>
      <trkpt lat="50.01555" lon="5.10202">
        <ele>385</ele>
        <time>2000-01-01T11:45:47Z</time>
      </trkpt>
      <trkpt lat="50.01551" lon="5.10161">
        <ele>385</ele>
        <time>2000-01-01T11:45:57Z</time>
      </trkpt>
      <trkpt lat="50.01544" lon="5.10096">
        <ele>383</ele>
        <time>2000-01-01T11:46:07Z</time>
      </trkpt>
      <trkpt lat="50.01542" lon="5.10059">
        <ele>384</ele>
        <time>2000-01-01T11:46:17Z</time>
      </trkpt>
      <trkpt lat="50.01539" lon="5.10013">
        <ele>320</ele>
        <time>2000-01-01T11:46:27Z</time>
      </trkpt>
      <trkpt lat="50.01536" lon="5.0999">
        <ele>392</ele>
        <time>2000-01-01T11:46:37Z</time>
      </trkpt>
      <trkpt lat="50.0153" lon="5.09969">
        <ele>353</ele>
        <time>2000-01-01T11:46:47Z</time>
      </trkpt>
      <trkpt lat="50.0151" lon="5.09929">
        <ele>386</ele>
        <time>2000-01-01T11:46:57Z</time>
      </trkpt>
      <trkpt lat="50.01491" lon="5.09889">
        <ele>386</ele>
        <time>2000-01-01T11:47:07Z</time>
      </trkpt>
      <trkpt lat="50.01476" lon="5.09858">
        <ele>385</ele>
        <time>2000-01-01T11:47:17Z</time>
      </trkpt>
      <trkpt lat="50.01454" lon="5.09813">
        <ele>385</ele>
        <time>2000-01-01T11:47:27Z</time>
      </trkpt>
      <trkpt lat="50.0144" lon="5.09778">
        <ele>385</ele>
        <time>2000-01-01T11:47:37Z</time>
      </trkpt>
      <trkpt lat="50.01418" lon="5.09724">
        <ele>385</ele>
        <time>2000-01-01T11:47:47Z</time>
      </trkpt>
      <trkpt lat="50.01401" lon="5.09691">
        <ele>386</ele>
        <time>2000-01-01T11:47:57Z</time>
      </trkpt>
      <trkpt lat="50.01386" lon="5.09663">
        <ele>386</ele>
        <time>2000-01-01T11:48:07Z</time>
      </trkpt>
      <trkpt lat="50.0137" lon="5.09632">
        <ele>390</ele>
        <time>2000-01-01T11:48:17Z</time>
      </trkpt>
      <trkpt lat="50.01351" lon="5.09612">
        <ele>393</ele>
        <time>2000-01-01T11:48:27Z</time>
      </trkpt>
      <trkpt lat="50.01337" lon="5.09599">
        <ele>398</ele>
        <time>2000-01-01T11:48:37Z</time>
      </trkpt>
      <trkpt lat="50.01254" lon="5.09539">
        <ele>401</ele>
        <time>2000-01-01T11:48:47Z</time>
      </trkpt>
      <trkpt lat="50.01227" lon="5.09517">
        <ele>403</ele>
        <time>2000-01-01T11:48:57Z</time>
      </trkpt>
      <trkpt lat="50.012" lon="5.09494">
        <ele>407</ele>
        <time>2000-01-01T11:49:07Z</time>
      </trkpt>
      <trkpt lat="50.01163" lon="5.09463">
        <ele>406</ele>
        <time>2000-01-01T11:49:17Z</time>
      </trkpt>
      <trkpt lat="50.01138" lon="5.09438">
        <ele>406</ele>
        <time>2000-01-01T11:49:27Z</time>
      </trkpt>
      <trkpt lat="50.01113" lon="5.09412">
        <ele>407</ele>
        <time>2000-01-01T11:49:37Z</time>
      </trkpt>
      <trkpt lat="50.01079" lon="5.09378">
        <ele>409</ele>
        <time>2000-01-01T11:49:47Z</time>
      </trkpt>
      <trkpt lat="50.01062" lon="5.09352">
        <ele>415</ele>
        <time>2000-01-01T11:49:57Z</time>
      </trkpt>
      <trkpt lat="50.01043" lon="5.09324">
        <ele>415</ele>
        <time>2000-01-01T11:50:07Z</time>
      </trkpt>
      <trkpt lat="50.01033" lon="5.09295">
        <ele>414</ele>
        <time>2000-01-01T11:50:17Z</time>
      </trkpt>
      <trkpt lat="50.01022" lon="5.09265">
        <ele>413</ele>
        <time>2000-01-01T11:50:27Z</time>
      </trkpt>
      <trkpt lat="50.0101" lon="5.09246">
        <ele>403.1</ele>
        <time>2000-01-01T11:50:37Z</time>
      </trkpt>
      <trkpt lat="50.0099" lon="5.09227">
        <ele>413</ele>
        <time>2000-01-01T11:50:47Z</time>
      </trkpt>
      <trkpt lat="50.00964" lon="5.09211">
        <ele>413</ele>
        <time>2000-01-01T11:50:57Z</time>
      </trkpt>
      <trkpt lat="50.00943" lon="5.09198">
        <ele>412</ele>
        <time>2000-01-01T11:51:07Z</time>
      </trkpt>
      <trkpt lat="50.00917" lon="5.09182">
        <ele>412</ele>
        <time>2000-01-01T11:51:17Z</time>
      </trkpt>
      <trkpt lat="50.00879" lon="5.0918">
        <ele>412</ele>
        <time>2000-01-01T11:51:27Z</time>
      </trkpt>
      <trkpt lat="50.00859" lon="5.09193">
        <ele>412</ele>
        <time>2000-01-01T11:51:37Z</time>
      </trkpt>
      <trkpt lat="50.00839" lon="5.09206">
        <ele>413</ele>
        <time>2000-01-01T11:51:47Z</time>
      </trkpt>
      <trkpt lat="50.00808" lon="5.0921">
        <ele>413</ele>
        <time>2000-01-01T11:51:57Z</time>
      </trkpt>
      <trkpt lat="50.00777" lon="5.09215">
        <ele>413</ele>
        <time>2000-01-01T11:52:07Z</time>
      </trkpt>
      <trkpt lat="50.00754" lon="5.09219">
        <ele>416</ele>
        <time>2000-01-01T11:52:17Z</time>
      </trkpt>
      <trkpt lat="50.0073" lon="5.09222">
        <ele>415</ele>
        <time>2000-01-01T11:52:27Z</time>
      </trkpt>
      <trkpt lat="50.00698" lon="5.09228">
        <ele>417</ele>
        <time>2000-01-01T11:52:37Z</time>
      </trkpt>
      <trkpt lat="50.00667" lon="5.09233">
        <ele>420</ele>
        <time>2000-01-01T11:52:47Z</time>
      </trkpt>
      <trkpt lat="50.00643" lon="5.09237">
        <ele>421</ele>
        <time>2000-01-01T11:52:57Z</time>
      </trkpt>
      <trkpt lat="50.00612" lon="5.09242">
        <ele>422</ele>
        <time>2000-01-01T11:53:07Z</time>
      </trkpt>
      <trkpt lat="50.00573" lon="5.09242">
        <ele>423</ele>
        <time>2000-01-01T11:53:17Z</time>
      </trkpt>
      <trkpt lat="50.00535" lon="5.09243">
        <ele>422</ele>
        <time>2000-01-01T11:53:27Z</time>
      </trkpt>
      <trkpt lat="50.00497" lon="5.09244">
        <ele>422</ele>
        <time>2000-01-01T11:53:37Z</time>
      </trkpt>
      <trkpt lat="50.00458" lon="5.09244">
        <ele>427</ele>
        <time>2000-01-01T11:53:47Z</time>
      </trkpt>
      <trkpt lat="50.0042" lon="5.09245">
        <ele>434</ele>
        <time>2000-01-01T11:53:57Z</time>
      </trkpt>
      <trkpt lat="50.00382" lon="5.09245">
        <ele>433</ele>
        <time>2000-01-01T11:54:07Z</time>
      </trkpt>
      <trkpt lat="50.00343" lon="5.09246">
        <ele>433</ele>
        <time>2000-01-01T11:54:17Z</time>
      </trkpt>
      <trkpt lat="50.00317" lon="5.09246">
        <ele>432</ele>
        <time>2000-01-01T11:54:27Z</time>
      </trkpt>
      <trkpt lat="50.00279" lon="5.09247">
        <ele>430</ele>
        <time>2000-01-01T11:54:37Z</time>
      </trkpt>
      <trkpt lat="50.00238" lon="5.09246">
        <ele>430</ele>
        <time>2000-01-01T11:54:47Z</time>
      </trkpt>
      <trkpt lat="50.00197" lon="5.09246">
        <ele>428</ele>
        <time>2000-01-01T11:54:57Z</time>
      </trkpt>
      <trkpt lat="50.00157" lon="5.09246">
        <ele>421</ele>
        <time>2000-01-01T11:55:07Z</time>
      </trkpt>
      <trkpt lat="50.00116" lon="5.09246">
        <ele>413</ele>
        <time>2000-01-01T11:55:17Z</time>
      </trkpt>
      <trkpt lat="50.00075" lon="5.09246">
        <ele>413</ele>
        <time>2000-01-01T11:55:27Z</time>
      </trkpt>
      <trkpt lat="50.00035" lon="5.09245">
        <ele>413</ele>
        <time>2000-01-01T11:55:37Z</time>
      </trkpt>
      <trkpt lat="49.99994" lon="5.09245">
        <ele>413</ele>
        <time>2000-01-01T11:55:47Z</time>
      </trkpt>
      <trkpt lat="49.99953" lon="5.09245">
        <ele>412</ele>
        <time>2000-01-01T11:55:57Z</time>
      </trkpt>
      <trkpt lat="49.99913" lon="5.09245">
        <ele>412</ele>
        <time>2000-01-01T11:56:07Z</time>
      </trkpt>
      <trkpt lat="49.99872" lon="5.09244">
        <ele>413</ele>
        <time>2000-01-01T11:56:17Z</time>
      </trkpt>
      <trkpt lat="49.99831" lon="5.09244">
        <ele>414</ele>
        <time>2000-01-01T11:56:27Z</time>
      </trkpt>
      <trkpt lat="49.99791" lon="5.09244">
        <ele>424</ele>
        <time>2000-01-01T11:56:37Z</time>
      </trkpt>
      <trkpt lat="49.9975" lon="5.09244">
        <ele>427</ele>
        <time>2000-01-01T11:56:47Z</time>
      </trkpt>
      <trkpt lat="49.9971" lon="5.09244">
        <ele>427</ele>
        <time>2000-01-01T11:56:57Z</time>
      </trkpt>
      <trkpt lat="49.99669" lon="5.09243">
        <ele>426</ele>
        <time>2000-01-01T11:57:07Z</time>
      </trkpt>
      <trkpt lat="49.99645" lon="5.09243">
        <ele>425</ele>
        <time>2000-01-01T11:57:17Z</time>
      </trkpt>
      <trkpt lat="49.99615" lon="5.09243">
        <ele>427</ele>
        <time>2000-01-01T11:57:27Z</time>
      </trkpt>
      <trkpt lat="49.99575" lon="5.09244">
        <ele>429</ele>
        <time>2000-01-01T11:57:37Z</time>
      </trkpt>
      <trkpt lat="49.99536" lon="5.09245">
        <ele>430</ele>
        <time>2000-01-01T11:57:47Z</time>
      </trkpt>
      <trkpt lat="49.99496" lon="5.09246">
        <ele>427</ele>
        <time>2000-01-01T11:57:57Z</time>
      </trkpt>
      <trkpt lat="49.99456" lon="5.09247">
        <ele>427</ele>
        <time>2000-01-01T11:58:07Z</time>
      </trkpt>
      <trkpt lat="49.99416" lon="5.09248">
        <ele>427</ele>
        <time>2000-01-01T11:58:17Z</time>
      </trkpt>
      <trkpt lat="49.99376" lon="5.09249">
        <ele>423</ele>
        <time>2000-01-01T11:58:27Z</time>
      </trkpt>
      <trkpt lat="49.99337" lon="5.0925">
        <ele>420</ele>
        <time>2000-01-01T11:58:37Z</time>
      </trkpt>
      <trkpt lat="49.99297" lon="5.09251">
        <ele>409</ele>
        <time>2000-01-01T11:58:47Z</time>
      </trkpt>
      <trkpt lat="49.99257" lon="5.09253">
        <ele>407</ele>
        <time>2000-01-01T11:58:57Z</time>
      </trkpt>
      <trkpt lat="49.99217" lon="5.09254">
        <ele>405</ele>
        <time>2000-01-01T11:59:07Z</time>
      </trkpt>
      <trkpt lat="49.99178" lon="5.09255">
        <ele>396</ele>
        <time>2000-01-01T11:59:17Z</time>
      </trkpt>
      <trkpt lat="49.99154" lon="5.09255">
        <ele>393</ele>
        <time>2000-01-01T11:59:27Z</time>
      </trkpt>
      <trkpt lat="49.99127" lon="5.09256">
        <ele>389</ele>
        <time>2000-01-01T11:59:37Z</time>
      </trkpt>
      <trkpt lat="49.99093" lon="5.09258">
        <ele>382</ele>
        <time>2000-01-01T11:59:47Z</time>
      </trkpt>
      <trkpt lat="49.99059" lon="5.0926">
        <ele>378</ele>
        <time>2000-01-01T11:59:57Z</time>
      </trkpt>
      <trkpt lat="49.99025" lon="5.09261">
        <ele>377</ele>
        <time>2000-01-01T12:00:07Z</time>
      </trkpt>
      <trkpt lat="49.99002" lon="5.09263">
        <ele>371</ele>
        <time>2000-01-01T12:00:17Z</time>
      </trkpt>
      <trkpt lat="49.98972" lon="5.09264">
        <ele>366</ele>
        <time>2000-01-01T12:00:27Z</time>
      </trkpt>
      <trkpt lat="49.98942" lon="5.09263">
        <ele>363</ele>
        <time>2000-01-01T12:00:37Z</time>
      </trkpt>
      <trkpt lat="49.98912" lon="5.09245">
        <ele>360</ele>
        <time>2000-01-01T12:00:47Z</time>
      </trkpt>
      <trkpt lat="49.98883" lon="5.09227">
        <ele>359</ele>
        <time>2000-01-01T12:00:57Z</time>
      </trkpt>
      <trkpt lat="49.98861" lon="5.09214">
        <ele>359</ele>
        <time>2000-01-01T12:01:07Z</time>
      </trkpt>
      <trkpt lat="49.98834" lon="5.09198">
        <ele>355</ele>
        <time>2000-01-01T12:01:17Z</time>
      </trkpt>
      <trkpt lat="49.98793" lon="5.09196">
        <ele>354</ele>
        <time>2000-01-01T12:01:27Z</time>
      </trkpt>
      <trkpt lat="49.98769" lon="5.09197">
        <ele>353</ele>
        <time>2000-01-01T12:01:37Z</time>
      </trkpt>
      <trkpt lat="49.9874" lon="5.09198">
        <ele>353</ele>
        <time>2000-01-01T12:01:47Z</time>
      </trkpt>
      <trkpt lat="49.9871" lon="5.09189">
        <ele>352</ele>
        <time>2000-01-01T12:01:57Z</time>
      </trkpt>
      <trkpt lat="49.9868" lon="5.09174">
        <ele>352</ele>
        <time>2000-01-01T12:02:07Z</time>
      </trkpt>
      <trkpt lat="49.98651" lon="5.09153">
        <ele>351</ele>
        <time>2000-01-01T12:02:17Z</time>
      </trkpt>
      <trkpt lat="49.98623" lon="5.09132">
        <ele>351</ele>
        <time>2000-01-01T12:02:27Z</time>
      </trkpt>
      <trkpt lat="49.98601" lon="5.09117">
        <ele>352</ele>
        <time>2000-01-01T12:02:37Z</time>
      </trkpt>
      <trkpt lat="49.98574" lon="5.09097">
        <ele>354</ele>
        <time>2000-01-01T12:02:47Z</time>
      </trkpt>
      <trkpt lat="49.98551" lon="5.09088">
        <ele>362</ele>
        <time>2000-01-01T12:02:57Z</time>
      </trkpt>
      <trkpt lat="49.98522" lon="5.09076">
        <ele>365</ele>
        <time>2000-01-01T12:03:07Z</time>
      </trkpt>
      <trkpt lat="49.98493" lon="5.09081">
        <ele>366</ele>
        <time>2000-01-01T12:03:17Z</time>
      </trkpt>
      <trkpt lat="49.98469" lon="5.09084">
        <ele>367</ele>
        <time>2000-01-01T12:03:27Z</time>
      </trkpt>
      <trkpt lat="49.98437" lon="5.09089">
        <ele>372</ele>
        <time>2000-01-01T12:03:37Z</time>
      </trkpt>
      <trkpt lat="49.98411" lon="5.09084">
        <ele>372</ele>
        <time>2000-01-01T12:03:47Z</time>
      </trkpt>
      <trkpt lat="49.98381" lon="5.09083">
        <ele>375</ele>
        <time>2000-01-01T12:03:57Z</time>
      </trkpt>
      <trkpt lat="49.98351" lon="5.09083">
        <ele>374</ele>
        <time>2000-01-01T12:04:07Z</time>
      </trkpt>
      <trkpt lat="49.98312" lon="5.09082">
        <ele>373</ele>
        <time>2000-01-01T12:04:17Z</time>
      </trkpt>
      <trkpt lat="49.98289" lon="5.09077">
        <ele>366</ele>
        <time>2000-01-01T12:04:27Z</time>
      </trkpt>
      <trkpt lat="49.98263" lon="5.09071">
        <ele>359</ele>
        <time>2000-01-01T12:04:37Z</time>
      </trkpt>
      <trkpt lat="49.98229" lon="5.09055">
        <ele>356</ele>
        <time>2000-01-01T12:04:47Z</time>
      </trkpt>
      <trkpt lat="49.98191" lon="5.09021">
        <ele>351</ele>
        <time>2000-01-01T12:04:57Z</time>
      </trkpt>
      <trkpt lat="49.98168" lon="5.08996">
        <ele>350</ele>
        <time>2000-01-01T12:05:07Z</time>
      </trkpt>
      <trkpt lat="49.98149" lon="5.08975">
        <ele>352</ele>
        <time>2000-01-01T12:05:17Z</time>
      </trkpt>
      <trkpt lat="49.98126" lon="5.08951">
        <ele>354</ele>
        <time>2000-01-01T12:05:27Z</time>
      </trkpt>
      <trkpt lat="49.98107" lon="5.08931">
        <ele>354</ele>
        <time>2000-01-01T12:05:37Z</time>
      </trkpt>
      <trkpt lat="49.98084" lon="5.08908">
        <ele>354</ele>
        <time>2000-01-01T12:05:47Z</time>
      </trkpt>
      <trkpt lat="49.98055" lon="5.08888">
        <ele>353</ele>
        <time>2000-01-01T12:05:57Z</time>
      </trkpt>
      <trkpt lat="49.98026" lon="5.08868">
        <ele>353</ele>
        <time>2000-01-01T12:06:07Z</time>
      </trkpt>
      <trkpt lat="49.98004" lon="5.08853">
        <ele>352</ele>
        <time>2000-01-01T12:06:17Z</time>
      </trkpt>
      <trkpt lat="49.97977" lon="5.08834">
        <ele>347</ele>
        <time>2000-01-01T12:06:27Z</time>
      </trkpt>
      <trkpt lat="49.97954" lon="5.08828">
        <ele>346</ele>
        <time>2000-01-01T12:06:37Z</time>
      </trkpt>
      <trkpt lat="49.97929" lon="5.08821">
        <ele>346</ele>
        <time>2000-01-01T12:06:47Z</time>
      </trkpt>
      <trkpt lat="49.97919" lon="5.08812">
        <ele>351.8</ele>
        <time>2000-01-01T12:06:57Z</time>
      </trkpt>
      <trkpt lat="49.97908" lon="5.08795">
        <ele>347</ele>
        <time>2000-01-01T12:07:07Z</time>
      </trkpt>
      <trkpt lat="49.97891" lon="5.08757">
        <ele>347</ele>
        <time>2000-01-01T12:07:17Z</time>
      </trkpt>
      <trkpt lat="49.97873" lon="5.0872">
        <ele>347</ele>
        <time>2000-01-01T12:07:27Z</time>
      </trkpt>
      <trkpt lat="49.97853" lon="5.08677">
        <ele>347</ele>
        <time>2000-01-01T12:07:37Z</time>
      </trkpt>
      <trkpt lat="49.97828" lon="5.08696">
        <ele>348</ele>
        <time>2000-01-01T12:07:47Z</time>
      </trkpt>
      <trkpt lat="49.97806" lon="5.08706">
        <ele>348</ele>
        <time>2000-01-01T12:07:57Z</time>
      </trkpt>
      <trkpt lat="49.97783" lon="5.08716">
        <ele>346</ele>
        <time>2000-01-01T12:08:07Z</time>
      </trkpt>
      <trkpt lat="49.97765" lon="5.08729">
        <ele>345</ele>
        <time>2000-01-01T12:08:17Z</time>
      </trkpt>
      <trkpt lat="49.97741" lon="5.08757">
        <ele>345</ele>
        <time>2000-01-01T12:08:27Z</time>
      </trkpt>
      <trkpt lat="49.97716" lon="5.08785">
        <ele>347</ele>
        <time>2000-01-01T12:08:37Z</time>
      </trkpt>
      <trkpt lat="49.97681" lon="5.08825">
        <ele>356</ele>
        <time>2000-01-01T12:08:47Z</time>
      </trkpt>
      <trkpt lat="49.97661" lon="5.08851">
        <ele>359</ele>
        <time>2000-01-01T12:08:57Z</time>
      </trkpt>
      <trkpt lat="49.97629" lon="5.08892">
        <ele>360</ele>
        <time>2000-01-01T12:09:07Z</time>
      </trkpt>
      <trkpt lat="49.97609" lon="5.0892">
        <ele>361</ele>
        <time>2000-01-01T12:09:17Z</time>
      </trkpt>
      <trkpt lat="49.97592" lon="5.08944">
        <ele>363</ele>
        <time>2000-01-01T12:09:27Z</time>
      </trkpt>
      <trkpt lat="49.97573" lon="5.08971">
        <ele>366</ele>
        <time>2000-01-01T12:09:37Z</time>
      </trkpt>
      <trkpt lat="49.97553" lon="5.08993">
        <ele>370</ele>
        <time>2000-01-01T12:09:47Z</time>
      </trkpt>
      <trkpt lat="49.97525" lon="5.09022">
        <ele>375</ele>
        <time>2000-01-01T12:09:57Z</time>
      </trkpt>
      <trkpt lat="49.97501" lon="5.09046">
        <ele>375</ele>
        <time>2000-01-01T12:10:07Z</time>
      </trkpt>
      <trkpt lat="49.9748" lon="5.09066">
        <ele>379</ele>
        <time>2000-01-01T12:10:17Z</time>
      </trkpt>
      <trkpt lat="49.97453" lon="5.09092">
        <ele>380</ele>
        <time>2000-01-01T12:10:27Z</time>
      </trkpt>
      <trkpt lat="49.97418" lon="5.09114">
        <ele>382</ele>
        <time>2000-01-01T12:10:37Z</time>
      </trkpt>
      <trkpt lat="49.97412" lon="5.0916">
        <ele>382</ele>
        <time>2000-01-01T12:10:47Z</time>
      </trkpt>
      <trkpt lat="49.97406" lon="5.09207">
        <ele>381</ele>
        <time>2000-01-01T12:10:57Z</time>
      </trkpt>
      <trkpt lat="49.97397" lon="5.09272">
        <ele>381</ele>
        <time>2000-01-01T12:11:07Z</time>
      </trkpt>
      <trkpt lat="49.97395" lon="5.0932">
        <ele>381</ele>
        <time>2000-01-01T12:11:17Z</time>
      </trkpt>
      <trkpt lat="49.97393" lon="5.09368">
        <ele>382</ele>
        <time>2000-01-01T12:11:27Z</time>
      </trkpt>
      <trkpt lat="49.97392" lon="5.09403">
        <ele>382</ele>
        <time>2000-01-01T12:11:37Z</time>
      </trkpt>
      <trkpt lat="49.97391" lon="5.09441">
        <ele>382</ele>
        <time>2000-01-01T12:11:47Z</time>
      </trkpt>
      <trkpt lat="49.9739" lon="5.09483">
        <ele>379</ele>
        <time>2000-01-01T12:11:57Z</time>
      </trkpt>
      <trkpt lat="49.97383" lon="5.09538">
        <ele>377</ele>
        <time>2000-01-01T12:12:07Z</time>
      </trkpt>
      <trkpt lat="49.97376" lon="5.09592">
        <ele>375</ele>
        <time>2000-01-01T12:12:17Z</time>
      </trkpt>
      <trkpt lat="49.9737" lon="5.09646">
        <ele>373</ele>
        <time>2000-01-01T12:12:27Z</time>
      </trkpt>
      <trkpt lat="49.97363" lon="5.09701">
        <ele>371</ele>
        <time>2000-01-01T12:12:37Z</time>
      </trkpt>
      <trkpt lat="49.97358" lon="5.09739">
        <ele>369</ele>
        <time>2000-01-01T12:12:47Z</time>
      </trkpt>
      <trkpt lat="49.97351" lon="5.0979">
        <ele>367</ele>
        <time>2000-01-01T12:12:57Z</time>
      </trkpt>
      <trkpt lat="49.97352" lon="5.09845">
        <ele>365</ele>
        <time>2000-01-01T12:13:07Z</time>
      </trkpt>
      <trkpt lat="49.97353" lon="5.09899">
        <ele>364</ele>
        <time>2000-01-01T12:13:17Z</time>
      </trkpt>
      <trkpt lat="49.97354" lon="5.09954">
        <ele>359</ele>
        <time>2000-01-01T12:13:27Z</time>
      </trkpt>
      <trkpt lat="49.97355" lon="5.10009">
        <ele>359</ele>
        <time>2000-01-01T12:13:37Z</time>
      </trkpt>
      <trkpt lat="49.97356" lon="5.10043">
        <ele>360</ele>
        <time>2000-01-01T12:13:47Z</time>
      </trkpt>
      <trkpt lat="49.97357" lon="5.1008">
        <ele>369</ele>
        <time>2000-01-01T12:13:57Z</time>
      </trkpt>
      <trkpt lat="49.9736" lon="5.10123">
        <ele>376</ele>
        <time>2000-01-01T12:14:07Z</time>
      </trkpt>
      <trkpt lat="49.97362" lon="5.10159">
        <ele>379</ele>
        <time>2000-01-01T12:14:17Z</time>
      </trkpt>
      <trkpt lat="49.97365" lon="5.10201">
        <ele>385</ele>
        <time>2000-01-01T12:14:27Z</time>
      </trkpt>
      <trkpt lat="49.97371" lon="5.10254">
        <ele>385</ele>
        <time>2000-01-01T12:14:37Z</time>
      </trkpt>
      <trkpt lat="49.97378" lon="5.10308">
        <ele>383</ele>
        <time>2000-01-01T12:14:47Z</time>
      </trkpt>
      <trkpt lat="49.97384" lon="5.10362">
        <ele>382</ele>
        <time>2000-01-01T12:14:57Z</time>
      </trkpt>
      <trkpt lat="49.9739" lon="5.10415">
        <ele>382</ele>
        <time>2000-01-01T12:15:07Z</time>
      </trkpt>
      <trkpt lat="49.97394" lon="5.10449">
        <ele>382</ele>
        <time>2000-01-01T12:15:17Z</time>
      </trkpt>
      <trkpt lat="49.97399" lon="5.10484">
        <ele>381</ele>
        <time>2000-01-01T12:15:27Z</time>
      </trkpt>
      <trkpt lat="49.97399" lon="5.10524">
        <ele>379</ele>
        <time>2000-01-01T12:15:37Z</time>
      </trkpt>
      <trkpt lat="49.974" lon="5.10584">
        <ele>376</ele>
        <time>2000-01-01T12:15:47Z</time>
      </trkpt>
      <trkpt lat="49.97403" lon="5.10636">
        <ele>371</ele>
        <time>2000-01-01T12:15:57Z</time>
      </trkpt>
      <trkpt lat="49.97406" lon="5.10689">
        <ele>369</ele>
        <time>2000-01-01T12:16:07Z</time>
      </trkpt>
      <trkpt lat="49.97409" lon="5.10741">
        <ele>365</ele>
        <time>2000-01-01T12:16:17Z</time>
      </trkpt>
      <trkpt lat="49.97411" lon="5.10779">
        <ele>361</ele>
        <time>2000-01-01T12:16:27Z</time>
      </trkpt>
      <trkpt lat="49.97414" lon="5.10826">
        <ele>361</ele>
        <time>2000-01-01T12:16:37Z</time>
      </trkpt>
      <trkpt lat="49.97398" lon="5.1085">
        <ele>360</ele>
        <time>2000-01-01T12:16:47Z</time>
      </trkpt>
      <trkpt lat="49.97379" lon="5.10877">
        <ele>358</ele>
        <time>2000-01-01T12:16:57Z</time>
      </trkpt>
      <trkpt lat="49.97361" lon="5.109">
        <ele>357</ele>
        <time>2000-01-01T12:17:07Z</time>
      </trkpt>
      <trkpt lat="49.97341" lon="5.10927">
        <ele>357</ele>
        <time>2000-01-01T12:17:17Z</time>
      </trkpt>
      <trkpt lat="49.97319" lon="5.10952">
        <ele>358</ele>
        <time>2000-01-01T12:17:27Z</time>
      </trkpt>
      <trkpt lat="49.97301" lon="5.10971">
        <ele>358</ele>
        <time>2000-01-01T12:17:37Z</time>
      </trkpt>
      <trkpt lat="49.97282" lon="5.10992">
        <ele>356</ele>
        <time>2000-01-01T12:17:47Z</time>
      </trkpt>
      <trkpt lat="49.97269" lon="5.11015">
        <ele>355</ele>
        <time>2000-01-01T12:17:57Z</time>
      </trkpt>
      <trkpt lat="49.9726" lon="5.11046">
        <ele>348</ele>
        <time>2000-01-01T12:18:07Z</time>
      </trkpt>
      <trkpt lat="49.97253" lon="5.11076">
        <ele>338</ele>
        <time>2000-01-01T12:18:17Z</time>
      </trkpt>
      <trkpt lat="49.97252" lon="5.11093">
        <ele>340.6</ele>
        <time>2000-01-01T12:18:27Z</time>
      </trkpt>
      <trkpt lat="49.97258" lon="5.11111">
        <ele>335</ele>
        <time>2000-01-01T12:18:37Z</time>
      </trkpt>
      <trkpt lat="49.97269" lon="5.11121">
        <ele>336</ele>
        <time>2000-01-01T12:18:47Z</time>
      </trkpt>
      <trkpt lat="49.97282" lon="5.11126">
        <ele>333</ele>
        <time>2000-01-01T12:18:57Z</time>
      </trkpt>
      <trkpt lat="49.97293" lon="5.11136">
        <ele>333.7</ele>
        <time>2000-01-01T12:19:07Z</time>
      </trkpt>
      <trkpt lat="49.97303" lon="5.11154">
        <ele>329</ele>
        <time>2000-01-01T12:19:17Z</time>
      </trkpt>
      <trkpt lat="49.97316" lon="5.11166">
        <ele>331.7</ele>
        <time>2000-01-01T12:19:27Z</time>
      </trkpt>
      <trkpt lat="49.97328" lon="5.11175">
        <ele>324</ele>
        <time>2000-01-01T12:19:37Z</time>
      </trkpt>
      <trkpt lat="49.97336" lon="5.11185">
        <ele>331.1</ele>
        <time>2000-01-01T12:19:47Z</time>
      </trkpt>
      <trkpt lat="49.9734" lon="5.11195">
        <ele>324</ele>
        <time>2000-01-01T12:19:57Z</time>
      </trkpt>
      <trkpt lat="49.97341" lon="5.1121">
        <ele>332</ele>
        <time>2000-01-01T12:20:07Z</time>
      </trkpt>
      <trkpt lat="49.9732" lon="5.11237">
        <ele>325</ele>
        <time>2000-01-01T12:20:17Z</time>
      </trkpt>
      <trkpt lat="49.973" lon="5.11253">
        <ele>340</ele>
        <time>2000-01-01T12:20:27Z</time>
      </trkpt>
      <trkpt lat="49.97276" lon="5.11271">
        <ele>344</ele>
        <time>2000-01-01T12:20:37Z</time>
      </trkpt>
      <trkpt lat="49.97249" lon="5.11276">
        <ele>347</ele>
        <time>2000-01-01T12:20:47Z</time>
      </trkpt>
      <trkpt lat="49.97228" lon="5.11273">
        <ele>349</ele>
        <time>2000-01-01T12:20:57Z</time>
      </trkpt>
      <trkpt lat="49.97206" lon="5.11266">
        <ele>349</ele>
        <time>2000-01-01T12:21:07Z</time>
      </trkpt>
      <trkpt lat="49.97184" lon="5.11259">
        <ele>344</ele>
        <time>2000-01-01T12:21:17Z</time>
      </trkpt>
      <trkpt lat="49.9716" lon="5.11254">
        <ele>344</ele>
        <time>2000-01-01T12:21:27Z</time>
      </trkpt>
      <trkpt lat="49.97139" lon="5.11263">
        <ele>341</ele>
        <time>2000-01-01T12:21:37Z</time>
      </trkpt>
      <trkpt lat="49.97119" lon="5.1128">
        <ele>341</ele>
        <time>2000-01-01T12:21:47Z</time>
      </trkpt>
      <trkpt lat="49.97104" lon="5.11319">
        <ele>342</ele>
        <time>2000-01-01T12:21:57Z</time>
      </trkpt>
      <trkpt lat="49.97094" lon="5.11355">
        <ele>345</ele>
        <time>2000-01-01T12:22:07Z</time>
      </trkpt>
      <trkpt lat="49.97082" lon="5.11404">
        <ele>348</ele>
        <time>2000-01-01T12:22:17Z</time>
      </trkpt>
      <trkpt lat="49.97075" lon="5.11448">
        <ele>350</ele>
        <time>2000-01-01T12:22:27Z</time>
      </trkpt>
      <trkpt lat="49.97068" lon="5.11492">
        <ele>353</ele>
        <time>2000-01-01T12:22:37Z</time>
      </trkpt>
      <trkpt lat="49.9706" lon="5.11539">
        <ele>354</ele>
        <time>2000-01-01T12:22:47Z</time>
      </trkpt>
      <trkpt lat="49.97054" lon="5.11584">
        <ele>358</ele>
        <time>2000-01-01T12:22:57Z</time>
      </trkpt>
      <trkpt lat="49.97049" lon="5.11628">
        <ele>361</ele>
        <time>2000-01-01T12:23:07Z</time>
      </trkpt>
      <trkpt lat="49.97043" lon="5.11675">
        <ele>363</ele>
        <time>2000-01-01T12:23:17Z</time>
      </trkpt>
      <trkpt lat="49.97034" lon="5.11711">
        <ele>362</ele>
        <time>2000-01-01T12:23:27Z</time>
      </trkpt>
      <trkpt lat="49.97023" lon="5.11761">
        <ele>362</ele>
        <time>2000-01-01T12:23:37Z</time>
      </trkpt>
      <trkpt lat="49.9701" lon="5.11791">
        <ele>361</ele>
        <time>2000-01-01T12:23:47Z</time>
      </trkpt>
      <trkpt lat="49.96984" lon="5.11815">
        <ele>361</ele>
        <time>2000-01-01T12:23:57Z</time>
      </trkpt>
      <trkpt lat="49.96958" lon="5.1184">
        <ele>357</ele>
        <time>2000-01-01T12:24:07Z</time>
      </trkpt>
      <trkpt lat="49.96926" lon="5.11871">
        <ele>346</ele>
        <time>2000-01-01T12:24:17Z</time>
      </trkpt>
      <trkpt lat="49.96903" lon="5.11887">
        <ele>340</ele>
        <time>2000-01-01T12:24:27Z</time>
      </trkpt>
      <trkpt lat="49.96874" lon="5.11908">
        <ele>335</ele>
        <time>2000-01-01T12:24:37Z</time>
      </trkpt>
      <trkpt lat="49.96841" lon="5.11908">
        <ele>328</ele>
        <time>2000-01-01T12:24:47Z</time>
      </trkpt>
      <trkpt lat="49.96808" lon="5.11909">
        <ele>325</ele>
        <time>2000-01-01T12:24:57Z</time>
      </trkpt>
      <trkpt lat="49.96775" lon="5.1191">
        <ele>325</ele>
        <time>2000-01-01T12:25:07Z</time>
      </trkpt>
      <trkpt lat="49.96738" lon="5.1191">
        <ele>326</ele>
        <time>2000-01-01T12:25:17Z</time>
      </trkpt>
      <trkpt lat="49.96716" lon="5.11913">
        <ele>326</ele>
        <time>2000-01-01T12:25:27Z</time>
      </trkpt>
      <trkpt lat="49.96692" lon="5.11916">
        <ele>325</ele>
        <time>2000-01-01T12:25:37Z</time>
      </trkpt>
      <trkpt lat="49.96671" lon="5.11932">
        <ele>319</ele>
        <time>2000-01-01T12:25:47Z</time>
      </trkpt>
      <trkpt lat="49.96645" lon="5.11951">
        <ele>312</ele>
        <time>2000-01-01T12:25:57Z</time>
      </trkpt>
      <trkpt lat="49.9662" lon="5.11977">
        <ele>306</ele>
        <time>2000-01-01T12:26:07Z</time>
      </trkpt>
      <trkpt lat="49.96594" lon="5.12004">
        <ele>304</ele>
        <time>2000-01-01T12:26:17Z</time>
      </trkpt>
      <trkpt lat="49.96559" lon="5.12041">
        <ele>304</ele>
        <time>2000-01-01T12:26:27Z</time>
      </trkpt>
      <trkpt lat="49.96536" lon="5.12063">
        <ele>302</ele>
        <time>2000-01-01T12:26:37Z</time>
      </trkpt>
      <trkpt lat="49.96517" lon="5.12081">
        <ele>301</ele>
        <time>2000-01-01T12:26:47Z</time>
      </trkpt>
      <trkpt lat="49.96498" lon="5.121">
        <ele>301</ele>
        <time>2000-01-01T12:26:57Z</time>
      </trkpt>
      <trkpt lat="49.96477" lon="5.12119">
        <ele>300</ele>
        <time>2000-01-01T12:27:07Z</time>
      </trkpt>
      <trkpt lat="49.96449" lon="5.12145">
        <ele>300</ele>
        <time>2000-01-01T12:27:17Z</time>
      </trkpt>
      <trkpt lat="49.96427" lon="5.12161">
        <ele>302</ele>
        <time>2000-01-01T12:27:27Z</time>
      </trkpt>
      <trkpt lat="49.964" lon="5.1218">
        <ele>304</ele>
        <time>2000-01-01T12:27:37Z</time>
      </trkpt>
      <trkpt lat="49.96382" lon="5.12206">
        <ele>301</ele>
        <time>2000-01-01T12:27:47Z</time>
      </trkpt>
      <trkpt lat="49.96358" lon="5.1224">
        <ele>303</ele>
        <time>2000-01-01T12:27:57Z</time>
      </trkpt>
      <trkpt lat="49.96334" lon="5.12253">
        <ele>305</ele>
        <time>2000-01-01T12:28:07Z</time>
      </trkpt>
      <trkpt lat="49.96302" lon="5.1227">
        <ele>307</ele>
        <time>2000-01-01T12:28:17Z</time>
      </trkpt>
      <trkpt lat="49.96278" lon="5.12278">
        <ele>307</ele>
        <time>2000-01-01T12:28:27Z</time>
      </trkpt>
      <trkpt lat="49.96244" lon="5.1229">
        <ele>307</ele>
        <time>2000-01-01T12:28:37Z</time>
      </trkpt>
      <trkpt lat="49.96222" lon="5.12295">
        <ele>306</ele>
        <time>2000-01-01T12:28:47Z</time>
      </trkpt>
      <trkpt lat="49.96192" lon="5.12296">
        <ele>306</ele>
        <time>2000-01-01T12:28:57Z</time>
      </trkpt>
      <trkpt lat="49.96182" lon="5.12344">
        <ele>306</ele>
        <time>2000-01-01T12:29:07Z</time>
      </trkpt>
      <trkpt lat="49.9616" lon="5.12344">
        <ele>306</ele>
        <time>2000-01-01T12:29:17Z</time>
      </trkpt>
      <trkpt lat="49.96137" lon="5.12344">
        <ele>306</ele>
        <time>2000-01-01T12:29:27Z</time>
      </trkpt>
      <trkpt lat="49.9611" lon="5.12341">
        <ele>302</ele>
        <time>2000-01-01T12:29:37Z</time>
      </trkpt>
      <trkpt lat="49.96088" lon="5.12339">
        <ele>301</ele>
        <time>2000-01-01T12:29:47Z</time>
      </trkpt>
      <trkpt lat="49.96064" lon="5.12337">
        <ele>301</ele>
        <time>2000-01-01T12:29:57Z</time>
      </trkpt>
      <trkpt lat="49.96038" lon="5.1233">
        <ele>301</ele>
        <time>2000-01-01T12:30:07Z</time>
      </trkpt>
      <trkpt lat="49.96031" lon="5.12367">
        <ele>306</ele>
        <time>2000-01-01T12:30:17Z</time>
      </trkpt>
      <trkpt lat="49.96009" lon="5.12372">
        <ele>307</ele>
        <time>2000-01-01T12:30:27Z</time>
      </trkpt>
      <trkpt lat="49.95985" lon="5.12377">
        <ele>307</ele>
        <time>2000-01-01T12:30:37Z</time>
      </trkpt>
      <trkpt lat="49.95963" lon="5.1239">
        <ele>309</ele>
        <time>2000-01-01T12:30:47Z</time>
      </trkpt>
      <trkpt lat="49.95977" lon="5.12447">
        <ele>312</ele>
        <time>2000-01-01T12:30:57Z</time>
      </trkpt>
      <trkpt lat="49.95977" lon="5.12497">
        <ele>313</ele>
        <time>2000-01-01T12:31:07Z</time>
      </trkpt>
      <trkpt lat="49.95976" lon="5.12548">
        <ele>315</ele>
        <time>2000-01-01T12:31:17Z</time>
      </trkpt>
      <trkpt lat="49.95976" lon="5.12599">
        <ele>316</ele>
        <time>2000-01-01T12:31:27Z</time>
      </trkpt>
      <trkpt lat="49.95975" lon="5.1265">
        <ele>318</ele>
        <time>2000-01-01T12:31:37Z</time>
      </trkpt>
      <trkpt lat="49.95972" lon="5.12698">
        <ele>318</ele>
        <time>2000-01-01T12:31:47Z</time>
      </trkpt>
      <trkpt lat="49.95969" lon="5.12745">
        <ele>318</ele>
        <time>2000-01-01T12:31:57Z</time>
      </trkpt>
      <trkpt lat="49.95964" lon="5.12811">
        <ele>318</ele>
        <time>2000-01-01T12:32:07Z</time>
      </trkpt>
      <trkpt lat="49.9596" lon="5.12828">
        <ele>329.1</ele>
        <time>2000-01-01T12:32:17Z</time>
      </trkpt>
      <trkpt lat="49.95953" lon="5.12829">
        <ele>316</ele>
        <time>2000-01-01T12:32:27Z</time>
      </trkpt>
      <trkpt lat="49.95934" lon="5.12842">
        <ele>314</ele>
        <time>2000-01-01T12:32:37Z</time>
      </trkpt>
      <trkpt lat="49.95918" lon="5.12862">
        <ele>315</ele>
        <time>2000-01-01T12:32:47Z</time>
      </trkpt>
      <trkpt lat="49.95904" lon="5.12893">
        <ele>316</ele>
        <time>2000-01-01T12:32:57Z</time>
      </trkpt>
      <trkpt lat="49.95895" lon="5.12929">
        <ele>319</ele>
        <time>2000-01-01T12:33:07Z</time>
      </trkpt>
      <trkpt lat="49.95883" lon="5.12977">
        <ele>317</ele>
        <time>2000-01-01T12:33:17Z</time>
      </trkpt>
      <trkpt lat="49.95873" lon="5.1301">
        <ele>317</ele>
        <time>2000-01-01T12:33:27Z</time>
      </trkpt>
      <trkpt lat="49.95861" lon="5.13052">
        <ele>315</ele>
        <time>2000-01-01T12:33:37Z</time>
      </trkpt>
      <trkpt lat="49.95848" lon="5.13081">
        <ele>315</ele>
        <time>2000-01-01T12:33:47Z</time>
      </trkpt>
      <trkpt lat="49.95831" lon="5.13116">
        <ele>315</ele>
        <time>2000-01-01T12:33:57Z</time>
      </trkpt>
      <trkpt lat="49.95803" lon="5.1316">
        <ele>311</ele>
        <time>2000-01-01T12:34:07Z</time>
      </trkpt>
      <trkpt lat="49.95783" lon="5.13185">
        <ele>310</ele>
        <time>2000-01-01T12:34:17Z</time>
      </trkpt>
      <trkpt lat="49.9576" lon="5.13198">
        <ele>310</ele>
        <time>2000-01-01T12:34:27Z</time>
      </trkpt>
      <trkpt lat="49.95733" lon="5.13196">
        <ele>308</ele>
        <time>2000-01-01T12:34:37Z</time>
      </trkpt>
      <trkpt lat="49.95712" lon="5.13187">
        <ele>308</ele>
        <time>2000-01-01T12:34:47Z</time>
      </trkpt>
      <trkpt lat="49.9569" lon="5.13178">
        <ele>303</ele>
        <time>2000-01-01T12:34:57Z</time>
      </trkpt>
      <trkpt lat="49.95656" lon="5.13146">
        <ele>299</ele>
        <time>2000-01-01T12:35:07Z</time>
      </trkpt>
      <trkpt lat="49.95638" lon="5.13123">
        <ele>300</ele>
        <time>2000-01-01T12:35:17Z</time>
      </trkpt>
      <trkpt lat="49.95617" lon="5.13095">
        <ele>302</ele>
        <time>2000-01-01T12:35:27Z</time>
      </trkpt>
      <trkpt lat="49.95594" lon="5.13051">
        <ele>313</ele>
        <time>2000-01-01T12:35:37Z</time>
      </trkpt>
      <trkpt lat="49.95582" lon="5.12999">
        <ele>313</ele>
        <time>2000-01-01T12:35:47Z</time>
      </trkpt>
      <trkpt lat="49.95569" lon="5.12947">
        <ele>314</ele>
        <time>2000-01-01T12:35:57Z</time>
      </trkpt>
      <trkpt lat="49.95557" lon="5.12895">
        <ele>315</ele>
        <time>2000-01-01T12:36:07Z</time>
      </trkpt>
      <trkpt lat="49.95544" lon="5.12843">
        <ele>312</ele>
        <time>2000-01-01T12:36:17Z</time>
      </trkpt>
      <trkpt lat="49.95536" lon="5.12805">
        <ele>310</ele>
        <time>2000-01-01T12:36:27Z</time>
      </trkpt>
      <trkpt lat="49.95523" lon="5.12752">
        <ele>309</ele>
        <time>2000-01-01T12:36:37Z</time>
      </trkpt>
      <trkpt lat="49.95501" lon="5.12704">
        <ele>310</ele>
        <time>2000-01-01T12:36:47Z</time>
      </trkpt>
      <trkpt lat="49.95468" lon="5.12687">
        <ele>311</ele>
        <time>2000-01-01T12:36:57Z</time>
      </trkpt>
      <trkpt lat="49.9544" lon="5.12696">
        <ele>315</ele>
        <time>2000-01-01T12:37:07Z</time>
      </trkpt>
      <trkpt lat="49.9542" lon="5.1272">
        <ele>321</ele>
        <time>2000-01-01T12:37:17Z</time>
      </trkpt>
      <trkpt lat="49.95392" lon="5.12755">
        <ele>323</ele>
        <time>2000-01-01T12:37:27Z</time>
      </trkpt>
      <trkpt lat="49.95375" lon="5.12788">
        <ele>325</ele>
        <time>2000-01-01T12:37:37Z</time>
      </trkpt>
      <trkpt lat="49.95362" lon="5.12814">
        <ele>328</ele>
        <time>2000-01-01T12:37:47Z</time>
      </trkpt>
      <trkpt lat="49.95347" lon="5.12843">
        <ele>331</ele>
        <time>2000-01-01T12:37:57Z</time>
      </trkpt>
      <trkpt lat="49.95328" lon="5.12872">
        <ele>331</ele>
        <time>2000-01-01T12:38:07Z</time>
      </trkpt>
      <trkpt lat="49.95316" lon="5.12882">
        <ele>333.4</ele>
        <time>2000-01-01T12:38:17Z</time>
      </trkpt>
      <trkpt lat="49.95297" lon="5.12888">
        <ele>335</ele>
        <time>2000-01-01T12:38:27Z</time>
      </trkpt>
      <trkpt lat="49.95279" lon="5.12882">
        <ele>335</ele>
        <time>2000-01-01T12:38:37Z</time>
      </trkpt>
      <trkpt lat="49.95259" lon="5.12846">
        <ele>334</ele>
        <time>2000-01-01T12:38:47Z</time>
      </trkpt>
      <trkpt lat="49.95245" lon="5.12831">
        <ele>339.5</ele>
        <time>2000-01-01T12:38:57Z</time>
      </trkpt>
      <trkpt lat="49.95211" lon="5.12803">
        <ele>334</ele>
        <time>2000-01-01T12:39:07Z</time>
      </trkpt>
      <trkpt lat="49.95178" lon="5.12793">
        <ele>342</ele>
        <time>2000-01-01T12:39:17Z</time>
      </trkpt>
      <trkpt lat="49.95146" lon="5.12782">
        <ele>345</ele>
        <time>2000-01-01T12:39:27Z</time>
      </trkpt>
      <trkpt lat="49.95114" lon="5.12772">
        <ele>340</ele>
        <time>2000-01-01T12:39:37Z</time>
      </trkpt>
      <trkpt lat="49.95073" lon="5.12759">
        <ele>335</ele>
        <time>2000-01-01T12:39:47Z</time>
      </trkpt>
      <trkpt lat="49.95044" lon="5.12756">
        <ele>330</ele>
        <time>2000-01-01T12:39:57Z</time>
      </trkpt>
      <trkpt lat="49.95021" lon="5.12765">
        <ele>330</ele>
        <time>2000-01-01T12:40:07Z</time>
      </trkpt>
      <trkpt lat="49.9499" lon="5.12777">
        <ele>333</ele>
        <time>2000-01-01T12:40:17Z</time>
      </trkpt>
      <trkpt lat="49.94967" lon="5.12794">
        <ele>333</ele>
        <time>2000-01-01T12:40:27Z</time>
      </trkpt>
      <trkpt lat="49.94937" lon="5.12816">
        <ele>331</ele>
        <time>2000-01-01T12:40:37Z</time>
      </trkpt>
      <trkpt lat="49.94907" lon="5.12832">
        <ele>330</ele>
        <time>2000-01-01T12:40:47Z</time>
      </trkpt>
      <trkpt lat="49.94878" lon="5.12848">
        <ele>330</ele>
        <time>2000-01-01T12:40:57Z</time>
      </trkpt>
      <trkpt lat="49.94857" lon="5.1286">
        <ele>331</ele>
        <time>2000-01-01T12:41:07Z</time>
      </trkpt>
      <trkpt lat="49.94833" lon="5.12873">
        <ele>332</ele>
        <time>2000-01-01T12:41:17Z</time>
      </trkpt>
      <trkpt lat="49.94805" lon="5.12879">
        <ele>332</ele>
        <time>2000-01-01T12:41:27Z</time>
      </trkpt>
      <trkpt lat="49.94786" lon="5.12886">
        <ele>339</ele>
        <time>2000-01-01T12:41:37Z</time>
      </trkpt>
      <trkpt lat="49.94769" lon="5.12913">
        <ele>344</ele>
        <time>2000-01-01T12:41:47Z</time>
      </trkpt>
      <trkpt lat="49.94757" lon="5.12944">
        <ele>344</ele>
        <time>2000-01-01T12:41:57Z</time>
      </trkpt>
      <trkpt lat="49.94748" lon="5.1299">
        <ele>344</ele>
        <time>2000-01-01T12:42:07Z</time>
      </trkpt>
      <trkpt lat="49.94746" lon="5.13053">
        <ele>344</ele>
        <time>2000-01-01T12:42:17Z</time>
      </trkpt>
      <trkpt lat="49.94747" lon="5.13093">
        <ele>342</ele>
        <time>2000-01-01T12:42:27Z</time>
      </trkpt>
      <trkpt lat="49.9475" lon="5.1315">
        <ele>341</ele>
        <time>2000-01-01T12:42:37Z</time>
      </trkpt>
      <trkpt lat="49.94743" lon="5.13201">
        <ele>341</ele>
        <time>2000-01-01T12:42:47Z</time>
      </trkpt>
      <trkpt lat="49.9474" lon="5.13249">
        <ele>336</ele>
        <time>2000-01-01T12:42:57Z</time>
      </trkpt>
      <trkpt lat="49.94736" lon="5.13296">
        <ele>336</ele>
        <time>2000-01-01T12:43:07Z</time>
      </trkpt>
      <trkpt lat="49.94734" lon="5.1333">
        <ele>335</ele>
        <time>2000-01-01T12:43:17Z</time>
      </trkpt>
      <trkpt lat="49.94731" lon="5.13364">
        <ele>335</ele>
        <time>2000-01-01T12:43:27Z</time>
      </trkpt>
      <trkpt lat="49.94713" lon="5.13332">
        <ele>335</ele>
        <time>2000-01-01T12:43:37Z</time>
      </trkpt>
      <trkpt lat="49.94698" lon="5.13306">
        <ele>328</ele>
        <time>2000-01-01T12:43:47Z</time>
      </trkpt>
      <trkpt lat="49.94682" lon="5.13278">
        <ele>328</ele>
        <time>2000-01-01T12:43:57Z</time>
      </trkpt>
      <trkpt lat="49.94671" lon="5.13222">
        <ele>328</ele>
        <time>2000-01-01T12:44:07Z</time>
      </trkpt>
      <trkpt lat="49.94668" lon="5.13171">
        <ele>330</ele>
        <time>2000-01-01T12:44:17Z</time>
      </trkpt>
      <trkpt lat="49.94665" lon="5.1312">
        <ele>329</ele>
        <time>2000-01-01T12:44:27Z</time>
      </trkpt>
      <trkpt lat="49.94661" lon="5.13069">
        <ele>329</ele>
        <time>2000-01-01T12:44:37Z</time>
      </trkpt>
      <trkpt lat="49.94657" lon="5.13009">
        <ele>328</ele>
        <time>2000-01-01T12:44:47Z</time>
      </trkpt>
      <trkpt lat="49.9466" lon="5.12965">
        <ele>327</ele>
        <time>2000-01-01T12:44:57Z</time>
      </trkpt>
      <trkpt lat="49.94662" lon="5.12928">
        <ele>325</ele>
        <time>2000-01-01T12:45:07Z</time>
      </trkpt>
      <trkpt lat="49.94665" lon="5.12883">
        <ele>324</ele>
        <time>2000-01-01T12:45:17Z</time>
      </trkpt>
      <trkpt lat="49.94663" lon="5.12821">
        <ele>323</ele>
        <time>2000-01-01T12:45:27Z</time>
      </trkpt>
      <trkpt lat="49.94657" lon="5.12788">
        <ele>321</ele>
        <time>2000-01-01T12:45:37Z</time>
      </trkpt>
      <trkpt lat="49.94651" lon="5.12753">
        <ele>320</ele>
        <time>2000-01-01T12:45:47Z</time>
      </trkpt>
      <trkpt lat="49.94631" lon="5.12718">
        <ele>319</ele>
        <time>2000-01-01T12:45:57Z</time>
      </trkpt>
      <trkpt lat="49.94609" lon="5.12678">
        <ele>319</ele>
        <time>2000-01-01T12:46:07Z</time>
      </trkpt>
      <trkpt lat="49.94587" lon="5.12637">
        <ele>318</ele>
        <time>2000-01-01T12:46:17Z</time>
      </trkpt>
      <trkpt lat="49.94564" lon="5.12597">
        <ele>319</ele>
        <time>2000-01-01T12:46:27Z</time>
      </trkpt>
      <trkpt lat="49.94548" lon="5.12567">
        <ele>319</ele>
        <time>2000-01-01T12:46:37Z</time>
      </trkpt>
      <trkpt lat="49.94527" lon="5.12528">
        <ele>319</ele>
        <time>2000-01-01T12:46:47Z</time>
      </trkpt>
      <trkpt lat="49.94506" lon="5.12492">
        <ele>318</ele>
        <time>2000-01-01T12:46:57Z</time>
      </trkpt>
      <trkpt lat="49.94484" lon="5.12455">
        <ele>318</ele>
        <time>2000-01-01T12:47:07Z</time>
      </trkpt>
      <trkpt lat="49.94467" lon="5.12427">
        <ele>319</ele>
        <time>2000-01-01T12:47:17Z</time>
      </trkpt>
      <trkpt lat="49.94445" lon="5.12389">
        <ele>319</ele>
        <time>2000-01-01T12:47:27Z</time>
      </trkpt>
      <trkpt lat="49.94424" lon="5.12367">
        <ele>322</ele>
        <time>2000-01-01T12:47:37Z</time>
      </trkpt>
      <trkpt lat="49.94392" lon="5.12334">
        <ele>324</ele>
        <time>2000-01-01T12:47:47Z</time>
      </trkpt>
      <trkpt lat="49.9437" lon="5.12303">
        <ele>325</ele>
        <time>2000-01-01T12:47:57Z</time>
      </trkpt>
      <trkpt lat="49.9436" lon="5.1228">
        <ele>328</ele>
        <time>2000-01-01T12:48:07Z</time>
      </trkpt>
      <trkpt lat="49.94358" lon="5.12225">
        <ele>332</ele>
        <time>2000-01-01T12:48:17Z</time>
      </trkpt>
      <trkpt lat="49.94353" lon="5.12163">
        <ele>332</ele>
        <time>2000-01-01T12:48:27Z</time>
      </trkpt>
      <trkpt lat="49.94341" lon="5.12109">
        <ele>333</ele>
        <time>2000-01-01T12:48:37Z</time>
      </trkpt>
      <trkpt lat="49.9433" lon="5.12074">
        <ele>333</ele>
        <time>2000-01-01T12:48:47Z</time>
      </trkpt>
      <trkpt lat="49.94317" lon="5.12026">
        <ele>334</ele>
        <time>2000-01-01T12:48:57Z</time>
      </trkpt>
      <trkpt lat="49.9431" lon="5.11973">
        <ele>340</ele>
        <time>2000-01-01T12:49:07Z</time>
      </trkpt>
      <trkpt lat="49.94311" lon="5.11928">
        <ele>340</ele>
        <time>2000-01-01T12:49:17Z</time>
      </trkpt>
      <trkpt lat="49.94284" lon="5.11926">
        <ele>341</ele>
        <time>2000-01-01T12:49:27Z</time>
      </trkpt>
      <trkpt lat="49.94263" lon="5.1194">
        <ele>340</ele>
        <time>2000-01-01T12:49:37Z</time>
      </trkpt>
      <trkpt lat="49.94239" lon="5.11956">
        <ele>340</ele>
        <time>2000-01-01T12:49:47Z</time>
      </trkpt>
      <trkpt lat="49.94208" lon="5.1198">
        <ele>337</ele>
        <time>2000-01-01T12:49:57Z</time>
      </trkpt>
      <trkpt lat="49.94176" lon="5.12005">
        <ele>337</ele>
        <time>2000-01-01T12:50:07Z</time>
      </trkpt>
      <trkpt lat="49.94145" lon="5.1203">
        <ele>338</ele>
        <time>2000-01-01T12:50:17Z</time>
      </trkpt>
      <trkpt lat="49.94114" lon="5.12055">
        <ele>343</ele>
        <time>2000-01-01T12:50:27Z</time>
      </trkpt>
      <trkpt lat="49.94077" lon="5.12085">
        <ele>348</ele>
        <time>2000-01-01T12:50:37Z</time>
      </trkpt>
      <trkpt lat="49.94055" lon="5.12095">
        <ele>348</ele>
        <time>2000-01-01T12:50:47Z</time>
      </trkpt>
      <trkpt lat="49.9404" lon="5.12094">
        <ele>352.6</ele>
        <time>2000-01-01T12:50:57Z</time>
      </trkpt>
      <trkpt lat="49.93967" lon="5.12069">
        <ele>347</ele>
        <time>2000-01-01T12:51:07Z</time>
      </trkpt>
      <trkpt lat="49.93929" lon="5.12064">
        <ele>346</ele>
        <time>2000-01-01T12:51:17Z</time>
      </trkpt>
      <trkpt lat="49.93902" lon="5.12071">
        <ele>345</ele>
        <time>2000-01-01T12:51:27Z</time>
      </trkpt>
      <trkpt lat="49.93864" lon="5.12086">
        <ele>345</ele>
        <time>2000-01-01T12:51:37Z</time>
      </trkpt>
      <trkpt lat="49.9383" lon="5.12089">
        <ele>345</ele>
        <time>2000-01-01T12:51:47Z</time>
      </trkpt>
      <trkpt lat="49.93796" lon="5.12091">
        <ele>344</ele>
        <time>2000-01-01T12:51:57Z</time>
      </trkpt>
      <trkpt lat="49.93763" lon="5.12094">
        <ele>344</ele>
        <time>2000-01-01T12:52:07Z</time>
      </trkpt>
      <trkpt lat="49.93739" lon="5.12096">
        <ele>346</ele>
        <time>2000-01-01T12:52:17Z</time>
      </trkpt>
      <trkpt lat="49.93711" lon="5.12098">
        <ele>346</ele>
        <time>2000-01-01T12:52:27Z</time>
      </trkpt>
      <trkpt lat="49.9367" lon="5.12099">
        <ele>341</ele>
        <time>2000-01-01T12:52:37Z</time>
      </trkpt>
      <trkpt lat="49.9364" lon="5.12097">
        <ele>337</ele>
        <time>2000-01-01T12:52:47Z</time>
      </trkpt>
      <trkpt lat="49.9362" lon="5.12077">
        <ele>338</ele>
        <time>2000-01-01T12:52:57Z</time>
      </trkpt>
      <trkpt lat="49.93606" lon="5.12055">
        <ele>336</ele>
        <time>2000-01-01T12:53:07Z</time>
      </trkpt>
      <trkpt lat="49.9358" lon="5.12003">
        <ele>336</ele>
        <time>2000-01-01T12:53:17Z</time>
      </trkpt>
      <trkpt lat="49.93556" lon="5.1195">
        <ele>336</ele>
        <time>2000-01-01T12:53:27Z</time>
      </trkpt>
      <trkpt lat="49.93545" lon="5.11928">
        <ele>336</ele>
        <time>2000-01-01T12:53:37Z</time>
      </trkpt>
      <trkpt lat="49.93522" lon="5.11891">
        <ele>337</ele>
        <time>2000-01-01T12:53:47Z</time>
      </trkpt>
      <trkpt lat="49.93501" lon="5.11875">
        <ele>339</ele>
        <time>2000-01-01T12:53:57Z</time>
      </trkpt>
      <trkpt lat="49.93473" lon="5.11857">
        <ele>341</ele>
        <time>2000-01-01T12:54:07Z</time>
      </trkpt>
      <trkpt lat="49.93451" lon="5.11828">
        <ele>342</ele>
        <time>2000-01-01T12:54:17Z</time>
      </trkpt>
      <trkpt lat="49.93436" lon="5.11814">
        <ele>346</ele>
        <time>2000-01-01T12:54:27Z</time>
      </trkpt>
      <trkpt lat="49.9343" lon="5.11795">
        <ele>349.9</ele>
        <time>2000-01-01T12:54:37Z</time>
      </trkpt>
      <trkpt lat="49.93419" lon="5.11785">
        <ele>349</ele>
        <time>2000-01-01T12:54:47Z</time>
      </trkpt>
      <trkpt lat="49.93402" lon="5.11779">
        <ele>351.5</ele>
        <time>2000-01-01T12:54:57Z</time>
      </trkpt>
      <trkpt lat="49.93362" lon="5.11793">
        <ele>352</ele>
        <time>2000-01-01T12:55:07Z</time>
      </trkpt>
      <trkpt lat="49.93345" lon="5.11806">
        <ele>352</ele>
        <time>2000-01-01T12:55:17Z</time>
      </trkpt>
      <trkpt lat="49.93323" lon="5.11835">
        <ele>351</ele>
        <time>2000-01-01T12:55:27Z</time>
      </trkpt>
      <trkpt lat="49.93296" lon="5.11884">
        <ele>350</ele>
        <time>2000-01-01T12:55:37Z</time>
      </trkpt>
      <trkpt lat="49.93283" lon="5.11913">
        <ele>350</ele>
        <time>2000-01-01T12:55:47Z</time>
      </trkpt>
      <trkpt lat="49.93269" lon="5.11945">
        <ele>350</ele>
        <time>2000-01-01T12:55:57Z</time>
      </trkpt>
      <trkpt lat="49.93245" lon="5.11983">
        <ele>350</ele>
        <time>2000-01-01T12:56:07Z</time>
      </trkpt>
      <trkpt lat="49.93219" lon="5.12002">
        <ele>353</ele>
        <time>2000-01-01T12:56:17Z</time>
      </trkpt>
      <trkpt lat="49.93198" lon="5.12006">
        <ele>353</ele>
        <time>2000-01-01T12:56:27Z</time>
      </trkpt>
      <trkpt lat="49.93178" lon="5.12002">
        <ele>354</ele>
        <time>2000-01-01T12:56:37Z</time>
      </trkpt>
      <trkpt lat="49.93157" lon="5.1199">
        <ele>356</ele>
        <time>2000-01-01T12:56:47Z</time>
      </trkpt>
      <trkpt lat="49.93137" lon="5.11979">
        <ele>355</ele>
        <time>2000-01-01T12:56:57Z</time>
      </trkpt>
      <trkpt lat="49.93103" lon="5.11963">
        <ele>355</ele>
        <time>2000-01-01T12:57:07Z</time>
      </trkpt>
      <trkpt lat="49.93083" lon="5.1196">
        <ele>354</ele>
        <time>2000-01-01T12:57:17Z</time>
      </trkpt>
      <trkpt lat="49.93062" lon="5.11968">
        <ele>353</ele>
        <time>2000-01-01T12:57:27Z</time>
      </trkpt>
      <trkpt lat="49.93041" lon="5.11991">
        <ele>353</ele>
        <time>2000-01-01T12:57:37Z</time>
      </trkpt>
      <trkpt lat="49.93019" lon="5.12023">
        <ele>353</ele>
        <time>2000-01-01T12:57:47Z</time>
      </trkpt>
      <trkpt lat="49.93005" lon="5.12059">
        <ele>354</ele>
        <time>2000-01-01T12:57:57Z</time>
      </trkpt>
      <trkpt lat="49.92993" lon="5.12088">
        <ele>355</ele>
        <time>2000-01-01T12:58:07Z</time>
      </trkpt>
      <trkpt lat="49.92981" lon="5.12118">
        <ele>355</ele>
        <time>2000-01-01T12:58:17Z</time>
      </trkpt>
      <trkpt lat="49.92965" lon="5.12166">
        <ele>355</ele>
        <time>2000-01-01T12:58:27Z</time>
      </trkpt>
      <trkpt lat="49.92961" lon="5.12202">
        <ele>354</ele>
        <time>2000-01-01T12:58:37Z</time>
      </trkpt>
      <trkpt lat="49.92973" lon="5.12258">
        <ele>350</ele>
        <time>2000-01-01T12:58:47Z</time>
      </trkpt>
      <trkpt lat="49.92982" lon="5.12311">
        <ele>349</ele>
        <time>2000-01-01T12:58:57Z</time>
      </trkpt>
      <trkpt lat="49.92984" lon="5.12338">
        <ele>358.6</ele>
        <time>2000-01-01T12:59:07Z</time>
      </trkpt>
      <trkpt lat="49.92989" lon="5.12422">
        <ele>346</ele>
        <time>2000-01-01T12:59:17Z</time>
      </trkpt>
      <trkpt lat="49.92987" lon="5.12466">
        <ele>343</ele>
        <time>2000-01-01T12:59:27Z</time>
      </trkpt>
      <trkpt lat="49.92984" lon="5.12479">
        <ele>350.4</ele>
        <time>2000-01-01T12:59:37Z</time>
      </trkpt>
      <trkpt lat="49.92971" lon="5.12512">
        <ele>342</ele>
        <time>2000-01-01T12:59:47Z</time>
      </trkpt>
      <trkpt lat="49.9295" lon="5.12537">
        <ele>336</ele>
        <time>2000-01-01T12:59:57Z</time>
      </trkpt>
      <trkpt lat="49.92922" lon="5.12557">
        <ele>336</ele>
        <time>2000-01-01T13:00:07Z</time>
      </trkpt>
      <trkpt lat="49.92895" lon="5.12577">
        <ele>335</ele>
        <time>2000-01-01T13:00:17Z</time>
      </trkpt>
      <trkpt lat="49.92857" lon="5.12604">
        <ele>335</ele>
        <time>2000-01-01T13:00:27Z</time>
      </trkpt>
      <trkpt lat="49.92835" lon="5.12612">
        <ele>333</ele>
        <time>2000-01-01T13:00:37Z</time>
      </trkpt>
      <trkpt lat="49.9281" lon="5.12621">
        <ele>334</ele>
        <time>2000-01-01T13:00:47Z</time>
      </trkpt>
      <trkpt lat="49.92791" lon="5.12635">
        <ele>335</ele>
        <time>2000-01-01T13:00:57Z</time>
      </trkpt>
      <trkpt lat="49.92777" lon="5.12654">
        <ele>335</ele>
        <time>2000-01-01T13:01:07Z</time>
      </trkpt>
      <trkpt lat="49.92768" lon="5.12673">
        <ele>349.8</ele>
        <time>2000-01-01T13:01:17Z</time>
      </trkpt>
      <trkpt lat="49.92762" lon="5.12697">
        <ele>338</ele>
        <time>2000-01-01T13:01:27Z</time>
      </trkpt>
      <trkpt lat="49.92739" lon="5.12753">
        <ele>340</ele>
        <time>2000-01-01T13:01:37Z</time>
      </trkpt>
      <trkpt lat="49.92714" lon="5.12801">
        <ele>340</ele>
        <time>2000-01-01T13:01:47Z</time>
      </trkpt>
      <trkpt lat="49.92693" lon="5.12838">
        <ele>340</ele>
        <time>2000-01-01T13:01:57Z</time>
      </trkpt>
      <trkpt lat="49.92664" lon="5.12883">
        <ele>340</ele>
        <time>2000-01-01T13:02:07Z</time>
      </trkpt>
      <trkpt lat="49.92643" lon="5.12912">
        <ele>340</ele>
        <time>2000-01-01T13:02:17Z</time>
      </trkpt>
      <trkpt lat="49.92626" lon="5.12937">
        <ele>341</ele>
        <time>2000-01-01T13:02:27Z</time>
      </trkpt>
      <trkpt lat="49.92606" lon="5.12965">
        <ele>338</ele>
        <time>2000-01-01T13:02:37Z</time>
      </trkpt>
      <trkpt lat="49.9259" lon="5.1298">
        <ele>336</ele>
        <time>2000-01-01T13:02:47Z</time>
      </trkpt>
      <trkpt lat="49.92572" lon="5.12991">
        <ele>336</ele>
        <time>2000-01-01T13:02:57Z</time>
      </trkpt>
      <trkpt lat="49.92544" lon="5.13002">
        <ele>336</ele>
        <time>2000-01-01T13:03:07Z</time>
      </trkpt>
      <trkpt lat="49.92522" lon="5.1301">
        <ele>336</ele>
        <time>2000-01-01T13:03:17Z</time>
      </trkpt>
      <trkpt lat="49.92495" lon="5.1302">
        <ele>341</ele>
        <time>2000-01-01T13:03:27Z</time>
      </trkpt>
      <trkpt lat="49.92477" lon="5.13031">
        <ele>343</ele>
        <time>2000-01-01T13:03:37Z</time>
      </trkpt>
      <trkpt lat="49.92464" lon="5.13045">
        <ele>355.7</ele>
        <time>2000-01-01T13:03:47Z</time>
      </trkpt>
      <trkpt lat="49.92369" lon="5.13207">
        <ele>343</ele>
        <time>2000-01-01T13:03:57Z</time>
      </trkpt>
      <trkpt lat="49.92348" lon="5.13237">
        <ele>343</ele>
        <time>2000-01-01T13:04:07Z</time>
      </trkpt>
      <trkpt lat="49.9234" lon="5.13246">
        <ele>355.8</ele>
        <time>2000-01-01T13:04:17Z</time>
      </trkpt>
      <trkpt lat="49.92325" lon="5.13259">
        <ele>341</ele>
        <time>2000-01-01T13:04:27Z</time>
      </trkpt>
      <trkpt lat="49.92307" lon="5.13269">
        <ele>341</ele>
        <time>2000-01-01T13:04:37Z</time>
      </trkpt>
      <trkpt lat="49.92288" lon="5.13274">
        <ele>342</ele>
        <time>2000-01-01T13:04:47Z</time>
      </trkpt>
      <trkpt lat="49.9226" lon="5.13278">
        <ele>346</ele>
        <time>2000-01-01T13:04:57Z</time>
      </trkpt>
      <trkpt lat="49.92229" lon="5.1328">
        <ele>347</ele>
        <time>2000-01-01T13:05:07Z</time>
      </trkpt>
      <trkpt lat="49.92198" lon="5.13283">
        <ele>353</ele>
        <time>2000-01-01T13:05:17Z</time>
      </trkpt>
      <trkpt lat="49.92174" lon="5.13284">
        <ele>353</ele>
        <time>2000-01-01T13:05:27Z</time>
      </trkpt>
      <trkpt lat="49.92148" lon="5.13286">
        <ele>352</ele>
        <time>2000-01-01T13:05:37Z</time>
      </trkpt>
      <trkpt lat="49.92117" lon="5.13291">
        <ele>351</ele>
        <time>2000-01-01T13:05:47Z</time>
      </trkpt>
      <trkpt lat="49.92091" lon="5.13298">
        <ele>351</ele>
        <time>2000-01-01T13:05:57Z</time>
      </trkpt>
      <trkpt lat="49.92051" lon="5.1331">
        <ele>351</ele>
        <time>2000-01-01T13:06:07Z</time>
      </trkpt>
      <trkpt lat="49.9203" lon="5.13314">
        <ele>351</ele>
        <time>2000-01-01T13:06:17Z</time>
      </trkpt>
      <trkpt lat="49.92015" lon="5.13315">
        <ele>358</ele>
        <time>2000-01-01T13:06:27Z</time>
      </trkpt>
      <trkpt lat="49.92001" lon="5.13311">
        <ele>351</ele>
        <time>2000-01-01T13:06:37Z</time>
      </trkpt>
      <trkpt lat="49.91986" lon="5.13301">
        <ele>358.7</ele>
        <time>2000-01-01T13:06:47Z</time>
      </trkpt>
      <trkpt lat="49.91968" lon="5.13285">
        <ele>352</ele>
        <time>2000-01-01T13:06:57Z</time>
      </trkpt>
      <trkpt lat="49.91951" lon="5.13264">
        <ele>356</ele>
        <time>2000-01-01T13:07:07Z</time>
      </trkpt>
      <trkpt lat="49.91932" lon="5.13241">
        <ele>356</ele>
        <time>2000-01-01T13:07:17Z</time>
      </trkpt>
      <trkpt lat="49.91916" lon="5.13217">
        <ele>355</ele>
        <time>2000-01-01T13:07:27Z</time>
      </trkpt>
      <trkpt lat="49.91903" lon="5.13192">
        <ele>354</ele>
        <time>2000-01-01T13:07:37Z</time>
      </trkpt>
      <trkpt lat="49.91909" lon="5.1314">
        <ele>354</ele>
        <time>2000-01-01T13:07:47Z</time>
      </trkpt>
      <trkpt lat="49.91914" lon="5.13127">
        <ele>357.2</ele>
        <time>2000-01-01T13:07:57Z</time>
      </trkpt>
      <trkpt lat="49.91922" lon="5.13118">
        <ele>354</ele>
        <time>2000-01-01T13:08:07Z</time>
      </trkpt>
      <trkpt lat="49.91938" lon="5.13112">
        <ele>357</ele>
        <time>2000-01-01T13:08:17Z</time>
      </trkpt>
      <trkpt lat="49.91972" lon="5.13106">
        <ele>360</ele>
        <time>2000-01-01T13:08:27Z</time>
      </trkpt>
      <trkpt lat="49.91994" lon="5.13092">
        <ele>361</ele>
        <time>2000-01-01T13:08:37Z</time>
      </trkpt>
      <trkpt lat="49.92024" lon="5.13068">
        <ele>361</ele>
        <time>2000-01-01T13:08:47Z</time>
      </trkpt>
      <trkpt lat="49.92036" lon="5.1302">
        <ele>367</ele>
        <time>2000-01-01T13:08:57Z</time>
      </trkpt>
      <trkpt lat="49.92033" lon="5.12954">
        <ele>370</ele>
        <time>2000-01-01T13:09:07Z</time>
      </trkpt>
      <trkpt lat="49.92024" lon="5.12901">
        <ele>375</ele>
        <time>2000-01-01T13:09:17Z</time>
      </trkpt>
      <trkpt lat="49.92022" lon="5.12866">
        <ele>380</ele>
        <time>2000-01-01T13:09:27Z</time>
      </trkpt>
      <trkpt lat="49.92021" lon="5.1283">
        <ele>381</ele>
        <time>2000-01-01T13:09:37Z</time>
      </trkpt>
      <trkpt lat="49.92011" lon="5.12786">
        <ele>381</ele>
        <time>2000-01-01T13:09:47Z</time>
      </trkpt>
      <trkpt lat="49.92002" lon="5.12741">
        <ele>381</ele>
        <time>2000-01-01T13:09:57Z</time>
      </trkpt>
      <trkpt lat="49.9199" lon="5.12684">
        <ele>378</ele>
        <time>2000-01-01T13:10:07Z</time>
      </trkpt>
      <trkpt lat="49.9198" lon="5.12648">
        <ele>378</ele>
        <time>2000-01-01T13:10:17Z</time>
      </trkpt>
      <trkpt lat="49.91965" lon="5.12596">
        <ele>378</ele>
        <time>2000-01-01T13:10:27Z</time>
      </trkpt>
      <trkpt lat="49.91955" lon="5.12555">
        <ele>375</ele>
        <time>2000-01-01T13:10:37Z</time>
      </trkpt>
      <trkpt lat="49.91946" lon="5.1252">
        <ele>374</ele>
        <time>2000-01-01T13:10:47Z</time>
      </trkpt>
      <trkpt lat="49.91936" lon="5.12478">
        <ele>373</ele>
        <time>2000-01-01T13:10:57Z</time>
      </trkpt>
      <trkpt lat="49.91922" lon="5.12438">
        <ele>373</ele>
        <time>2000-01-01T13:11:07Z</time>
      </trkpt>
      <trkpt lat="49.91908" lon="5.12398">
        <ele>374</ele>
        <time>2000-01-01T13:11:17Z</time>
      </trkpt>
      <trkpt lat="49.91892" lon="5.12354">
        <ele>375</ele>
        <time>2000-01-01T13:11:27Z</time>
      </trkpt>
      <trkpt lat="49.9188" lon="5.12312">
        <ele>377</ele>
        <time>2000-01-01T13:11:37Z</time>
      </trkpt>
      <trkpt lat="49.91868" lon="5.1227">
        <ele>378</ele>
        <time>2000-01-01T13:11:47Z</time>
      </trkpt>
      <trkpt lat="49.91854" lon="5.12222">
        <ele>383</ele>
        <time>2000-01-01T13:11:57Z</time>
      </trkpt>
      <trkpt lat="49.91839" lon="5.12179">
        <ele>383</ele>
        <time>2000-01-01T13:12:07Z</time>
      </trkpt>
      <trkpt lat="49.91823" lon="5.12137">
        <ele>382</ele>
        <time>2000-01-01T13:12:17Z</time>
      </trkpt>
      <trkpt lat="49.91812" lon="5.12106">
        <ele>383</ele>
        <time>2000-01-01T13:12:27Z</time>
      </trkpt>
      <trkpt lat="49.91798" lon="5.1207">
        <ele>384</ele>
        <time>2000-01-01T13:12:37Z</time>
      </trkpt>
      <trkpt lat="49.91773" lon="5.12083">
        <ele>384</ele>
        <time>2000-01-01T13:12:47Z</time>
      </trkpt>
      <trkpt lat="49.91733" lon="5.12103">
        <ele>375</ele>
        <time>2000-01-01T13:12:57Z</time>
      </trkpt>
      <trkpt lat="49.91693" lon="5.12117">
        <ele>364</ele>
        <time>2000-01-01T13:13:07Z</time>
      </trkpt>
      <trkpt lat="49.91668" lon="5.1213">
        <ele>362</ele>
        <time>2000-01-01T13:13:17Z</time>
      </trkpt>
      <trkpt lat="49.91629" lon="5.12148">
        <ele>361</ele>
        <time>2000-01-01T13:13:27Z</time>
      </trkpt>
      <trkpt lat="49.91602" lon="5.12192">
        <ele>357</ele>
        <time>2000-01-01T13:13:37Z</time>
      </trkpt>
      <trkpt lat="49.9159" lon="5.12229">
        <ele>354</ele>
        <time>2000-01-01T13:13:47Z</time>
      </trkpt>
      <trkpt lat="49.91588" lon="5.12263">
        <ele>350</ele>
        <time>2000-01-01T13:13:57Z</time>
      </trkpt>
      <trkpt lat="49.91585" lon="5.12298">
        <ele>350</ele>
        <time>2000-01-01T13:14:07Z</time>
      </trkpt>
      <trkpt lat="49.91581" lon="5.12338">
        <ele>350</ele>
        <time>2000-01-01T13:14:17Z</time>
      </trkpt>
      <trkpt lat="49.91575" lon="5.12404">
        <ele>351</ele>
        <time>2000-01-01T13:14:27Z</time>
      </trkpt>
      <trkpt lat="49.9156" lon="5.12443">
        <ele>359</ele>
        <time>2000-01-01T13:14:37Z</time>
      </trkpt>
      <trkpt lat="49.91546" lon="5.12483">
        <ele>368</ele>
        <time>2000-01-01T13:14:47Z</time>
      </trkpt>
      <trkpt lat="49.91531" lon="5.12526">
        <ele>372</ele>
        <time>2000-01-01T13:14:57Z</time>
      </trkpt>
      <trkpt lat="49.91518" lon="5.12557">
        <ele>373</ele>
        <time>2000-01-01T13:15:07Z</time>
      </trkpt>
      <trkpt lat="49.91501" lon="5.12596">
        <ele>374</ele>
        <time>2000-01-01T13:15:17Z</time>
      </trkpt>
      <trkpt lat="49.91481" lon="5.12625">
        <ele>375</ele>
        <time>2000-01-01T13:15:27Z</time>
      </trkpt>
      <trkpt lat="49.91465" lon="5.12648">
        <ele>376</ele>
        <time>2000-01-01T13:15:37Z</time>
      </trkpt>
      <trkpt lat="49.91449" lon="5.12672">
        <ele>382</ele>
        <time>2000-01-01T13:15:47Z</time>
      </trkpt>
      <trkpt lat="49.91429" lon="5.12692">
        <ele>379</ele>
        <time>2000-01-01T13:15:57Z</time>
      </trkpt>
      <trkpt lat="49.91403" lon="5.12717">
        <ele>376</ele>
        <time>2000-01-01T13:16:07Z</time>
      </trkpt>
      <trkpt lat="49.91379" lon="5.12729">
        <ele>377</ele>
        <time>2000-01-01T13:16:17Z</time>
      </trkpt>
      <trkpt lat="49.91347" lon="5.12745">
        <ele>378</ele>
        <time>2000-01-01T13:16:27Z</time>
      </trkpt>
      <trkpt lat="49.91316" lon="5.12765">
        <ele>377</ele>
        <time>2000-01-01T13:16:37Z</time>
      </trkpt>
      <trkpt lat="49.91285" lon="5.12786">
        <ele>376</ele>
        <time>2000-01-01T13:16:47Z</time>
      </trkpt>
      <trkpt lat="49.91254" lon="5.12806">
        <ele>372</ele>
        <time>2000-01-01T13:16:57Z</time>
      </trkpt>
      <trkpt lat="49.91232" lon="5.12821">
        <ele>368</ele>
        <time>2000-01-01T13:17:07Z</time>
      </trkpt>
      <trkpt lat="49.91207" lon="5.12837">
        <ele>371</ele>
        <time>2000-01-01T13:17:17Z</time>
      </trkpt>
      <trkpt lat="49.9117" lon="5.12842">
        <ele>374</ele>
        <time>2000-01-01T13:17:27Z</time>
      </trkpt>
      <trkpt lat="49.91146" lon="5.12836">
        <ele>375</ele>
        <time>2000-01-01T13:17:37Z</time>
      </trkpt>
      <trkpt lat="49.91118" lon="5.1283">
        <ele>375</ele>
        <time>2000-01-01T13:17:47Z</time>
      </trkpt>
      <trkpt lat="49.91092" lon="5.12829">
        <ele>372</ele>
        <time>2000-01-01T13:17:57Z</time>
      </trkpt>
      <trkpt lat="49.91057" lon="5.12829">
        <ele>376</ele>
        <time>2000-01-01T13:18:07Z</time>
      </trkpt>
      <trkpt lat="49.91059" lon="5.12804">
        <ele>379.2</ele>
        <time>2000-01-01T13:18:17Z</time>
      </trkpt>
      <trkpt lat="49.91085" lon="5.12668">
        <ele>381</ele>
        <time>2000-01-01T13:18:27Z</time>
      </trkpt>
      <trkpt lat="49.91095" lon="5.12625">
        <ele>382</ele>
        <time>2000-01-01T13:18:37Z</time>
      </trkpt>
      <trkpt lat="49.91104" lon="5.12583">
        <ele>384</ele>
        <time>2000-01-01T13:18:47Z</time>
      </trkpt>
      <trkpt lat="49.91114" lon="5.1254">
        <ele>386</ele>
        <time>2000-01-01T13:18:57Z</time>
      </trkpt>
      <trkpt lat="49.91128" lon="5.12492">
        <ele>387</ele>
        <time>2000-01-01T13:19:07Z</time>
      </trkpt>
      <trkpt lat="49.91143" lon="5.12444">
        <ele>394</ele>
        <time>2000-01-01T13:19:17Z</time>
      </trkpt>
      <trkpt lat="49.91158" lon="5.12396">
        <ele>394</ele>
        <time>2000-01-01T13:19:27Z</time>
      </trkpt>
      <trkpt lat="49.91168" lon="5.12361">
        <ele>397</ele>
        <time>2000-01-01T13:19:37Z</time>
      </trkpt>
      <trkpt lat="49.91183" lon="5.12313">
        <ele>395</ele>
        <time>2000-01-01T13:19:47Z</time>
      </trkpt>
      <trkpt lat="49.91193" lon="5.12255">
        <ele>394</ele>
        <time>2000-01-01T13:19:57Z</time>
      </trkpt>
      <trkpt lat="49.91204" lon="5.12197">
        <ele>394</ele>
        <time>2000-01-01T13:20:07Z</time>
      </trkpt>
      <trkpt lat="49.91214" lon="5.12138">
        <ele>392</ele>
        <time>2000-01-01T13:20:17Z</time>
      </trkpt>
      <trkpt lat="49.91224" lon="5.1208">
        <ele>392</ele>
        <time>2000-01-01T13:20:27Z</time>
      </trkpt>
      <trkpt lat="49.91235" lon="5.12022">
        <ele>390</ele>
        <time>2000-01-01T13:20:37Z</time>
      </trkpt>
      <trkpt lat="49.91245" lon="5.11963">
        <ele>389</ele>
        <time>2000-01-01T13:20:47Z</time>
      </trkpt>
      <trkpt lat="49.91255" lon="5.11905">
        <ele>389</ele>
        <time>2000-01-01T13:20:57Z</time>
      </trkpt>
      <trkpt lat="49.91266" lon="5.11846">
        <ele>389</ele>
        <time>2000-01-01T13:21:07Z</time>
      </trkpt>
      <trkpt lat="49.91273" lon="5.11806">
        <ele>387</ele>
        <time>2000-01-01T13:21:17Z</time>
      </trkpt>
      <trkpt lat="49.91279" lon="5.11773">
        <ele>388</ele>
        <time>2000-01-01T13:21:27Z</time>
      </trkpt>
      <trkpt lat="49.91285" lon="5.11738">
        <ele>389</ele>
        <time>2000-01-01T13:21:37Z</time>
      </trkpt>
      <trkpt lat="49.9129" lon="5.11699">
        <ele>389</ele>
        <time>2000-01-01T13:21:47Z</time>
      </trkpt>
      <trkpt lat="49.91296" lon="5.11645">
        <ele>381</ele>
        <time>2000-01-01T13:21:57Z</time>
      </trkpt>
      <trkpt lat="49.91299" lon="5.11595">
        <ele>376</ele>
        <time>2000-01-01T13:22:07Z</time>
      </trkpt>
      <trkpt lat="49.91302" lon="5.11544">
        <ele>370</ele>
        <time>2000-01-01T13:22:17Z</time>
      </trkpt>
      <trkpt lat="49.91304" lon="5.11494">
        <ele>369</ele>
        <time>2000-01-01T13:22:27Z</time>
      </trkpt>
      <trkpt lat="49.91307" lon="5.11443">
        <ele>369</ele>
        <time>2000-01-01T13:22:37Z</time>
      </trkpt>
      <trkpt lat="49.91318" lon="5.11394">
        <ele>369</ele>
        <time>2000-01-01T13:22:47Z</time>
      </trkpt>
      <trkpt lat="49.91329" lon="5.11345">
        <ele>370</ele>
        <time>2000-01-01T13:22:57Z</time>
      </trkpt>
      <trkpt lat="49.91339" lon="5.11296">
        <ele>374</ele>
        <time>2000-01-01T13:23:07Z</time>
      </trkpt>
      <trkpt lat="49.91347" lon="5.11262">
        <ele>373</ele>
        <time>2000-01-01T13:23:17Z</time>
      </trkpt>
      <trkpt lat="49.91354" lon="5.11227">
        <ele>374</ele>
        <time>2000-01-01T13:23:27Z</time>
      </trkpt>
      <trkpt lat="49.91363" lon="5.11162">
        <ele>376</ele>
        <time>2000-01-01T13:23:37Z</time>
      </trkpt>
      <trkpt lat="49.91373" lon="5.11119">
        <ele>375</ele>
        <time>2000-01-01T13:23:47Z</time>
      </trkpt>
      <trkpt lat="49.91383" lon="5.11076">
        <ele>375</ele>
        <time>2000-01-01T13:23:57Z</time>
      </trkpt>
      <trkpt lat="49.91394" lon="5.11027">
        <ele>367</ele>
        <time>2000-01-01T13:24:07Z</time>
      </trkpt>
      <trkpt lat="49.91413" lon="5.11003">
        <ele>365</ele>
        <time>2000-01-01T13:24:17Z</time>
      </trkpt>
      <trkpt lat="49.91437" lon="5.10972">
        <ele>365</ele>
        <time>2000-01-01T13:24:27Z</time>
      </trkpt>
      <trkpt lat="49.91451" lon="5.10927">
        <ele>369</ele>
        <time>2000-01-01T13:24:37Z</time>
      </trkpt>
      <trkpt lat="49.91469" lon="5.10881">
        <ele>372</ele>
        <time>2000-01-01T13:24:47Z</time>
      </trkpt>
      <trkpt lat="49.91488" lon="5.10836">
        <ele>372</ele>
        <time>2000-01-01T13:24:57Z</time>
      </trkpt>
      <trkpt lat="49.91506" lon="5.10791">
        <ele>372</ele>
        <time>2000-01-01T13:25:07Z</time>
      </trkpt>
      <trkpt lat="49.91519" lon="5.10757">
        <ele>372</ele>
        <time>2000-01-01T13:25:17Z</time>
      </trkpt>
      <trkpt lat="49.91539" lon="5.10708">
        <ele>373</ele>
        <time>2000-01-01T13:25:27Z</time>
      </trkpt>
      <trkpt lat="49.91546" lon="5.10694">
        <ele>384.7</ele>
        <time>2000-01-01T13:25:37Z</time>
      </trkpt>
      <trkpt lat="49.91537" lon="5.1068">
        <ele>373</ele>
        <time>2000-01-01T13:25:47Z</time>
      </trkpt>
      <trkpt lat="49.91516" lon="5.10641">
        <ele>373</ele>
        <time>2000-01-01T13:25:57Z</time>
      </trkpt>
      <trkpt lat="49.91495" lon="5.10601">
        <ele>374</ele>
        <time>2000-01-01T13:26:07Z</time>
      </trkpt>
      <trkpt lat="49.91474" lon="5.10562">
        <ele>375</ele>
        <time>2000-01-01T13:26:17Z</time>
      </trkpt>
      <trkpt lat="49.91449" lon="5.10516">
        <ele>377</ele>
        <time>2000-01-01T13:26:27Z</time>
      </trkpt>
      <trkpt lat="49.91437" lon="5.10483">
        <ele>379</ele>
        <time>2000-01-01T13:26:37Z</time>
      </trkpt>
      <trkpt lat="49.91421" lon="5.10442">
        <ele>380</ele>
        <time>2000-01-01T13:26:47Z</time>
      </trkpt>
      <trkpt lat="49.91405" lon="5.10412">
        <ele>382</ele>
        <time>2000-01-01T13:26:57Z</time>
      </trkpt>
      <trkpt lat="49.91383" lon="5.10371">
        <ele>386</ele>
        <time>2000-01-01T13:27:07Z</time>
      </trkpt>
      <trkpt lat="49.91359" lon="5.10332">
        <ele>386</ele>
        <time>2000-01-01T13:27:17Z</time>
      </trkpt>
      <trkpt lat="49.91336" lon="5.10293">
        <ele>384</ele>
        <time>2000-01-01T13:27:27Z</time>
      </trkpt>
      <trkpt lat="49.91312" lon="5.10254">
        <ele>383</ele>
        <time>2000-01-01T13:27:37Z</time>
      </trkpt>
      <trkpt lat="49.91294" lon="5.10225">
        <ele>385</ele>
        <time>2000-01-01T13:27:47Z</time>
      </trkpt>
      <trkpt lat="49.91268" lon="5.10182">
        <ele>388</ele>
        <time>2000-01-01T13:27:57Z</time>
      </trkpt>
      <trkpt lat="49.91254" lon="5.10143">
        <ele>393</ele>
        <time>2000-01-01T13:28:07Z</time>
      </trkpt>
      <trkpt lat="49.91241" lon="5.1011">
        <ele>398</ele>
        <time>2000-01-01T13:28:17Z</time>
      </trkpt>
      <trkpt lat="49.91225" lon="5.10067">
        <ele>400</ele>
        <time>2000-01-01T13:28:27Z</time>
      </trkpt>
      <trkpt lat="49.91207" lon="5.10048">
        <ele>400</ele>
        <time>2000-01-01T13:28:37Z</time>
      </trkpt>
      <trkpt lat="49.91189" lon="5.10028">
        <ele>400</ele>
        <time>2000-01-01T13:28:47Z</time>
      </trkpt>
      <trkpt lat="49.9115" lon="5.10001">
        <ele>400</ele>
        <time>2000-01-01T13:28:57Z</time>
      </trkpt>
      <trkpt lat="49.91125" lon="5.09983">
        <ele>403</ele>
        <time>2000-01-01T13:29:07Z</time>
      </trkpt>
      <trkpt lat="49.91105" lon="5.09968">
        <ele>403</ele>
        <time>2000-01-01T13:29:17Z</time>
      </trkpt>
      <trkpt lat="49.91084" lon="5.09952">
        <ele>404</ele>
        <time>2000-01-01T13:29:27Z</time>
      </trkpt>
      <trkpt lat="49.91066" lon="5.09923">
        <ele>403</ele>
        <time>2000-01-01T13:29:37Z</time>
      </trkpt>
      <trkpt lat="49.91036" lon="5.09878">
        <ele>404</ele>
        <time>2000-01-01T13:29:47Z</time>
      </trkpt>
      <trkpt lat="49.91064" lon="5.09853">
        <ele>406</ele>
        <time>2000-01-01T13:29:57Z</time>
      </trkpt>
      <trkpt lat="49.91092" lon="5.09827">
        <ele>408</ele>
        <time>2000-01-01T13:30:07Z</time>
      </trkpt>
      <trkpt lat="49.91113" lon="5.09807">
        <ele>408</ele>
        <time>2000-01-01T13:30:17Z</time>
      </trkpt>
      <trkpt lat="49.91143" lon="5.09779">
        <ele>409</ele>
        <time>2000-01-01T13:30:27Z</time>
      </trkpt>
      <trkpt lat="49.91121" lon="5.09747">
        <ele>416</ele>
        <time>2000-01-01T13:30:37Z</time>
      </trkpt>
      <trkpt lat="49.911" lon="5.09715">
        <ele>417</ele>
        <time>2000-01-01T13:30:47Z</time>
      </trkpt>
      <trkpt lat="49.91074" lon="5.09677">
        <ele>418</ele>
        <time>2000-01-01T13:30:57Z</time>
      </trkpt>
      <trkpt lat="49.91053" lon="5.09647">
        <ele>419</ele>
        <time>2000-01-01T13:31:07Z</time>
      </trkpt>
      <trkpt lat="49.91035" lon="5.09623">
        <ele>419</ele>
        <time>2000-01-01T13:31:17Z</time>
      </trkpt>
      <trkpt lat="49.91013" lon="5.09592">
        <ele>419</ele>
        <time>2000-01-01T13:31:27Z</time>
      </trkpt>
      <trkpt lat="49.90987" lon="5.09557">
        <ele>419</ele>
        <time>2000-01-01T13:31:37Z</time>
      </trkpt>
      <trkpt lat="49.90962" lon="5.09522">
        <ele>418</ele>
        <time>2000-01-01T13:31:47Z</time>
      </trkpt>
      <trkpt lat="49.90936" lon="5.09488">
        <ele>417</ele>
        <time>2000-01-01T13:31:57Z</time>
      </trkpt>
      <trkpt lat="49.90917" lon="5.09462">
        <ele>417</ele>
        <time>2000-01-01T13:32:07Z</time>
      </trkpt>
      <trkpt lat="49.90893" lon="5.09429">
        <ele>408</ele>
        <time>2000-01-01T13:32:17Z</time>
      </trkpt>
      <trkpt lat="49.90879" lon="5.0939">
        <ele>403</ele>
        <time>2000-01-01T13:32:27Z</time>
      </trkpt>
      <trkpt lat="49.90884" lon="5.09365">
        <ele>403</ele>
        <time>2000-01-01T13:32:37Z</time>
      </trkpt>
      <trkpt lat="49.9088" lon="5.09341">
        <ele>406.2</ele>
        <time>2000-01-01T13:32:47Z</time>
      </trkpt>
      <trkpt lat="49.90699" lon="5.09224">
        <ele>386</ele>
        <time>2000-01-01T13:32:57Z</time>
      </trkpt>
      <trkpt lat="49.90669" lon="5.09208">
        <ele>384</ele>
        <time>2000-01-01T13:33:07Z</time>
      </trkpt>
      <trkpt lat="49.90639" lon="5.09193">
        <ele>385</ele>
        <time>2000-01-01T13:33:17Z</time>
      </trkpt>
      <trkpt lat="49.90618" lon="5.09181">
        <ele>384</ele>
        <time>2000-01-01T13:33:27Z</time>
      </trkpt>
      <trkpt lat="49.90593" lon="5.09168">
        <ele>384</ele>
        <time>2000-01-01T13:33:37Z</time>
      </trkpt>
      <trkpt lat="49.90609" lon="5.09124">
        <ele>383</ele>
        <time>2000-01-01T13:33:47Z</time>
      </trkpt>
      <trkpt lat="49.90626" lon="5.09079">
        <ele>381</ele>
        <time>2000-01-01T13:33:57Z</time>
      </trkpt>
      <trkpt lat="49.90643" lon="5.09035">
        <ele>381</ele>
        <time>2000-01-01T13:34:07Z</time>
      </trkpt>
      <trkpt lat="49.90662" lon="5.08982">
        <ele>381</ele>
        <time>2000-01-01T13:34:17Z</time>
      </trkpt>
      <trkpt lat="49.90677" lon="5.0894">
        <ele>383</ele>
        <time>2000-01-01T13:34:27Z</time>
      </trkpt>
      <trkpt lat="49.90692" lon="5.08898">
        <ele>382</ele>
        <time>2000-01-01T13:34:37Z</time>
      </trkpt>
      <trkpt lat="49.90703" lon="5.08867">
        <ele>382</ele>
        <time>2000-01-01T13:34:47Z</time>
      </trkpt>
      <trkpt lat="49.90714" lon="5.08833">
        <ele>382</ele>
        <time>2000-01-01T13:34:57Z</time>
      </trkpt>
      <trkpt lat="49.90732" lon="5.08793">
        <ele>382</ele>
        <time>2000-01-01T13:35:07Z</time>
      </trkpt>
      <trkpt lat="49.90749" lon="5.08752">
        <ele>381</ele>
        <time>2000-01-01T13:35:17Z</time>
      </trkpt>
      <trkpt lat="49.90761" lon="5.08721">
        <ele>381</ele>
        <time>2000-01-01T13:35:27Z</time>
      </trkpt>
      <trkpt lat="49.90776" lon="5.08686">
        <ele>381</ele>
        <time>2000-01-01T13:35:37Z</time>
      </trkpt>
      <trkpt lat="49.90751" lon="5.08669">
        <ele>380</ele>
        <time>2000-01-01T13:35:47Z</time>
      </trkpt>
      <trkpt lat="49.9073" lon="5.08654">
        <ele>378</ele>
        <time>2000-01-01T13:35:57Z</time>
      </trkpt>
      <trkpt lat="49.90708" lon="5.08639">
        <ele>378</ele>
        <time>2000-01-01T13:36:07Z</time>
      </trkpt>
      <trkpt lat="49.90696" lon="5.08636">
        <ele>385</ele>
        <time>2000-01-01T13:36:17Z</time>
      </trkpt>
      <trkpt lat="49.9061" lon="5.08648">
        <ele>378</ele>
        <time>2000-01-01T13:36:27Z</time>
      </trkpt>
      <trkpt lat="49.9058" lon="5.08635">
        <ele>378</ele>
        <time>2000-01-01T13:36:37Z</time>
      </trkpt>
      <trkpt lat="49.90549" lon="5.08622">
        <ele>378</ele>
        <time>2000-01-01T13:36:47Z</time>
      </trkpt>
      <trkpt lat="49.90526" lon="5.08612">
        <ele>378</ele>
        <time>2000-01-01T13:36:57Z</time>
      </trkpt>
      <trkpt lat="49.90496" lon="5.086">
        <ele>382</ele>
        <time>2000-01-01T13:37:07Z</time>
      </trkpt>
      <trkpt lat="49.90463" lon="5.08584">
        <ele>377</ele>
        <time>2000-01-01T13:37:17Z</time>
      </trkpt>
      <trkpt lat="49.9043" lon="5.08569">
        <ele>376</ele>
        <time>2000-01-01T13:37:27Z</time>
      </trkpt>
      <trkpt lat="49.90396" lon="5.08554">
        <ele>376</ele>
        <time>2000-01-01T13:37:37Z</time>
      </trkpt>
      <trkpt lat="49.90371" lon="5.08542">
        <ele>380</ele>
        <time>2000-01-01T13:37:47Z</time>
      </trkpt>
      <trkpt lat="49.9033" lon="5.08523">
        <ele>387</ele>
        <time>2000-01-01T13:37:57Z</time>
      </trkpt>
      <trkpt lat="49.90305" lon="5.0851">
        <ele>387</ele>
        <time>2000-01-01T13:38:07Z</time>
      </trkpt>
      <trkpt lat="49.9031" lon="5.08482">
        <ele>387</ele>
        <time>2000-01-01T13:38:17Z</time>
      </trkpt>
      <trkpt lat="49.90311" lon="5.08468">
        <ele>398.5</ele>
        <time>2000-01-01T13:38:27Z</time>
      </trkpt>
      <trkpt lat="49.90301" lon="5.08359">
        <ele>384</ele>
        <time>2000-01-01T13:38:37Z</time>
      </trkpt>
      <trkpt lat="49.90294" lon="5.08307">
        <ele>380</ele>
        <time>2000-01-01T13:38:47Z</time>
      </trkpt>
      <trkpt lat="49.9029" lon="5.08286">
        <ele>392</ele>
        <time>2000-01-01T13:38:57Z</time>
      </trkpt>
      <trkpt lat="49.90276" lon="5.0824">
        <ele>381</ele>
        <time>2000-01-01T13:39:07Z</time>
      </trkpt>
      <trkpt lat="49.90261" lon="5.08195">
        <ele>381</ele>
        <time>2000-01-01T13:39:17Z</time>
      </trkpt>
      <trkpt lat="49.90236" lon="5.08145">
        <ele>381</ele>
        <time>2000-01-01T13:39:27Z</time>
      </trkpt>
      <trkpt lat="49.90226" lon="5.0812">
        <ele>380</ele>
        <time>2000-01-01T13:39:37Z</time>
      </trkpt>
      <trkpt lat="49.90219" lon="5.08062">
        <ele>378</ele>
        <time>2000-01-01T13:39:47Z</time>
      </trkpt>
      <trkpt lat="49.90219" lon="5.08045">
        <ele>386.5</ele>
        <time>2000-01-01T13:39:57Z</time>
      </trkpt>
      <trkpt lat="49.90222" lon="5.08026">
        <ele>377</ele>
        <time>2000-01-01T13:40:07Z</time>
      </trkpt>
      <trkpt lat="49.90235" lon="5.07996">
        <ele>377</ele>
        <time>2000-01-01T13:40:17Z</time>
      </trkpt>
      <trkpt lat="49.90249" lon="5.07964">
        <ele>376</ele>
        <time>2000-01-01T13:40:27Z</time>
      </trkpt>
      <trkpt lat="49.90262" lon="5.07928">
        <ele>376</ele>
        <time>2000-01-01T13:40:37Z</time>
      </trkpt>
      <trkpt lat="49.90299" lon="5.07941">
        <ele>380</ele>
        <time>2000-01-01T13:40:47Z</time>
      </trkpt>
      <trkpt lat="49.90329" lon="5.0795">
        <ele>380</ele>
        <time>2000-01-01T13:40:57Z</time>
      </trkpt>
      <trkpt lat="49.90358" lon="5.07958">
        <ele>380</ele>
        <time>2000-01-01T13:41:07Z</time>
      </trkpt>
      <trkpt lat="49.90394" lon="5.07969">
        <ele>381</ele>
        <time>2000-01-01T13:41:17Z</time>
      </trkpt>
      <trkpt lat="49.9041" lon="5.07971">
        <ele>389</ele>
        <time>2000-01-01T13:41:27Z</time>
      </trkpt>
      <trkpt lat="49.90492" lon="5.07967">
        <ele>384</ele>
        <time>2000-01-01T13:41:37Z</time>
      </trkpt>
      <trkpt lat="49.90514" lon="5.07967">
        <ele>384</ele>
        <time>2000-01-01T13:41:47Z</time>
      </trkpt>
      <trkpt lat="49.90533" lon="5.0799">
        <ele>383</ele>
        <time>2000-01-01T13:41:57Z</time>
      </trkpt>
      <trkpt lat="49.90555" lon="5.08018">
        <ele>383</ele>
        <time>2000-01-01T13:42:07Z</time>
      </trkpt>
      <trkpt lat="49.90562" lon="5.08021">
        <ele>394.5</ele>
        <time>2000-01-01T13:42:17Z</time>
      </trkpt>
      <trkpt lat="49.90567" lon="5.0802">
        <ele>394.8</ele>
        <time>2000-01-01T13:42:27Z</time>
      </trkpt>
      <trkpt lat="49.90576" lon="5.08012">
        <ele>390</ele>
        <time>2000-01-01T13:42:37Z</time>
      </trkpt>
      <trkpt lat="49.90598" lon="5.07961">
        <ele>390</ele>
        <time>2000-01-01T13:42:47Z</time>
      </trkpt>
      <trkpt lat="49.90619" lon="5.07911">
        <ele>391</ele>
        <time>2000-01-01T13:42:57Z</time>
      </trkpt>
      <trkpt lat="49.90641" lon="5.0786">
        <ele>397</ele>
        <time>2000-01-01T13:43:07Z</time>
      </trkpt>
      <trkpt lat="49.90662" lon="5.07809">
        <ele>402</ele>
        <time>2000-01-01T13:43:17Z</time>
      </trkpt>
      <trkpt lat="49.90684" lon="5.07758">
        <ele>405</ele>
        <time>2000-01-01T13:43:27Z</time>
      </trkpt>
      <trkpt lat="49.90705" lon="5.07707">
        <ele>409</ele>
        <time>2000-01-01T13:43:37Z</time>
      </trkpt>
      <trkpt lat="49.90727" lon="5.07656">
        <ele>413</ele>
        <time>2000-01-01T13:43:47Z</time>
      </trkpt>
      <trkpt lat="49.90748" lon="5.07605">
        <ele>411</ele>
        <time>2000-01-01T13:43:57Z</time>
      </trkpt>
      <trkpt lat="49.9077" lon="5.07554">
        <ele>411</ele>
        <time>2000-01-01T13:44:07Z</time>
      </trkpt>
      <trkpt lat="49.90782" lon="5.07524">
        <ele>412</ele>
        <time>2000-01-01T13:44:17Z</time>
      </trkpt>
      <trkpt lat="49.90797" lon="5.07488">
        <ele>414</ele>
        <time>2000-01-01T13:44:27Z</time>
      </trkpt>
      <trkpt lat="49.9082" lon="5.07455">
        <ele>412</ele>
        <time>2000-01-01T13:44:37Z</time>
      </trkpt>
      <trkpt lat="49.90842" lon="5.07421">
        <ele>410</ele>
        <time>2000-01-01T13:44:47Z</time>
      </trkpt>
      <trkpt lat="49.90858" lon="5.07397">
        <ele>407</ele>
        <time>2000-01-01T13:44:57Z</time>
      </trkpt>
      <trkpt lat="49.90875" lon="5.07371">
        <ele>406</ele>
        <time>2000-01-01T13:45:07Z</time>
      </trkpt>
      <trkpt lat="49.90901" lon="5.07339">
        <ele>406</ele>
        <time>2000-01-01T13:45:17Z</time>
      </trkpt>
      <trkpt lat="49.90926" lon="5.07308">
        <ele>401</ele>
        <time>2000-01-01T13:45:27Z</time>
      </trkpt>
      <trkpt lat="49.90952" lon="5.07276">
        <ele>401</ele>
        <time>2000-01-01T13:45:37Z</time>
      </trkpt>
      <trkpt lat="49.90979" lon="5.07241">
        <ele>403</ele>
        <time>2000-01-01T13:45:47Z</time>
      </trkpt>
      <trkpt lat="49.90987" lon="5.0724">
        <ele>407.1</ele>
        <time>2000-01-01T13:45:57Z</time>
      </trkpt>
      <trkpt lat="49.90987" lon="5.07228">
        <ele>406.7</ele>
        <time>2000-01-01T13:46:07Z</time>
      </trkpt>
      <trkpt lat="49.90873" lon="5.07048">
        <ele>403</ele>
        <time>2000-01-01T13:46:17Z</time>
      </trkpt>
      <trkpt lat="49.90852" lon="5.0702">
        <ele>405</ele>
        <time>2000-01-01T13:46:27Z</time>
      </trkpt>
      <trkpt lat="49.90835" lon="5.06996">
        <ele>406</ele>
        <time>2000-01-01T13:46:37Z</time>
      </trkpt>
      <trkpt lat="49.90815" lon="5.06969">
        <ele>406</ele>
        <time>2000-01-01T13:46:47Z</time>
      </trkpt>
      <trkpt lat="49.90794" lon="5.06942">
        <ele>403</ele>
        <time>2000-01-01T13:46:57Z</time>
      </trkpt>
      <trkpt lat="49.90776" lon="5.06919">
        <ele>403</ele>
        <time>2000-01-01T13:47:07Z</time>
      </trkpt>
      <trkpt lat="49.90755" lon="5.06893">
        <ele>403</ele>
        <time>2000-01-01T13:47:17Z</time>
      </trkpt>
      <trkpt lat="49.90735" lon="5.06854">
        <ele>404</ele>
        <time>2000-01-01T13:47:27Z</time>
      </trkpt>
      <trkpt lat="49.90715" lon="5.06814">
        <ele>404</ele>
        <time>2000-01-01T13:47:37Z</time>
      </trkpt>
      <trkpt lat="49.90699" lon="5.06784">
        <ele>404</ele>
        <time>2000-01-01T13:47:47Z</time>
      </trkpt>
      <trkpt lat="49.90678" lon="5.06741">
        <ele>405</ele>
        <time>2000-01-01T13:47:57Z</time>
      </trkpt>
      <trkpt lat="49.90653" lon="5.06714">
        <ele>406</ele>
        <time>2000-01-01T13:48:07Z</time>
      </trkpt>
      <trkpt lat="49.90629" lon="5.06688">
        <ele>410</ele>
        <time>2000-01-01T13:48:17Z</time>
      </trkpt>
      <trkpt lat="49.90599" lon="5.06655">
        <ele>410</ele>
        <time>2000-01-01T13:48:27Z</time>
      </trkpt>
      <trkpt lat="49.90574" lon="5.06638">
        <ele>410</ele>
        <time>2000-01-01T13:48:37Z</time>
      </trkpt>
      <trkpt lat="49.90552" lon="5.06624">
        <ele>409</ele>
        <time>2000-01-01T13:48:47Z</time>
      </trkpt>
      <trkpt lat="49.90527" lon="5.06608">
        <ele>409</ele>
        <time>2000-01-01T13:48:57Z</time>
      </trkpt>
      <trkpt lat="49.90504" lon="5.06604">
        <ele>409</ele>
        <time>2000-01-01T13:49:07Z</time>
      </trkpt>
      <trkpt lat="49.90471" lon="5.06612">
        <ele>409</ele>
        <time>2000-01-01T13:49:17Z</time>
      </trkpt>
      <trkpt lat="49.90437" lon="5.06619">
        <ele>409</ele>
        <time>2000-01-01T13:49:27Z</time>
      </trkpt>
      <trkpt lat="49.90404" lon="5.06627">
        <ele>408</ele>
        <time>2000-01-01T13:49:37Z</time>
      </trkpt>
      <trkpt lat="49.90381" lon="5.06632">
        <ele>411</ele>
        <time>2000-01-01T13:49:47Z</time>
      </trkpt>
      <trkpt lat="49.90355" lon="5.06638">
        <ele>415</ele>
        <time>2000-01-01T13:49:57Z</time>
      </trkpt>
      <trkpt lat="49.9033" lon="5.06636">
        <ele>416</ele>
        <time>2000-01-01T13:50:07Z</time>
      </trkpt>
      <trkpt lat="49.90298" lon="5.06634">
        <ele>417</ele>
        <time>2000-01-01T13:50:17Z</time>
      </trkpt>
      <trkpt lat="49.90273" lon="5.06622">
        <ele>416</ele>
        <time>2000-01-01T13:50:27Z</time>
      </trkpt>
      <trkpt lat="49.90237" lon="5.06605">
        <ele>416</ele>
        <time>2000-01-01T13:50:37Z</time>
      </trkpt>
      <trkpt lat="49.90213" lon="5.06581">
        <ele>420</ele>
        <time>2000-01-01T13:50:47Z</time>
      </trkpt>
      <trkpt lat="49.90193" lon="5.06561">
        <ele>420</ele>
        <time>2000-01-01T13:50:57Z</time>
      </trkpt>
      <trkpt lat="49.9017" lon="5.06537">
        <ele>420</ele>
        <time>2000-01-01T13:51:07Z</time>
      </trkpt>
      <trkpt lat="49.9014" lon="5.06504">
        <ele>415</ele>
        <time>2000-01-01T13:51:17Z</time>
      </trkpt>
      <trkpt lat="49.90121" lon="5.06473">
        <ele>414</ele>
        <time>2000-01-01T13:51:27Z</time>
      </trkpt>
      <trkpt lat="49.90123" lon="5.06459">
        <ele>424.8</ele>
        <time>2000-01-01T13:51:37Z</time>
      </trkpt>
      <trkpt lat="49.90116" lon="5.06442">
        <ele>414</ele>
        <time>2000-01-01T13:51:47Z</time>
      </trkpt>
      <trkpt lat="49.90091" lon="5.06404">
        <ele>420</ele>
        <time>2000-01-01T13:51:57Z</time>
      </trkpt>
      <trkpt lat="49.90065" lon="5.06365">
        <ele>428</ele>
        <time>2000-01-01T13:52:07Z</time>
      </trkpt>
      <trkpt lat="49.90039" lon="5.06327">
        <ele>426</ele>
        <time>2000-01-01T13:52:17Z</time>
      </trkpt>
      <trkpt lat="49.90013" lon="5.06289">
        <ele>425</ele>
        <time>2000-01-01T13:52:27Z</time>
      </trkpt>
      <trkpt lat="49.89995" lon="5.06262">
        <ele>421</ele>
        <time>2000-01-01T13:52:37Z</time>
      </trkpt>
      <trkpt lat="49.89971" lon="5.06225">
        <ele>421</ele>
        <time>2000-01-01T13:52:47Z</time>
      </trkpt>
      <trkpt lat="49.89951" lon="5.06188">
        <ele>424</ele>
        <time>2000-01-01T13:52:57Z</time>
      </trkpt>
      <trkpt lat="49.89932" lon="5.06151">
        <ele>427</ele>
        <time>2000-01-01T13:53:07Z</time>
      </trkpt>
      <trkpt lat="49.89905" lon="5.061">
        <ele>430</ele>
        <time>2000-01-01T13:53:17Z</time>
      </trkpt>
      <trkpt lat="49.89886" lon="5.0606">
        <ele>435</ele>
        <time>2000-01-01T13:53:27Z</time>
      </trkpt>
      <trkpt lat="49.89866" lon="5.06019">
        <ele>435</ele>
        <time>2000-01-01T13:53:37Z</time>
      </trkpt>
      <trkpt lat="49.89851" lon="5.05988">
        <ele>435</ele>
        <time>2000-01-01T13:53:47Z</time>
      </trkpt>
      <trkpt lat="49.89829" lon="5.05942">
        <ele>430</ele>
        <time>2000-01-01T13:53:57Z</time>
      </trkpt>
      <trkpt lat="49.89814" lon="5.05887">
        <ele>424</ele>
        <time>2000-01-01T13:54:07Z</time>
      </trkpt>
      <trkpt lat="49.89823" lon="5.05856">
        <ele>422</ele>
        <time>2000-01-01T13:54:17Z</time>
      </trkpt>
      <trkpt lat="49.89831" lon="5.05823">
        <ele>421</ele>
        <time>2000-01-01T13:54:27Z</time>
      </trkpt>
      <trkpt lat="49.89838" lon="5.05773">
        <ele>418</ele>
        <time>2000-01-01T13:54:37Z</time>
      </trkpt>
      <trkpt lat="49.89839" lon="5.05723">
        <ele>412</ele>
        <time>2000-01-01T13:54:47Z</time>
      </trkpt>
      <trkpt lat="49.89835" lon="5.05687">
        <ele>409</ele>
        <time>2000-01-01T13:54:57Z</time>
      </trkpt>
      <trkpt lat="49.8983" lon="5.05644">
        <ele>409</ele>
        <time>2000-01-01T13:55:07Z</time>
      </trkpt>
      <trkpt lat="49.89821" lon="5.05601">
        <ele>410</ele>
        <time>2000-01-01T13:55:17Z</time>
      </trkpt>
      <trkpt lat="49.89812" lon="5.05564">
        <ele>410</ele>
        <time>2000-01-01T13:55:27Z</time>
      </trkpt>
      <trkpt lat="49.89799" lon="5.05513">
        <ele>410</ele>
        <time>2000-01-01T13:55:37Z</time>
      </trkpt>
      <trkpt lat="49.89795" lon="5.05476">
        <ele>410</ele>
        <time>2000-01-01T13:55:47Z</time>
      </trkpt>
      <trkpt lat="49.89793" lon="5.05429">
        <ele>410</ele>
        <time>2000-01-01T13:55:57Z</time>
      </trkpt>
      <trkpt lat="49.89796" lon="5.05384">
        <ele>410</ele>
        <time>2000-01-01T13:56:07Z</time>
      </trkpt>
      <trkpt lat="49.89801" lon="5.05343">
        <ele>403</ele>
        <time>2000-01-01T13:56:17Z</time>
      </trkpt>
      <trkpt lat="49.89797" lon="5.05328">
        <ele>412</ele>
        <time>2000-01-01T13:56:27Z</time>
      </trkpt>
      <trkpt lat="49.89789" lon="5.05295">
        <ele>400</ele>
        <time>2000-01-01T13:56:37Z</time>
      </trkpt>
      <trkpt lat="49.89787" lon="5.05231">
        <ele>400</ele>
        <time>2000-01-01T13:56:47Z</time>
      </trkpt>
      <trkpt lat="49.89787" lon="5.05167">
        <ele>400</ele>
        <time>2000-01-01T13:56:57Z</time>
      </trkpt>
      <trkpt lat="49.89776" lon="5.05111">
        <ele>400</ele>
        <time>2000-01-01T13:57:07Z</time>
      </trkpt>
      <trkpt lat="49.89762" lon="5.05056">
        <ele>399</ele>
        <time>2000-01-01T13:57:17Z</time>
      </trkpt>
      <trkpt lat="49.89748" lon="5.05022">
        <ele>399</ele>
        <time>2000-01-01T13:57:27Z</time>
      </trkpt>
      <trkpt lat="49.89728" lon="5.04973">
        <ele>398</ele>
        <time>2000-01-01T13:57:37Z</time>
      </trkpt>
      <trkpt lat="49.89717" lon="5.04941">
        <ele>395</ele>
        <time>2000-01-01T13:57:47Z</time>
      </trkpt>
      <trkpt lat="49.89705" lon="5.04906">
        <ele>395</ele>
        <time>2000-01-01T13:57:57Z</time>
      </trkpt>
      <trkpt lat="49.89697" lon="5.04873">
        <ele>397</ele>
        <time>2000-01-01T13:58:07Z</time>
      </trkpt>
      <trkpt lat="49.8969" lon="5.04835">
        <ele>397</ele>
        <time>2000-01-01T13:58:17Z</time>
      </trkpt>
      <trkpt lat="49.8968" lon="5.04784">
        <ele>396</ele>
        <time>2000-01-01T13:58:27Z</time>
      </trkpt>
      <trkpt lat="49.89672" lon="5.04748">
        <ele>396</ele>
        <time>2000-01-01T13:58:37Z</time>
      </trkpt>
      <trkpt lat="49.89661" lon="5.047">
        <ele>403</ele>
        <time>2000-01-01T13:58:47Z</time>
      </trkpt>
      <trkpt lat="49.89663" lon="5.04665">
        <ele>406</ele>
        <time>2000-01-01T13:58:57Z</time>
      </trkpt>
      <trkpt lat="49.89665" lon="5.04625">
        <ele>410</ele>
        <time>2000-01-01T13:59:07Z</time>
      </trkpt>
      <trkpt lat="49.89662" lon="5.04596">
        <ele>414</ele>
        <time>2000-01-01T13:59:17Z</time>
      </trkpt>
      <trkpt lat="49.89669" lon="5.04569">
        <ele>415</ele>
        <time>2000-01-01T13:59:27Z</time>
      </trkpt>
      <trkpt lat="49.89666" lon="5.04533">
        <ele>415</ele>
        <time>2000-01-01T13:59:37Z</time>
      </trkpt>
      <trkpt lat="49.89666" lon="5.04489">
        <ele>412</ele>
        <time>2000-01-01T13:59:47Z</time>
      </trkpt>
      <trkpt lat="49.8966" lon="5.04434">
        <ele>411</ele>
        <time>2000-01-01T13:59:57Z</time>
      </trkpt>
      <trkpt lat="49.89656" lon="5.04403">
        <ele>406</ele>
        <time>2000-01-01T14:00:07Z</time>
      </trkpt>
      <trkpt lat="49.89639" lon="5.04349">
        <ele>407</ele>
        <time>2000-01-01T14:00:17Z</time>
      </trkpt>
      <trkpt lat="49.89625" lon="5.04315">
        <ele>408</ele>
        <time>2000-01-01T14:00:27Z</time>
      </trkpt>
      <trkpt lat="49.89613" lon="5.04281">
        <ele>408</ele>
        <time>2000-01-01T14:00:37Z</time>
      </trkpt>
      <trkpt lat="49.89596" lon="5.04233">
        <ele>405</ele>
        <time>2000-01-01T14:00:47Z</time>
      </trkpt>
      <trkpt lat="49.89578" lon="5.04203">
        <ele>403</ele>
        <time>2000-01-01T14:00:57Z</time>
      </trkpt>
      <trkpt lat="49.89551" lon="5.04166">
        <ele>404</ele>
        <time>2000-01-01T14:01:07Z</time>
      </trkpt>
      <trkpt lat="49.8953" lon="5.04141">
        <ele>406</ele>
        <time>2000-01-01T14:01:17Z</time>
      </trkpt>
      <trkpt lat="49.89496" lon="5.04102">
        <ele>408</ele>
        <time>2000-01-01T14:01:27Z</time>
      </trkpt>
      <trkpt lat="49.8948" lon="5.04073">
        <ele>407</ele>
        <time>2000-01-01T14:01:37Z</time>
      </trkpt>
      <trkpt lat="49.89459" lon="5.04037">
        <ele>407</ele>
        <time>2000-01-01T14:01:47Z</time>
      </trkpt>
      <trkpt lat="49.89447" lon="5.04008">
        <ele>405</ele>
        <time>2000-01-01T14:01:57Z</time>
      </trkpt>
      <trkpt lat="49.89434" lon="5.03978">
        <ele>396</ele>
        <time>2000-01-01T14:02:07Z</time>
      </trkpt>
      <trkpt lat="49.8942" lon="5.03932">
        <ele>396</ele>
        <time>2000-01-01T14:02:17Z</time>
      </trkpt>
      <trkpt lat="49.89407" lon="5.03887">
        <ele>396</ele>
        <time>2000-01-01T14:02:27Z</time>
      </trkpt>
      <trkpt lat="49.89396" lon="5.0385">
        <ele>394</ele>
        <time>2000-01-01T14:02:37Z</time>
      </trkpt>
      <trkpt lat="49.8938" lon="5.03798">
        <ele>390</ele>
        <time>2000-01-01T14:02:47Z</time>
      </trkpt>
      <trkpt lat="49.89371" lon="5.03821">
        <ele>401.3</ele>
        <time>2000-01-01T14:02:57Z</time>
      </trkpt>
      <trkpt lat="49.89305" lon="5.03944">
        <ele>387</ele>
        <time>2000-01-01T14:03:07Z</time>
      </trkpt>
      <trkpt lat="49.8929" lon="5.03981">
        <ele>387</ele>
        <time>2000-01-01T14:03:17Z</time>
      </trkpt>
      <trkpt lat="49.89277" lon="5.04012">
        <ele>387</ele>
        <time>2000-01-01T14:03:27Z</time>
      </trkpt>
      <trkpt lat="49.89261" lon="5.04051">
        <ele>387</ele>
        <time>2000-01-01T14:03:37Z</time>
      </trkpt>
      <trkpt lat="49.89247" lon="5.04094">
        <ele>387</ele>
        <time>2000-01-01T14:03:47Z</time>
      </trkpt>
      <trkpt lat="49.89233" lon="5.04136">
        <ele>384</ele>
        <time>2000-01-01T14:03:57Z</time>
      </trkpt>
      <trkpt lat="49.89223" lon="5.04167">
        <ele>381</ele>
        <time>2000-01-01T14:04:07Z</time>
      </trkpt>
      <trkpt lat="49.89213" lon="5.04197">
        <ele>382</ele>
        <time>2000-01-01T14:04:17Z</time>
      </trkpt>
      <trkpt lat="49.89204" lon="5.04212">
        <ele>390.8</ele>
        <time>2000-01-01T14:04:27Z</time>
      </trkpt>
      <trkpt lat="49.89094" lon="5.04343">
        <ele>384</ele>
        <time>2000-01-01T14:04:37Z</time>
      </trkpt>
      <trkpt lat="49.89077" lon="5.04365">
        <ele>385</ele>
        <time>2000-01-01T14:04:47Z</time>
      </trkpt>
      <trkpt lat="49.89057" lon="5.04391">
        <ele>388</ele>
        <time>2000-01-01T14:04:57Z</time>
      </trkpt>
      <trkpt lat="49.89033" lon="5.04428">
        <ele>388</ele>
        <time>2000-01-01T14:05:07Z</time>
      </trkpt>
      <trkpt lat="49.89019" lon="5.04456">
        <ele>387</ele>
        <time>2000-01-01T14:05:17Z</time>
      </trkpt>
      <trkpt lat="49.89011" lon="5.04474">
        <ele>400.2</ele>
        <time>2000-01-01T14:05:27Z</time>
      </trkpt>
      <trkpt lat="49.88975" lon="5.04615">
        <ele>387</ele>
        <time>2000-01-01T14:05:37Z</time>
      </trkpt>
      <trkpt lat="49.88961" lon="5.04659">
        <ele>386</ele>
        <time>2000-01-01T14:05:47Z</time>
      </trkpt>
      <trkpt lat="49.88941" lon="5.04704">
        <ele>386</ele>
        <time>2000-01-01T14:05:57Z</time>
      </trkpt>
      <trkpt lat="49.88922" lon="5.04731">
        <ele>386</ele>
        <time>2000-01-01T14:06:07Z</time>
      </trkpt>
      <trkpt lat="49.88903" lon="5.04749">
        <ele>389</ele>
        <time>2000-01-01T14:06:17Z</time>
      </trkpt>
      <trkpt lat="49.88884" lon="5.04768">
        <ele>389</ele>
        <time>2000-01-01T14:06:27Z</time>
      </trkpt>
      <trkpt lat="49.88858" lon="5.04788">
        <ele>391</ele>
        <time>2000-01-01T14:06:37Z</time>
      </trkpt>
      <trkpt lat="49.88836" lon="5.04805">
        <ele>394</ele>
        <time>2000-01-01T14:06:47Z</time>
      </trkpt>
      <trkpt lat="49.88807" lon="5.04828">
        <ele>394</ele>
        <time>2000-01-01T14:06:57Z</time>
      </trkpt>
      <trkpt lat="49.88777" lon="5.04852">
        <ele>396</ele>
        <time>2000-01-01T14:07:07Z</time>
      </trkpt>
      <trkpt lat="49.88747" lon="5.04876">
        <ele>399</ele>
        <time>2000-01-01T14:07:17Z</time>
      </trkpt>
      <trkpt lat="49.88717" lon="5.04901">
        <ele>401</ele>
        <time>2000-01-01T14:07:27Z</time>
      </trkpt>
      <trkpt lat="49.88696" lon="5.04918">
        <ele>402</ele>
        <time>2000-01-01T14:07:37Z</time>
      </trkpt>
      <trkpt lat="49.8867" lon="5.04938">
        <ele>407</ele>
        <time>2000-01-01T14:07:47Z</time>
      </trkpt>
      <trkpt lat="49.88651" lon="5.04957">
        <ele>407</ele>
        <time>2000-01-01T14:07:57Z</time>
      </trkpt>
      <trkpt lat="49.88632" lon="5.04976">
        <ele>403</ele>
        <time>2000-01-01T14:08:07Z</time>
      </trkpt>
      <trkpt lat="49.88611" lon="5.05">
        <ele>403</ele>
        <time>2000-01-01T14:08:17Z</time>
      </trkpt>
      <trkpt lat="49.88582" lon="5.05034">
        <ele>410</ele>
        <time>2000-01-01T14:08:27Z</time>
      </trkpt>
      <trkpt lat="49.88561" lon="5.05061">
        <ele>412</ele>
        <time>2000-01-01T14:08:37Z</time>
      </trkpt>
      <trkpt lat="49.88543" lon="5.05082">
        <ele>415</ele>
        <time>2000-01-01T14:08:47Z</time>
      </trkpt>
      <trkpt lat="49.88525" lon="5.05105">
        <ele>415</ele>
        <time>2000-01-01T14:08:57Z</time>
      </trkpt>
      <trkpt lat="49.88503" lon="5.0514">
        <ele>418</ele>
        <time>2000-01-01T14:09:07Z</time>
      </trkpt>
      <trkpt lat="49.88487" lon="5.05174">
        <ele>421</ele>
        <time>2000-01-01T14:09:17Z</time>
      </trkpt>
      <trkpt lat="49.88471" lon="5.05199">
        <ele>421</ele>
        <time>2000-01-01T14:09:27Z</time>
      </trkpt>
      <trkpt lat="49.88452" lon="5.05228">
        <ele>421</ele>
        <time>2000-01-01T14:09:37Z</time>
      </trkpt>
      <trkpt lat="49.88432" lon="5.0525">
        <ele>419</ele>
        <time>2000-01-01T14:09:47Z</time>
      </trkpt>
      <trkpt lat="49.88405" lon="5.05276">
        <ele>421</ele>
        <time>2000-01-01T14:09:57Z</time>
      </trkpt>
      <trkpt lat="49.88378" lon="5.05301">
        <ele>424</ele>
        <time>2000-01-01T14:10:07Z</time>
      </trkpt>
      <trkpt lat="49.88357" lon="5.0532">
        <ele>424</ele>
        <time>2000-01-01T14:10:17Z</time>
      </trkpt>
      <trkpt lat="49.88333" lon="5.05343">
        <ele>425</ele>
        <time>2000-01-01T14:10:27Z</time>
      </trkpt>
      <trkpt lat="49.88305" lon="5.05368">
        <ele>427</ele>
        <time>2000-01-01T14:10:37Z</time>
      </trkpt>
      <trkpt lat="49.88276" lon="5.05393">
        <ele>431</ele>
        <time>2000-01-01T14:10:47Z</time>
      </trkpt>
      <trkpt lat="49.88254" lon="5.05412">
        <ele>431</ele>
        <time>2000-01-01T14:10:57Z</time>
      </trkpt>
      <trkpt lat="49.88223" lon="5.0544">
        <ele>432</ele>
        <time>2000-01-01T14:11:07Z</time>
      </trkpt>
      <trkpt lat="49.88202" lon="5.05464">
        <ele>437</ele>
        <time>2000-01-01T14:11:17Z</time>
      </trkpt>
      <trkpt lat="49.88173" lon="5.05498">
        <ele>442</ele>
        <time>2000-01-01T14:11:27Z</time>
      </trkpt>
      <trkpt lat="49.88157" lon="5.05529">
        <ele>446</ele>
        <time>2000-01-01T14:11:37Z</time>
      </trkpt>
      <trkpt lat="49.88135" lon="5.05573">
        <ele>447</ele>
        <time>2000-01-01T14:11:47Z</time>
      </trkpt>
      <trkpt lat="49.8812" lon="5.05614">
        <ele>449</ele>
        <time>2000-01-01T14:11:57Z</time>
      </trkpt>
      <trkpt lat="49.88105" lon="5.05656">
        <ele>448</ele>
        <time>2000-01-01T14:12:07Z</time>
      </trkpt>
      <trkpt lat="49.88084" lon="5.05714">
        <ele>447</ele>
        <time>2000-01-01T14:12:17Z</time>
      </trkpt>
      <trkpt lat="49.88064" lon="5.05749">
        <ele>444</ele>
        <time>2000-01-01T14:12:27Z</time>
      </trkpt>
      <trkpt lat="49.88042" lon="5.05775">
        <ele>437</ele>
        <time>2000-01-01T14:12:37Z</time>
      </trkpt>
      <trkpt lat="49.88022" lon="5.0581">
        <ele>437</ele>
        <time>2000-01-01T14:12:47Z</time>
      </trkpt>
      <trkpt lat="49.88001" lon="5.05845">
        <ele>438</ele>
        <time>2000-01-01T14:12:57Z</time>
      </trkpt>
      <trkpt lat="49.87974" lon="5.05892">
        <ele>443</ele>
        <time>2000-01-01T14:13:07Z</time>
      </trkpt>
      <trkpt lat="49.87959" lon="5.05919">
        <ele>448</ele>
        <time>2000-01-01T14:13:17Z</time>
      </trkpt>
      <trkpt lat="49.87943" lon="5.05947">
        <ele>446</ele>
        <time>2000-01-01T14:13:27Z</time>
      </trkpt>
      <trkpt lat="49.8793" lon="5.05974">
        <ele>445</ele>
        <time>2000-01-01T14:13:37Z</time>
      </trkpt>
      <trkpt lat="49.87915" lon="5.06003">
        <ele>445</ele>
        <time>2000-01-01T14:13:47Z</time>
      </trkpt>
      <trkpt lat="49.87892" lon="5.06037">
        <ele>443</ele>
        <time>2000-01-01T14:13:57Z</time>
      </trkpt>
      <trkpt lat="49.87868" lon="5.06071">
        <ele>438</ele>
        <time>2000-01-01T14:14:07Z</time>
      </trkpt>
      <trkpt lat="49.87851" lon="5.06097">
        <ele>438</ele>
        <time>2000-01-01T14:14:17Z</time>
      </trkpt>
      <trkpt lat="49.87828" lon="5.0613">
        <ele>443</ele>
        <time>2000-01-01T14:14:27Z</time>
      </trkpt>
      <trkpt lat="49.8781" lon="5.0615">
        <ele>448</ele>
        <time>2000-01-01T14:14:37Z</time>
      </trkpt>
      <trkpt lat="49.8779" lon="5.06171">
        <ele>447</ele>
        <time>2000-01-01T14:14:47Z</time>
      </trkpt>
      <trkpt lat="49.87768" lon="5.06186">
        <ele>447</ele>
        <time>2000-01-01T14:14:57Z</time>
      </trkpt>
      <trkpt lat="49.87743" lon="5.06204">
        <ele>447</ele>
        <time>2000-01-01T14:15:07Z</time>
      </trkpt>
      <trkpt lat="49.87712" lon="5.06215">
        <ele>447</ele>
        <time>2000-01-01T14:15:17Z</time>
      </trkpt>
      <trkpt lat="49.87681" lon="5.06227">
        <ele>453</ele>
        <time>2000-01-01T14:15:27Z</time>
      </trkpt>
      <trkpt lat="49.87658" lon="5.06236">
        <ele>454</ele>
        <time>2000-01-01T14:15:37Z</time>
      </trkpt>
      <trkpt lat="49.87629" lon="5.06247">
        <ele>451</ele>
        <time>2000-01-01T14:15:47Z</time>
      </trkpt>
      <trkpt lat="49.87599" lon="5.06266">
        <ele>448</ele>
        <time>2000-01-01T14:15:57Z</time>
      </trkpt>
      <trkpt lat="49.87568" lon="5.06285">
        <ele>437</ele>
        <time>2000-01-01T14:16:07Z</time>
      </trkpt>
      <trkpt lat="49.87537" lon="5.06305">
        <ele>434</ele>
        <time>2000-01-01T14:16:17Z</time>
      </trkpt>
      <trkpt lat="49.87499" lon="5.06328">
        <ele>435</ele>
        <time>2000-01-01T14:16:27Z</time>
      </trkpt>
      <trkpt lat="49.87479" lon="5.06335">
        <ele>436</ele>
        <time>2000-01-01T14:16:37Z</time>
      </trkpt>
      <trkpt lat="49.87452" lon="5.06334">
        <ele>441</ele>
        <time>2000-01-01T14:16:47Z</time>
      </trkpt>
      <trkpt lat="49.87429" lon="5.06332">
        <ele>440</ele>
        <time>2000-01-01T14:16:57Z</time>
      </trkpt>
      <trkpt lat="49.87403" lon="5.06331">
        <ele>440</ele>
        <time>2000-01-01T14:17:07Z</time>
      </trkpt>
      <trkpt lat="49.87365" lon="5.06337">
        <ele>441</ele>
        <time>2000-01-01T14:17:17Z</time>
      </trkpt>
      <trkpt lat="49.87336" lon="5.06349">
        <ele>441</ele>
        <time>2000-01-01T14:17:27Z</time>
      </trkpt>
      <trkpt lat="49.87297" lon="5.06369">
        <ele>441</ele>
        <time>2000-01-01T14:17:37Z</time>
      </trkpt>
      <trkpt lat="49.87276" lon="5.06387">
        <ele>440</ele>
        <time>2000-01-01T14:17:47Z</time>
      </trkpt>
      <trkpt lat="49.87248" lon="5.06411">
        <ele>432</ele>
        <time>2000-01-01T14:17:57Z</time>
      </trkpt>
      <trkpt lat="49.87221" lon="5.06428">
        <ele>430</ele>
        <time>2000-01-01T14:18:07Z</time>
      </trkpt>
      <trkpt lat="49.87193" lon="5.06445">
        <ele>430</ele>
        <time>2000-01-01T14:18:17Z</time>
      </trkpt>
      <trkpt lat="49.87158" lon="5.06467">
        <ele>431</ele>
        <time>2000-01-01T14:18:27Z</time>
      </trkpt>
      <trkpt lat="49.8713" lon="5.06482">
        <ele>430</ele>
        <time>2000-01-01T14:18:37Z</time>
      </trkpt>
      <trkpt lat="49.87101" lon="5.06497">
        <ele>430</ele>
        <time>2000-01-01T14:18:47Z</time>
      </trkpt>
      <trkpt lat="49.87065" lon="5.06517">
        <ele>420</ele>
        <time>2000-01-01T14:18:57Z</time>
      </trkpt>
      <trkpt lat="49.87052" lon="5.06515">
        <ele>427.3</ele>
        <time>2000-01-01T14:19:07Z</time>
      </trkpt>
      <trkpt lat="49.86964" lon="5.0633">
        <ele>408</ele>
        <time>2000-01-01T14:19:17Z</time>
      </trkpt>
      <trkpt lat="49.86945" lon="5.06284">
        <ele>403</ele>
        <time>2000-01-01T14:19:27Z</time>
      </trkpt>
      <trkpt lat="49.86926" lon="5.06237">
        <ele>398</ele>
        <time>2000-01-01T14:19:37Z</time>
      </trkpt>
      <trkpt lat="49.86907" lon="5.0619">
        <ele>395</ele>
        <time>2000-01-01T14:19:47Z</time>
      </trkpt>
      <trkpt lat="49.86888" lon="5.06143">
        <ele>393</ele>
        <time>2000-01-01T14:19:57Z</time>
      </trkpt>
      <trkpt lat="49.86875" lon="5.06112">
        <ele>392</ele>
        <time>2000-01-01T14:20:07Z</time>
      </trkpt>
      <trkpt lat="49.8686" lon="5.06073">
        <ele>391</ele>
        <time>2000-01-01T14:20:17Z</time>
      </trkpt>
      <trkpt lat="49.86851" lon="5.06064">
        <ele>398.8</ele>
        <time>2000-01-01T14:20:27Z</time>
      </trkpt>
      <trkpt lat="49.86821" lon="5.06054">
        <ele>391</ele>
        <time>2000-01-01T14:20:37Z</time>
      </trkpt>
      <trkpt lat="49.86815" lon="5.06044">
        <ele>399.8</ele>
        <time>2000-01-01T14:20:47Z</time>
      </trkpt>
      <trkpt lat="49.86809" lon="5.0602">
        <ele>391</ele>
        <time>2000-01-01T14:20:57Z</time>
      </trkpt>
      <trkpt lat="49.86791" lon="5.05997">
        <ele>398</ele>
        <time>2000-01-01T14:21:07Z</time>
      </trkpt>
      <trkpt lat="49.86776" lon="5.05988">
        <ele>405.3</ele>
        <time>2000-01-01T14:21:17Z</time>
      </trkpt>
      <trkpt lat="49.86737" lon="5.05981">
        <ele>408</ele>
        <time>2000-01-01T14:21:27Z</time>
      </trkpt>
      <trkpt lat="49.86714" lon="5.05965">
        <ele>408</ele>
        <time>2000-01-01T14:21:37Z</time>
      </trkpt>
      <trkpt lat="49.86684" lon="5.05944">
        <ele>413</ele>
        <time>2000-01-01T14:21:47Z</time>
      </trkpt>
      <trkpt lat="49.86651" lon="5.05931">
        <ele>413</ele>
        <time>2000-01-01T14:21:57Z</time>
      </trkpt>
      <trkpt lat="49.86618" lon="5.05919">
        <ele>411</ele>
        <time>2000-01-01T14:22:07Z</time>
      </trkpt>
      <trkpt lat="49.86585" lon="5.05906">
        <ele>409</ele>
        <time>2000-01-01T14:22:17Z</time>
      </trkpt>
      <trkpt lat="49.86563" lon="5.05898">
        <ele>402</ele>
        <time>2000-01-01T14:22:27Z</time>
      </trkpt>
      <trkpt lat="49.86536" lon="5.05888">
        <ele>394</ele>
        <time>2000-01-01T14:22:37Z</time>
      </trkpt>
      <trkpt lat="49.86507" lon="5.05883">
        <ele>393</ele>
        <time>2000-01-01T14:22:47Z</time>
      </trkpt>
      <trkpt lat="49.86477" lon="5.05879">
        <ele>389</ele>
        <time>2000-01-01T14:22:57Z</time>
      </trkpt>
      <trkpt lat="49.86442" lon="5.05874">
        <ele>389</ele>
        <time>2000-01-01T14:23:07Z</time>
      </trkpt>
      <trkpt lat="49.86403" lon="5.05876">
        <ele>385</ele>
        <time>2000-01-01T14:23:17Z</time>
      </trkpt>
      <trkpt lat="49.86381" lon="5.05916">
        <ele>382</ele>
        <time>2000-01-01T14:23:27Z</time>
      </trkpt>
      <trkpt lat="49.86366" lon="5.0596">
        <ele>378</ele>
        <time>2000-01-01T14:23:37Z</time>
      </trkpt>
      <trkpt lat="49.8635" lon="5.06005">
        <ele>377</ele>
        <time>2000-01-01T14:23:47Z</time>
      </trkpt>
      <trkpt lat="49.86338" lon="5.0604">
        <ele>377</ele>
        <time>2000-01-01T14:23:57Z</time>
      </trkpt>
      <trkpt lat="49.8632" lon="5.06092">
        <ele>380</ele>
        <time>2000-01-01T14:24:07Z</time>
      </trkpt>
      <trkpt lat="49.86311" lon="5.06124">
        <ele>380</ele>
        <time>2000-01-01T14:24:17Z</time>
      </trkpt>
      <trkpt lat="49.86302" lon="5.0616">
        <ele>381</ele>
        <time>2000-01-01T14:24:27Z</time>
      </trkpt>
      <trkpt lat="49.86289" lon="5.06199">
        <ele>388</ele>
        <time>2000-01-01T14:24:37Z</time>
      </trkpt>
      <trkpt lat="49.86279" lon="5.06232">
        <ele>388</ele>
        <time>2000-01-01T14:24:47Z</time>
      </trkpt>
      <trkpt lat="49.86268" lon="5.06269">
        <ele>390</ele>
        <time>2000-01-01T14:24:57Z</time>
      </trkpt>
      <trkpt lat="49.86254" lon="5.06301">
        <ele>391</ele>
        <time>2000-01-01T14:25:07Z</time>
      </trkpt>
      <trkpt lat="49.86238" lon="5.0634">
        <ele>394</ele>
        <time>2000-01-01T14:25:17Z</time>
      </trkpt>
      <trkpt lat="49.86202" lon="5.06338">
        <ele>393</ele>
        <time>2000-01-01T14:25:27Z</time>
      </trkpt>
      <trkpt lat="49.86166" lon="5.06336">
        <ele>393</ele>
        <time>2000-01-01T14:25:37Z</time>
      </trkpt>
      <trkpt lat="49.8613" lon="5.06333">
        <ele>393</ele>
        <time>2000-01-01T14:25:47Z</time>
      </trkpt>
      <trkpt lat="49.86094" lon="5.06331">
        <ele>396</ele>
        <time>2000-01-01T14:25:57Z</time>
      </trkpt>
      <trkpt lat="49.86069" lon="5.06329">
        <ele>396</ele>
        <time>2000-01-01T14:26:07Z</time>
      </trkpt>
      <trkpt lat="49.86032" lon="5.06327">
        <ele>396</ele>
        <time>2000-01-01T14:26:17Z</time>
      </trkpt>
      <trkpt lat="49.86023" lon="5.06324">
        <ele>405.9</ele>
        <time>2000-01-01T14:26:27Z</time>
      </trkpt>
      <trkpt lat="49.86018" lon="5.06324">
        <ele>405.9</ele>
        <time>2000-01-01T14:26:37Z</time>
      </trkpt>
      <trkpt lat="49.86011" lon="5.06329">
        <ele>396</ele>
        <time>2000-01-01T14:26:47Z</time>
      </trkpt>
      <trkpt lat="49.85986" lon="5.06351">
        <ele>396</ele>
        <time>2000-01-01T14:26:57Z</time>
      </trkpt>
      <trkpt lat="49.85965" lon="5.06371">
        <ele>396</ele>
        <time>2000-01-01T14:27:07Z</time>
      </trkpt>
      <trkpt lat="49.85939" lon="5.06395">
        <ele>392</ele>
        <time>2000-01-01T14:27:17Z</time>
      </trkpt>
      <trkpt lat="49.85917" lon="5.06406">
        <ele>392</ele>
        <time>2000-01-01T14:27:27Z</time>
      </trkpt>
      <trkpt lat="49.85893" lon="5.06409">
        <ele>390</ele>
        <time>2000-01-01T14:27:37Z</time>
      </trkpt>
      <trkpt lat="49.85868" lon="5.06408">
        <ele>386</ele>
        <time>2000-01-01T14:27:47Z</time>
      </trkpt>
      <trkpt lat="49.85835" lon="5.06406">
        <ele>386</ele>
        <time>2000-01-01T14:27:57Z</time>
      </trkpt>
      <trkpt lat="49.85809" lon="5.06416">
        <ele>387</ele>
        <time>2000-01-01T14:28:07Z</time>
      </trkpt>
      <trkpt lat="49.85786" lon="5.06423">
        <ele>390</ele>
        <time>2000-01-01T14:28:17Z</time>
      </trkpt>
      <trkpt lat="49.85757" lon="5.0643">
        <ele>390</ele>
        <time>2000-01-01T14:28:27Z</time>
      </trkpt>
      <trkpt lat="49.85728" lon="5.06446">
        <ele>390</ele>
        <time>2000-01-01T14:28:37Z</time>
      </trkpt>
      <trkpt lat="49.85709" lon="5.06463">
        <ele>389</ele>
        <time>2000-01-01T14:28:47Z</time>
      </trkpt>
      <trkpt lat="49.85689" lon="5.0648">
        <ele>386</ele>
        <time>2000-01-01T14:28:57Z</time>
      </trkpt>
      <trkpt lat="49.85674" lon="5.0649">
        <ele>393.4</ele>
        <time>2000-01-01T14:29:07Z</time>
      </trkpt>
      <trkpt lat="49.85655" lon="5.06494">
        <ele>383</ele>
        <time>2000-01-01T14:29:17Z</time>
      </trkpt>
      <trkpt lat="49.85631" lon="5.06492">
        <ele>383</ele>
        <time>2000-01-01T14:29:27Z</time>
      </trkpt>
      <trkpt lat="49.85604" lon="5.06491">
        <ele>383</ele>
        <time>2000-01-01T14:29:37Z</time>
      </trkpt>
      <trkpt lat="49.85595" lon="5.06492">
        <ele>393.8</ele>
        <time>2000-01-01T14:29:47Z</time>
      </trkpt>
      <trkpt lat="49.85533" lon="5.06525">
        <ele>383</ele>
        <time>2000-01-01T14:29:57Z</time>
      </trkpt>
      <trkpt lat="49.85519" lon="5.06538">
        <ele>399</ele>
        <time>2000-01-01T14:30:07Z</time>
      </trkpt>
      <trkpt lat="49.85505" lon="5.06553">
        <ele>384</ele>
        <time>2000-01-01T14:30:17Z</time>
      </trkpt>
      <trkpt lat="49.85494" lon="5.06575">
        <ele>385</ele>
        <time>2000-01-01T14:30:27Z</time>
      </trkpt>
      <trkpt lat="49.85479" lon="5.06604">
        <ele>384</ele>
        <time>2000-01-01T14:30:37Z</time>
      </trkpt>
      <trkpt lat="49.85458" lon="5.06642">
        <ele>384</ele>
        <time>2000-01-01T14:30:47Z</time>
      </trkpt>
      <trkpt lat="49.85452" lon="5.06706">
        <ele>385</ele>
        <time>2000-01-01T14:30:57Z</time>
      </trkpt>
      <trkpt lat="49.85439" lon="5.06752">
        <ele>386</ele>
        <time>2000-01-01T14:31:07Z</time>
      </trkpt>
      <trkpt lat="49.85419" lon="5.06776">
        <ele>385</ele>
        <time>2000-01-01T14:31:17Z</time>
      </trkpt>
      <trkpt lat="49.85392" lon="5.06807">
        <ele>384</ele>
        <time>2000-01-01T14:31:27Z</time>
      </trkpt>
      <trkpt lat="49.85404" lon="5.06837">
        <ele>385</ele>
        <time>2000-01-01T14:31:37Z</time>
      </trkpt>
      <trkpt lat="49.85416" lon="5.06868">
        <ele>383</ele>
        <time>2000-01-01T14:31:47Z</time>
      </trkpt>
      <trkpt lat="49.85394" lon="5.06862">
        <ele>382</ele>
        <time>2000-01-01T14:31:57Z</time>
      </trkpt>
      <trkpt lat="49.85363" lon="5.06859">
        <ele>379</ele>
        <time>2000-01-01T14:32:07Z</time>
      </trkpt>
      <trkpt lat="49.85332" lon="5.06856">
        <ele>378</ele>
        <time>2000-01-01T14:32:17Z</time>
      </trkpt>
      <trkpt lat="49.85289" lon="5.06851">
        <ele>376</ele>
        <time>2000-01-01T14:32:27Z</time>
      </trkpt>
      <trkpt lat="49.85264" lon="5.06851">
        <ele>375</ele>
        <time>2000-01-01T14:32:37Z</time>
      </trkpt>
      <trkpt lat="49.85235" lon="5.06866">
        <ele>375</ele>
        <time>2000-01-01T14:32:47Z</time>
      </trkpt>
      <trkpt lat="49.85206" lon="5.06881">
        <ele>377</ele>
        <time>2000-01-01T14:32:57Z</time>
      </trkpt>
      <trkpt lat="49.85168" lon="5.069">
        <ele>378</ele>
        <time>2000-01-01T14:33:07Z</time>
      </trkpt>
      <trkpt lat="49.85154" lon="5.06902">
        <ele>385.7</ele>
        <time>2000-01-01T14:33:17Z</time>
      </trkpt>
      <trkpt lat="49.85098" lon="5.06866">
        <ele>380</ele>
        <time>2000-01-01T14:33:27Z</time>
      </trkpt>
      <trkpt lat="49.85085" lon="5.06856">
        <ele>388.9</ele>
        <time>2000-01-01T14:33:37Z</time>
      </trkpt>
      <trkpt lat="49.85069" lon="5.06847">
        <ele>382</ele>
        <time>2000-01-01T14:33:47Z</time>
      </trkpt>
      <trkpt lat="49.85047" lon="5.06826">
        <ele>383</ele>
        <time>2000-01-01T14:33:57Z</time>
      </trkpt>
      <trkpt lat="49.85012" lon="5.06795">
        <ele>385</ele>
        <time>2000-01-01T14:34:07Z</time>
      </trkpt>
      <trkpt lat="49.84979" lon="5.06768">
        <ele>392</ele>
        <time>2000-01-01T14:34:17Z</time>
      </trkpt>
      <trkpt lat="49.84951" lon="5.06741">
        <ele>399</ele>
        <time>2000-01-01T14:34:27Z</time>
      </trkpt>
      <trkpt lat="49.84923" lon="5.06715">
        <ele>404</ele>
        <time>2000-01-01T14:34:37Z</time>
      </trkpt>
      <trkpt lat="49.84901" lon="5.06694">
        <ele>407</ele>
        <time>2000-01-01T14:34:47Z</time>
      </trkpt>
      <trkpt lat="49.84869" lon="5.06663">
        <ele>410</ele>
        <time>2000-01-01T14:34:57Z</time>
      </trkpt>
      <trkpt lat="49.84837" lon="5.06644">
        <ele>411</ele>
        <time>2000-01-01T14:35:07Z</time>
      </trkpt>
      <trkpt lat="49.84806" lon="5.06625">
        <ele>415</ele>
        <time>2000-01-01T14:35:17Z</time>
      </trkpt>
      <trkpt lat="49.84775" lon="5.06606">
        <ele>417</ele>
        <time>2000-01-01T14:35:27Z</time>
      </trkpt>
      <trkpt lat="49.84753" lon="5.06593">
        <ele>415</ele>
        <time>2000-01-01T14:35:37Z</time>
      </trkpt>
      <trkpt lat="49.84728" lon="5.06578">
        <ele>416</ele>
        <time>2000-01-01T14:35:47Z</time>
      </trkpt>
      <trkpt lat="49.84706" lon="5.06591">
        <ele>415</ele>
        <time>2000-01-01T14:35:57Z</time>
      </trkpt>
      <trkpt lat="49.84679" lon="5.06607">
        <ele>415</ele>
        <time>2000-01-01T14:36:07Z</time>
      </trkpt>
      <trkpt lat="49.84649" lon="5.06615">
        <ele>415</ele>
        <time>2000-01-01T14:36:17Z</time>
      </trkpt>
      <trkpt lat="49.84625" lon="5.06633">
        <ele>413</ele>
        <time>2000-01-01T14:36:27Z</time>
      </trkpt>
      <trkpt lat="49.84588" lon="5.06661">
        <ele>412</ele>
        <time>2000-01-01T14:36:37Z</time>
      </trkpt>
      <trkpt lat="49.84557" lon="5.06672">
        <ele>411</ele>
        <time>2000-01-01T14:36:47Z</time>
      </trkpt>
      <trkpt lat="49.84527" lon="5.06682">
        <ele>407</ele>
        <time>2000-01-01T14:36:57Z</time>
      </trkpt>
      <trkpt lat="49.84505" lon="5.0669">
        <ele>398</ele>
        <time>2000-01-01T14:37:07Z</time>
      </trkpt>
      <trkpt lat="49.84482" lon="5.06698">
        <ele>396</ele>
        <time>2000-01-01T14:37:17Z</time>
      </trkpt>
      <trkpt lat="49.84443" lon="5.06726">
        <ele>387</ele>
        <time>2000-01-01T14:37:27Z</time>
      </trkpt>
      <trkpt lat="49.84421" lon="5.06752">
        <ele>385</ele>
        <time>2000-01-01T14:37:37Z</time>
      </trkpt>
      <trkpt lat="49.84402" lon="5.06775">
        <ele>378</ele>
        <time>2000-01-01T14:37:47Z</time>
      </trkpt>
      <trkpt lat="49.8438" lon="5.06801">
        <ele>378</ele>
        <time>2000-01-01T14:37:57Z</time>
      </trkpt>
      <trkpt lat="49.84382" lon="5.06843">
        <ele>377</ele>
        <time>2000-01-01T14:38:07Z</time>
      </trkpt>
      <trkpt lat="49.84366" lon="5.0687">
        <ele>379</ele>
        <time>2000-01-01T14:38:17Z</time>
      </trkpt>
      <trkpt lat="49.84349" lon="5.06901">
        <ele>382</ele>
        <time>2000-01-01T14:38:27Z</time>
      </trkpt>
      <trkpt lat="49.84323" lon="5.06926">
        <ele>392</ele>
        <time>2000-01-01T14:38:37Z</time>
      </trkpt>
      <trkpt lat="49.84305" lon="5.06955">
        <ele>400</ele>
        <time>2000-01-01T14:38:47Z</time>
      </trkpt>
      <trkpt lat="49.84289" lon="5.06993">
        <ele>402</ele>
        <time>2000-01-01T14:38:57Z</time>
      </trkpt>
      <trkpt lat="49.84273" lon="5.07032">
        <ele>401</ele>
        <time>2000-01-01T14:39:07Z</time>
      </trkpt>
      <trkpt lat="49.84255" lon="5.07074">
        <ele>400</ele>
        <time>2000-01-01T14:39:17Z</time>
      </trkpt>
      <trkpt lat="49.84238" lon="5.07117">
        <ele>400</ele>
        <time>2000-01-01T14:39:27Z</time>
      </trkpt>
      <trkpt lat="49.84221" lon="5.07161">
        <ele>400</ele>
        <time>2000-01-01T14:39:37Z</time>
      </trkpt>
      <trkpt lat="49.84204" lon="5.07204">
        <ele>401</ele>
        <time>2000-01-01T14:39:47Z</time>
      </trkpt>
      <trkpt lat="49.84187" lon="5.07248">
        <ele>403</ele>
        <time>2000-01-01T14:39:57Z</time>
      </trkpt>
      <trkpt lat="49.84167" lon="5.07282">
        <ele>401</ele>
        <time>2000-01-01T14:40:07Z</time>
      </trkpt>
      <trkpt lat="49.84148" lon="5.07316">
        <ele>401</ele>
        <time>2000-01-01T14:40:17Z</time>
      </trkpt>
      <trkpt lat="49.84125" lon="5.07355">
        <ele>401</ele>
        <time>2000-01-01T14:40:27Z</time>
      </trkpt>
      <trkpt lat="49.8413" lon="5.07398">
        <ele>395</ele>
        <time>2000-01-01T14:40:37Z</time>
      </trkpt>
      <trkpt lat="49.84134" lon="5.07434">
        <ele>388</ele>
        <time>2000-01-01T14:40:47Z</time>
      </trkpt>
      <trkpt lat="49.84138" lon="5.07478">
        <ele>388</ele>
        <time>2000-01-01T14:40:57Z</time>
      </trkpt>
      <trkpt lat="49.84145" lon="5.07521">
        <ele>388</ele>
        <time>2000-01-01T14:41:07Z</time>
      </trkpt>
      <trkpt lat="49.8415" lon="5.07557">
        <ele>388</ele>
        <time>2000-01-01T14:41:17Z</time>
      </trkpt>
      <trkpt lat="49.84156" lon="5.07604">
        <ele>389</ele>
        <time>2000-01-01T14:41:27Z</time>
      </trkpt>
      <trkpt lat="49.8416" lon="5.07642">
        <ele>391</ele>
        <time>2000-01-01T14:41:37Z</time>
      </trkpt>
      <trkpt lat="49.84166" lon="5.07693">
        <ele>391</ele>
        <time>2000-01-01T14:41:47Z</time>
      </trkpt>
      <trkpt lat="49.84141" lon="5.07702">
        <ele>387</ele>
        <time>2000-01-01T14:41:57Z</time>
      </trkpt>
      <trkpt lat="49.84111" lon="5.077">
        <ele>389</ele>
        <time>2000-01-01T14:42:07Z</time>
      </trkpt>
      <trkpt lat="49.84081" lon="5.07698">
        <ele>392</ele>
        <time>2000-01-01T14:42:17Z</time>
      </trkpt>
      <trkpt lat="49.84042" lon="5.07696">
        <ele>395</ele>
        <time>2000-01-01T14:42:27Z</time>
      </trkpt>
      <trkpt lat="49.8402" lon="5.07696">
        <ele>399</ele>
        <time>2000-01-01T14:42:37Z</time>
      </trkpt>
      <trkpt lat="49.83994" lon="5.07697">
        <ele>399</ele>
        <time>2000-01-01T14:42:47Z</time>
      </trkpt>
      <trkpt lat="49.83964" lon="5.07714">
        <ele>403</ele>
        <time>2000-01-01T14:42:57Z</time>
      </trkpt>
      <trkpt lat="49.83937" lon="5.07735">
        <ele>405</ele>
        <time>2000-01-01T14:43:07Z</time>
      </trkpt>
      <trkpt lat="49.83913" lon="5.07781">
        <ele>408</ele>
        <time>2000-01-01T14:43:17Z</time>
      </trkpt>
      <trkpt lat="49.83895" lon="5.07828">
        <ele>408</ele>
        <time>2000-01-01T14:43:27Z</time>
      </trkpt>
      <trkpt lat="49.83887" lon="5.07886">
        <ele>409</ele>
        <time>2000-01-01T14:43:37Z</time>
      </trkpt>
      <trkpt lat="49.83891" lon="5.07919">
        <ele>409</ele>
        <time>2000-01-01T14:43:47Z</time>
      </trkpt>
      <trkpt lat="49.83895" lon="5.07953">
        <ele>406</ele>
        <time>2000-01-01T14:43:57Z</time>
      </trkpt>
      <trkpt lat="49.83897" lon="5.07998">
        <ele>400</ele>
        <time>2000-01-01T14:44:07Z</time>
      </trkpt>
      <trkpt lat="49.83898" lon="5.08044">
        <ele>392</ele>
        <time>2000-01-01T14:44:17Z</time>
      </trkpt>
      <trkpt lat="49.839" lon="5.08095">
        <ele>393</ele>
        <time>2000-01-01T14:44:27Z</time>
      </trkpt>
      <trkpt lat="49.83889" lon="5.08116">
        <ele>389.2</ele>
        <time>2000-01-01T14:44:37Z</time>
      </trkpt>
      <trkpt lat="49.8387" lon="5.08163">
        <ele>390</ele>
        <time>2000-01-01T14:44:47Z</time>
      </trkpt>
      <trkpt lat="49.8384" lon="5.08159">
        <ele>387</ele>
        <time>2000-01-01T14:44:57Z</time>
      </trkpt>
      <trkpt lat="49.8381" lon="5.08144">
        <ele>386</ele>
        <time>2000-01-01T14:45:07Z</time>
      </trkpt>
      <trkpt lat="49.83782" lon="5.08137">
        <ele>386</ele>
        <time>2000-01-01T14:45:17Z</time>
      </trkpt>
      <trkpt lat="49.83744" lon="5.08144">
        <ele>391</ele>
        <time>2000-01-01T14:45:27Z</time>
      </trkpt>
      <trkpt lat="49.8372" lon="5.08146">
        <ele>399</ele>
        <time>2000-01-01T14:45:37Z</time>
      </trkpt>
      <trkpt lat="49.83686" lon="5.08149">
        <ele>404</ele>
        <time>2000-01-01T14:45:47Z</time>
      </trkpt>
      <trkpt lat="49.83653" lon="5.08144">
        <ele>409</ele>
        <time>2000-01-01T14:45:57Z</time>
      </trkpt>
      <trkpt lat="49.8362" lon="5.0814">
        <ele>409</ele>
        <time>2000-01-01T14:46:07Z</time>
      </trkpt>
      <trkpt lat="49.83587" lon="5.08135">
        <ele>406</ele>
        <time>2000-01-01T14:46:17Z</time>
      </trkpt>
      <trkpt lat="49.83544" lon="5.08129">
        <ele>402</ele>
        <time>2000-01-01T14:46:27Z</time>
      </trkpt>
      <trkpt lat="49.83506" lon="5.08132">
        <ele>398</ele>
        <time>2000-01-01T14:46:37Z</time>
      </trkpt>
      <trkpt lat="49.83473" lon="5.0815">
        <ele>397</ele>
        <time>2000-01-01T14:46:47Z</time>
      </trkpt>
      <trkpt lat="49.83448" lon="5.08181">
        <ele>396</ele>
        <time>2000-01-01T14:46:57Z</time>
      </trkpt>
      <trkpt lat="49.83423" lon="5.08212">
        <ele>396</ele>
        <time>2000-01-01T14:47:07Z</time>
      </trkpt>
      <trkpt lat="49.83404" lon="5.08235">
        <ele>396</ele>
        <time>2000-01-01T14:47:17Z</time>
      </trkpt>
      <trkpt lat="49.83378" lon="5.08266">
        <ele>399</ele>
        <time>2000-01-01T14:47:27Z</time>
      </trkpt>
      <trkpt lat="49.83354" lon="5.08305">
        <ele>403</ele>
        <time>2000-01-01T14:47:37Z</time>
      </trkpt>
      <trkpt lat="49.83329" lon="5.08343">
        <ele>407</ele>
        <time>2000-01-01T14:47:47Z</time>
      </trkpt>
      <trkpt lat="49.83305" lon="5.08381">
        <ele>408</ele>
        <time>2000-01-01T14:47:57Z</time>
      </trkpt>
      <trkpt lat="49.8328" lon="5.0842">
        <ele>406</ele>
        <time>2000-01-01T14:48:07Z</time>
      </trkpt>
      <trkpt lat="49.83256" lon="5.08459">
        <ele>404</ele>
        <time>2000-01-01T14:48:17Z</time>
      </trkpt>
      <trkpt lat="49.83242" lon="5.08485">
        <ele>403</ele>
        <time>2000-01-01T14:48:27Z</time>
      </trkpt>
      <trkpt lat="49.83218" lon="5.08519">
        <ele>401</ele>
        <time>2000-01-01T14:48:37Z</time>
      </trkpt>
      <trkpt lat="49.83184" lon="5.08532">
        <ele>397</ele>
        <time>2000-01-01T14:48:47Z</time>
      </trkpt>
      <trkpt lat="49.83166" lon="5.08508">
        <ele>395</ele>
        <time>2000-01-01T14:48:57Z</time>
      </trkpt>
      <trkpt lat="49.83144" lon="5.08478">
        <ele>395</ele>
        <time>2000-01-01T14:49:07Z</time>
      </trkpt>
      <trkpt lat="49.83115" lon="5.08475">
        <ele>395</ele>
        <time>2000-01-01T14:49:17Z</time>
      </trkpt>
      <trkpt lat="49.83086" lon="5.08471">
        <ele>393</ele>
        <time>2000-01-01T14:49:27Z</time>
      </trkpt>
      <trkpt lat="49.83056" lon="5.08468">
        <ele>393</ele>
        <time>2000-01-01T14:49:37Z</time>
      </trkpt>
      <trkpt lat="49.83031" lon="5.08482">
        <ele>393</ele>
        <time>2000-01-01T14:49:47Z</time>
      </trkpt>
      <trkpt lat="49.83011" lon="5.08495">
        <ele>393</ele>
        <time>2000-01-01T14:49:57Z</time>
      </trkpt>
      <trkpt lat="49.8299" lon="5.08507">
        <ele>390</ele>
        <time>2000-01-01T14:50:07Z</time>
      </trkpt>
      <trkpt lat="49.82959" lon="5.08522">
        <ele>387</ele>
        <time>2000-01-01T14:50:17Z</time>
      </trkpt>
      <trkpt lat="49.82927" lon="5.08536">
        <ele>387</ele>
        <time>2000-01-01T14:50:27Z</time>
      </trkpt>
      <trkpt lat="49.82896" lon="5.08551">
        <ele>391</ele>
        <time>2000-01-01T14:50:37Z</time>
      </trkpt>
      <trkpt lat="49.82865" lon="5.08566">
        <ele>391</ele>
        <time>2000-01-01T14:50:47Z</time>
      </trkpt>
      <trkpt lat="49.8283" lon="5.08566">
        <ele>390</ele>
        <time>2000-01-01T14:50:57Z</time>
      </trkpt>
      <trkpt lat="49.82805" lon="5.08556">
        <ele>387</ele>
        <time>2000-01-01T14:51:07Z</time>
      </trkpt>
      <trkpt lat="49.82769" lon="5.08541">
        <ele>387</ele>
        <time>2000-01-01T14:51:17Z</time>
      </trkpt>
      <trkpt lat="49.82746" lon="5.0853">
        <ele>387</ele>
        <time>2000-01-01T14:51:27Z</time>
      </trkpt>
      <trkpt lat="49.82718" lon="5.08516">
        <ele>391</ele>
        <time>2000-01-01T14:51:37Z</time>
      </trkpt>
      <trkpt lat="49.8269" lon="5.08495">
        <ele>390</ele>
        <time>2000-01-01T14:51:47Z</time>
      </trkpt>
      <trkpt lat="49.82696" lon="5.08489">
        <ele>400.5</ele>
        <time>2000-01-01T14:51:57Z</time>
      </trkpt>
      <trkpt lat="49.82701" lon="5.08469">
        <ele>390</ele>
        <time>2000-01-01T14:52:07Z</time>
      </trkpt>
      <trkpt lat="49.82689" lon="5.08441">
        <ele>393</ele>
        <time>2000-01-01T14:52:17Z</time>
      </trkpt>
      <trkpt lat="49.82676" lon="5.08413">
        <ele>394</ele>
        <time>2000-01-01T14:52:27Z</time>
      </trkpt>
      <trkpt lat="49.82662" lon="5.08383">
        <ele>394</ele>
        <time>2000-01-01T14:52:37Z</time>
      </trkpt>
      <trkpt lat="49.82649" lon="5.08335">
        <ele>394</ele>
        <time>2000-01-01T14:52:47Z</time>
      </trkpt>
      <trkpt lat="49.82636" lon="5.08287">
        <ele>393</ele>
        <time>2000-01-01T14:52:57Z</time>
      </trkpt>
      <trkpt lat="49.82623" lon="5.08238">
        <ele>390</ele>
        <time>2000-01-01T14:53:07Z</time>
      </trkpt>
      <trkpt lat="49.82615" lon="5.08206">
        <ele>390</ele>
        <time>2000-01-01T14:53:17Z</time>
      </trkpt>
      <trkpt lat="49.82605" lon="5.08169">
        <ele>391</ele>
        <time>2000-01-01T14:53:27Z</time>
      </trkpt>
      <trkpt lat="49.82593" lon="5.08139">
        <ele>392</ele>
        <time>2000-01-01T14:53:37Z</time>
      </trkpt>
      <trkpt lat="49.82574" lon="5.08099">
        <ele>393</ele>
        <time>2000-01-01T14:53:47Z</time>
      </trkpt>
      <trkpt lat="49.82558" lon="5.08073">
        <ele>391</ele>
        <time>2000-01-01T14:53:57Z</time>
      </trkpt>
      <trkpt lat="49.82539" lon="5.08043">
        <ele>389</ele>
        <time>2000-01-01T14:54:07Z</time>
      </trkpt>
      <trkpt lat="49.82519" lon="5.08004">
        <ele>388</ele>
        <time>2000-01-01T14:54:17Z</time>
      </trkpt>
      <trkpt lat="49.82499" lon="5.07965">
        <ele>388</ele>
        <time>2000-01-01T14:54:27Z</time>
      </trkpt>
      <trkpt lat="49.82483" lon="5.07934">
        <ele>389</ele>
        <time>2000-01-01T14:54:37Z</time>
      </trkpt>
      <trkpt lat="49.82461" lon="5.0789">
        <ele>387</ele>
        <time>2000-01-01T14:54:47Z</time>
      </trkpt>
      <trkpt lat="49.82451" lon="5.07863">
        <ele>386</ele>
        <time>2000-01-01T14:54:57Z</time>
      </trkpt>
      <trkpt lat="49.82446" lon="5.07834">
        <ele>386</ele>
        <time>2000-01-01T14:55:07Z</time>
      </trkpt>
      <trkpt lat="49.82444" lon="5.07813">
        <ele>397.2</ele>
        <time>2000-01-01T14:55:17Z</time>
      </trkpt>
      <trkpt lat="49.82447" lon="5.07647">
        <ele>386</ele>
        <time>2000-01-01T14:55:27Z</time>
      </trkpt>
      <trkpt lat="49.82446" lon="5.07633">
        <ele>395</ele>
        <time>2000-01-01T14:55:37Z</time>
      </trkpt>
      <trkpt lat="49.82425" lon="5.07641">
        <ele>387</ele>
        <time>2000-01-01T14:55:47Z</time>
      </trkpt>
      <trkpt lat="49.824" lon="5.07652">
        <ele>387</ele>
        <time>2000-01-01T14:55:57Z</time>
      </trkpt>
      <trkpt lat="49.82365" lon="5.07668">
        <ele>384</ele>
        <time>2000-01-01T14:56:07Z</time>
      </trkpt>
      <trkpt lat="49.82337" lon="5.07684">
        <ele>383</ele>
        <time>2000-01-01T14:56:17Z</time>
      </trkpt>
      <trkpt lat="49.82309" lon="5.07701">
        <ele>381</ele>
        <time>2000-01-01T14:56:27Z</time>
      </trkpt>
      <trkpt lat="49.82277" lon="5.07719">
        <ele>379</ele>
        <time>2000-01-01T14:56:37Z</time>
      </trkpt>
      <trkpt lat="49.82268" lon="5.07728">
        <ele>379.4</ele>
        <time>2000-01-01T14:56:47Z</time>
      </trkpt>
      <trkpt lat="49.8223" lon="5.07746">
        <ele>371</ele>
        <time>2000-01-01T14:56:57Z</time>
      </trkpt>
      <trkpt lat="49.82206" lon="5.0775">
        <ele>366</ele>
        <time>2000-01-01T14:57:07Z</time>
      </trkpt>
      <trkpt lat="49.82177" lon="5.07755">
        <ele>365</ele>
        <time>2000-01-01T14:57:17Z</time>
      </trkpt>
      <trkpt lat="49.82153" lon="5.07757">
        <ele>362</ele>
        <time>2000-01-01T14:57:27Z</time>
      </trkpt>
      <trkpt lat="49.82122" lon="5.07761">
        <ele>358</ele>
        <time>2000-01-01T14:57:37Z</time>
      </trkpt>
      <trkpt lat="49.82097" lon="5.07777">
        <ele>354</ele>
        <time>2000-01-01T14:57:47Z</time>
      </trkpt>
      <trkpt lat="49.82058" lon="5.07805">
        <ele>346</ele>
        <time>2000-01-01T14:57:57Z</time>
      </trkpt>
      <trkpt lat="49.8204" lon="5.07829">
        <ele>346</ele>
        <time>2000-01-01T14:58:07Z</time>
      </trkpt>
      <trkpt lat="49.82023" lon="5.07866">
        <ele>346</ele>
        <time>2000-01-01T14:58:17Z</time>
      </trkpt>
      <trkpt lat="49.82006" lon="5.07903">
        <ele>346</ele>
        <time>2000-01-01T14:58:27Z</time>
      </trkpt>
      <trkpt lat="49.81987" lon="5.07942">
        <ele>346</ele>
        <time>2000-01-01T14:58:37Z</time>
      </trkpt>
      <trkpt lat="49.81956" lon="5.07958">
        <ele>345</ele>
        <time>2000-01-01T14:58:47Z</time>
      </trkpt>
      <trkpt lat="49.8194" lon="5.07961">
        <ele>350.3</ele>
        <time>2000-01-01T14:58:57Z</time>
      </trkpt>
      <trkpt lat="49.8192" lon="5.07945">
        <ele>345</ele>
        <time>2000-01-01T14:59:07Z</time>
      </trkpt>
      <trkpt lat="49.81909" lon="5.07929">
        <ele>354.4</ele>
        <time>2000-01-01T14:59:17Z</time>
      </trkpt>
      <trkpt lat="49.81886" lon="5.07882">
        <ele>350</ele>
        <time>2000-01-01T14:59:27Z</time>
      </trkpt>
      <trkpt lat="49.81849" lon="5.07852">
        <ele>361</ele>
        <time>2000-01-01T14:59:37Z</time>
      </trkpt>
      <trkpt lat="49.81827" lon="5.0782">
        <ele>361</ele>
        <time>2000-01-01T14:59:47Z</time>
      </trkpt>
      <trkpt lat="49.81813" lon="5.07814">
        <ele>374.6</ele>
        <time>2000-01-01T14:59:57Z</time>
      </trkpt>
      <trkpt lat="49.818" lon="5.07814">
        <ele>370</ele>
        <time>2000-01-01T15:00:07Z</time>
      </trkpt>
      <trkpt lat="49.81776" lon="5.07818">
        <ele>370</ele>
        <time>2000-01-01T15:00:17Z</time>
      </trkpt>
      <trkpt lat="49.81746" lon="5.07823">
        <ele>377</ele>
        <time>2000-01-01T15:00:27Z</time>
      </trkpt>
      <trkpt lat="49.81723" lon="5.07824">
        <ele>375</ele>
        <time>2000-01-01T15:00:37Z</time>
      </trkpt>
      <trkpt lat="49.81694" lon="5.07826">
        <ele>374</ele>
        <time>2000-01-01T15:00:47Z</time>
      </trkpt>
      <trkpt lat="49.81668" lon="5.07829">
        <ele>373</ele>
        <time>2000-01-01T15:00:57Z</time>
      </trkpt>
      <trkpt lat="49.8163" lon="5.07832">
        <ele>367</ele>
        <time>2000-01-01T15:01:07Z</time>
      </trkpt>
      <trkpt lat="49.81615" lon="5.07831">
        <ele>376.7</ele>
        <time>2000-01-01T15:01:17Z</time>
      </trkpt>
      <trkpt lat="49.81577" lon="5.07814">
        <ele>360</ele>
        <time>2000-01-01T15:01:27Z</time>
      </trkpt>
      <trkpt lat="49.81549" lon="5.07797">
        <ele>354</ele>
        <time>2000-01-01T15:01:37Z</time>
      </trkpt>
      <trkpt lat="49.81527" lon="5.07777">
        <ele>354</ele>
        <time>2000-01-01T15:01:47Z</time>
      </trkpt>
      <trkpt lat="49.81492" lon="5.07747">
        <ele>359</ele>
        <time>2000-01-01T15:01:57Z</time>
      </trkpt>
      <trkpt lat="49.81481" lon="5.07746">
        <ele>373.5</ele>
        <time>2000-01-01T15:02:07Z</time>
      </trkpt>
      <trkpt lat="49.81472" lon="5.07747">
        <ele>366</ele>
        <time>2000-01-01T15:02:17Z</time>
      </trkpt>
      <trkpt lat="49.81449" lon="5.0776">
        <ele>370</ele>
        <time>2000-01-01T15:02:27Z</time>
      </trkpt>
      <trkpt lat="49.81421" lon="5.07776">
        <ele>365</ele>
        <time>2000-01-01T15:02:37Z</time>
      </trkpt>
      <trkpt lat="49.81407" lon="5.07781">
        <ele>378.7</ele>
        <time>2000-01-01T15:02:47Z</time>
      </trkpt>
      <trkpt lat="49.81347" lon="5.07568">
        <ele>361</ele>
        <time>2000-01-01T15:02:57Z</time>
      </trkpt>
      <trkpt lat="49.81338" lon="5.07522">
        <ele>360</ele>
        <time>2000-01-01T15:03:07Z</time>
      </trkpt>
      <trkpt lat="49.81329" lon="5.07476">
        <ele>358</ele>
        <time>2000-01-01T15:03:17Z</time>
      </trkpt>
      <trkpt lat="49.81323" lon="5.07444">
        <ele>358</ele>
        <time>2000-01-01T15:03:27Z</time>
      </trkpt>
      <trkpt lat="49.81317" lon="5.07411">
        <ele>356</ele>
        <time>2000-01-01T15:03:37Z</time>
      </trkpt>
      <trkpt lat="49.81307" lon="5.07368">
        <ele>355</ele>
        <time>2000-01-01T15:03:47Z</time>
      </trkpt>
      <trkpt lat="49.81291" lon="5.07322">
        <ele>355</ele>
        <time>2000-01-01T15:03:57Z</time>
      </trkpt>
      <trkpt lat="49.81276" lon="5.07277">
        <ele>353</ele>
        <time>2000-01-01T15:04:07Z</time>
      </trkpt>
      <trkpt lat="49.8126" lon="5.07231">
        <ele>349</ele>
        <time>2000-01-01T15:04:17Z</time>
      </trkpt>
      <trkpt lat="49.8124" lon="5.07173">
        <ele>346</ele>
        <time>2000-01-01T15:04:27Z</time>
      </trkpt>
      <trkpt lat="49.81226" lon="5.07128">
        <ele>346</ele>
        <time>2000-01-01T15:04:37Z</time>
      </trkpt>
      <trkpt lat="49.81207" lon="5.07076">
        <ele>347</ele>
        <time>2000-01-01T15:04:47Z</time>
      </trkpt>
      <trkpt lat="49.8119" lon="5.07046">
        <ele>348</ele>
        <time>2000-01-01T15:04:57Z</time>
      </trkpt>
      <trkpt lat="49.81165" lon="5.07001">
        <ele>350</ele>
        <time>2000-01-01T15:05:07Z</time>
      </trkpt>
      <trkpt lat="49.81147" lon="5.06965">
        <ele>352</ele>
        <time>2000-01-01T15:05:17Z</time>
      </trkpt>
      <trkpt lat="49.81129" lon="5.06929">
        <ele>353</ele>
        <time>2000-01-01T15:05:27Z</time>
      </trkpt>
      <trkpt lat="49.8111" lon="5.06891">
        <ele>352</ele>
        <time>2000-01-01T15:05:37Z</time>
      </trkpt>
      <trkpt lat="49.81086" lon="5.06855">
        <ele>352</ele>
        <time>2000-01-01T15:05:47Z</time>
      </trkpt>
      <trkpt lat="49.81063" lon="5.06828">
        <ele>353</ele>
        <time>2000-01-01T15:05:57Z</time>
      </trkpt>
      <trkpt lat="49.81043" lon="5.06806">
        <ele>354</ele>
        <time>2000-01-01T15:06:07Z</time>
      </trkpt>
      <trkpt lat="49.81017" lon="5.06776">
        <ele>355</ele>
        <time>2000-01-01T15:06:17Z</time>
      </trkpt>
      <trkpt lat="49.80996" lon="5.06755">
        <ele>356</ele>
        <time>2000-01-01T15:06:27Z</time>
      </trkpt>
      <trkpt lat="49.80969" lon="5.06727">
        <ele>355</ele>
        <time>2000-01-01T15:06:37Z</time>
      </trkpt>
      <trkpt lat="49.80943" lon="5.06706">
        <ele>355</ele>
        <time>2000-01-01T15:06:47Z</time>
      </trkpt>
      <trkpt lat="49.80916" lon="5.06686">
        <ele>355</ele>
        <time>2000-01-01T15:06:57Z</time>
      </trkpt>
      <trkpt lat="49.80888" lon="5.06663">
        <ele>354</ele>
        <time>2000-01-01T15:07:07Z</time>
      </trkpt>
      <trkpt lat="49.80865" lon="5.0664">
        <ele>354</ele>
        <time>2000-01-01T15:07:17Z</time>
      </trkpt>
      <trkpt lat="49.80845" lon="5.06619">
        <ele>356</ele>
        <time>2000-01-01T15:07:27Z</time>
      </trkpt>
      <trkpt lat="49.80822" lon="5.06593">
        <ele>356</ele>
        <time>2000-01-01T15:07:37Z</time>
      </trkpt>
      <trkpt lat="49.80799" lon="5.0656">
        <ele>357</ele>
        <time>2000-01-01T15:07:47Z</time>
      </trkpt>
      <trkpt lat="49.80783" lon="5.06529">
        <ele>359</ele>
        <time>2000-01-01T15:07:57Z</time>
      </trkpt>
      <trkpt lat="49.80771" lon="5.06498">
        <ele>359</ele>
        <time>2000-01-01T15:08:07Z</time>
      </trkpt>
      <trkpt lat="49.80757" lon="5.06462">
        <ele>359</ele>
        <time>2000-01-01T15:08:17Z</time>
      </trkpt>
      <trkpt lat="49.80748" lon="5.06428">
        <ele>359</ele>
        <time>2000-01-01T15:08:27Z</time>
      </trkpt>
      <trkpt lat="49.80737" lon="5.06388">
        <ele>359</ele>
        <time>2000-01-01T15:08:37Z</time>
      </trkpt>
      <trkpt lat="49.80726" lon="5.0634">
        <ele>359</ele>
        <time>2000-01-01T15:08:47Z</time>
      </trkpt>
      <trkpt lat="49.80714" lon="5.06293">
        <ele>359</ele>
        <time>2000-01-01T15:08:57Z</time>
      </trkpt>
      <trkpt lat="49.80702" lon="5.06245">
        <ele>359</ele>
        <time>2000-01-01T15:09:07Z</time>
      </trkpt>
      <trkpt lat="49.8069" lon="5.06194">
        <ele>352</ele>
        <time>2000-01-01T15:09:17Z</time>
      </trkpt>
      <trkpt lat="49.80662" lon="5.06208">
        <ele>352</ele>
        <time>2000-01-01T15:09:27Z</time>
      </trkpt>
      <trkpt lat="49.80633" lon="5.06222">
        <ele>355</ele>
        <time>2000-01-01T15:09:37Z</time>
      </trkpt>
      <trkpt lat="49.806" lon="5.06239">
        <ele>356</ele>
        <time>2000-01-01T15:09:47Z</time>
      </trkpt>
      <trkpt lat="49.80576" lon="5.06257">
        <ele>356</ele>
        <time>2000-01-01T15:09:57Z</time>
      </trkpt>
      <trkpt lat="49.8054" lon="5.06289">
        <ele>357</ele>
        <time>2000-01-01T15:10:07Z</time>
      </trkpt>
      <trkpt lat="49.8052" lon="5.06299">
        <ele>357</ele>
        <time>2000-01-01T15:10:17Z</time>
      </trkpt>
      <trkpt lat="49.80494" lon="5.06303">
        <ele>353</ele>
        <time>2000-01-01T15:10:27Z</time>
      </trkpt>
      <trkpt lat="49.80472" lon="5.06304">
        <ele>352</ele>
        <time>2000-01-01T15:10:37Z</time>
      </trkpt>
      <trkpt lat="49.80438" lon="5.06312">
        <ele>348</ele>
        <time>2000-01-01T15:10:47Z</time>
      </trkpt>
      <trkpt lat="49.80428" lon="5.06317">
        <ele>366.4</ele>
        <time>2000-01-01T15:10:57Z</time>
      </trkpt>
      <trkpt lat="49.80413" lon="5.06328">
        <ele>348</ele>
        <time>2000-01-01T15:11:07Z</time>
      </trkpt>
      <trkpt lat="49.80401" lon="5.06335">
        <ele>366.5</ele>
        <time>2000-01-01T15:11:17Z</time>
      </trkpt>
      <trkpt lat="49.8036" lon="5.06344">
        <ele>361</ele>
        <time>2000-01-01T15:11:27Z</time>
      </trkpt>
      <trkpt lat="49.80329" lon="5.06347">
        <ele>371</ele>
        <time>2000-01-01T15:11:37Z</time>
      </trkpt>
      <trkpt lat="49.80295" lon="5.06348">
        <ele>381</ele>
        <time>2000-01-01T15:11:47Z</time>
      </trkpt>
      <trkpt lat="49.80258" lon="5.06343">
        <ele>381</ele>
        <time>2000-01-01T15:11:57Z</time>
      </trkpt>
      <trkpt lat="49.80226" lon="5.06343">
        <ele>380</ele>
        <time>2000-01-01T15:12:07Z</time>
      </trkpt>
      <trkpt lat="49.80194" lon="5.06343">
        <ele>371</ele>
        <time>2000-01-01T15:12:17Z</time>
      </trkpt>
      <trkpt lat="49.8017" lon="5.06342">
        <ele>370</ele>
        <time>2000-01-01T15:12:27Z</time>
      </trkpt>
      <trkpt lat="49.80139" lon="5.06342">
        <ele>366</ele>
        <time>2000-01-01T15:12:37Z</time>
      </trkpt>
      <trkpt lat="49.80097" lon="5.06336">
        <ele>345</ele>
        <time>2000-01-01T15:12:47Z</time>
      </trkpt>
      <trkpt lat="49.80074" lon="5.06316">
        <ele>340</ele>
        <time>2000-01-01T15:12:57Z</time>
      </trkpt>
      <trkpt lat="49.80053" lon="5.06341">
        <ele>340</ele>
        <time>2000-01-01T15:13:07Z</time>
      </trkpt>
      <trkpt lat="49.80057" lon="5.06385">
        <ele>350</ele>
        <time>2000-01-01T15:13:17Z</time>
      </trkpt>
      <trkpt lat="49.80061" lon="5.06422">
        <ele>353</ele>
        <time>2000-01-01T15:13:27Z</time>
      </trkpt>
      <trkpt lat="49.80066" lon="5.0647">
        <ele>357</ele>
        <time>2000-01-01T15:13:37Z</time>
      </trkpt>
      <trkpt lat="49.80066" lon="5.06489">
        <ele>360.5</ele>
        <time>2000-01-01T15:13:47Z</time>
      </trkpt>
      <trkpt lat="49.80062" lon="5.06494">
        <ele>361.1</ele>
        <time>2000-01-01T15:13:57Z</time>
      </trkpt>
      <trkpt lat="49.80038" lon="5.06511">
        <ele>360</ele>
        <time>2000-01-01T15:14:07Z</time>
      </trkpt>
      <trkpt lat="49.80024" lon="5.06525">
        <ele>365</ele>
        <time>2000-01-01T15:14:17Z</time>
      </trkpt>
      <trkpt lat="49.80017" lon="5.06509">
        <ele>363</ele>
        <time>2000-01-01T15:14:27Z</time>
      </trkpt>
      <trkpt lat="49.80007" lon="5.06511">
        <ele>362.4</ele>
        <time>2000-01-01T15:14:37Z</time>
      </trkpt>
      <trkpt lat="49.80001" lon="5.06502">
        <ele>363</ele>
        <time>2000-01-01T15:14:47Z</time>
      </trkpt>
      <trkpt lat="49.79996" lon="5.06502">
        <ele>360.1</ele>
        <time>2000-01-01T15:14:57Z</time>
      </trkpt>
      <trkpt lat="49.79979" lon="5.0647">
        <ele>363</ele>
        <time>2000-01-01T15:15:07Z</time>
      </trkpt>
      <trkpt lat="49.79971" lon="5.0647">
        <ele>349.7</ele>
        <time>2000-01-01T15:15:17Z</time>
      </trkpt>
      <trkpt lat="49.7997" lon="5.06491">
        <ele>363</ele>
        <time>2000-01-01T15:15:27Z</time>
      </trkpt>
      <trkpt lat="49.79967" lon="5.06504">
        <ele>340.4</ele>
        <time>2000-01-01T15:15:37Z</time>
      </trkpt>
      <trkpt lat="49.79964" lon="5.06508">
        <ele>337.4</ele>
        <time>2000-01-01T15:15:47Z</time>
      </trkpt>
      <trkpt lat="49.79959" lon="5.06495">
        <ele>354</ele>
        <time>2000-01-01T15:15:57Z</time>
      </trkpt>
      <trkpt lat="49.79953" lon="5.06493">
        <ele>332.8</ele>
        <time>2000-01-01T15:16:07Z</time>
      </trkpt>
      <trkpt lat="49.79942" lon="5.06523">
        <ele>343</ele>
        <time>2000-01-01T15:16:17Z</time>
      </trkpt>
      <trkpt lat="49.79935" lon="5.06501">
        <ele>319</ele>
        <time>2000-01-01T15:16:27Z</time>
      </trkpt>
      <trkpt lat="49.79927" lon="5.0654">
        <ele>338</ele>
        <time>2000-01-01T15:16:37Z</time>
      </trkpt>
      <trkpt lat="49.79923" lon="5.06501">
        <ele>337</ele>
        <time>2000-01-01T15:16:47Z</time>
      </trkpt>
      <trkpt lat="49.79913" lon="5.06484">
        <ele>310.5</ele>
        <time>2000-01-01T15:16:57Z</time>
      </trkpt>
      <trkpt lat="49.79902" lon="5.06449">
        <ele>337</ele>
        <time>2000-01-01T15:17:07Z</time>
      </trkpt>
      <trkpt lat="49.79893" lon="5.0644">
        <ele>312.6</ele>
        <time>2000-01-01T15:17:17Z</time>
      </trkpt>
      <trkpt lat="49.79882" lon="5.06435">
        <ele>336</ele>
        <time>2000-01-01T15:17:27Z</time>
      </trkpt>
      <trkpt lat="49.79872" lon="5.06427">
        <ele>311.2</ele>
        <time>2000-01-01T15:17:37Z</time>
      </trkpt>
      <trkpt lat="49.79856" lon="5.06419">
        <ele>335</ele>
        <time>2000-01-01T15:17:47Z</time>
      </trkpt>
      <trkpt lat="49.79837" lon="5.06394">
        <ele>338</ele>
        <time>2000-01-01T15:17:57Z</time>
      </trkpt>
      <trkpt lat="49.79829" lon="5.06374">
        <ele>310.8</ele>
        <time>2000-01-01T15:18:07Z</time>
      </trkpt>
      <trkpt lat="49.798" lon="5.06339">
        <ele>336</ele>
        <time>2000-01-01T15:18:17Z</time>
      </trkpt>
      <trkpt lat="49.79795" lon="5.06328">
        <ele>307.5</ele>
        <time>2000-01-01T15:18:27Z</time>
      </trkpt>
      <trkpt lat="49.79782" lon="5.06317">
        <ele>336</ele>
        <time>2000-01-01T15:18:37Z</time>
      </trkpt>
      <trkpt lat="49.79771" lon="5.06311">
        <ele>302.6</ele>
        <time>2000-01-01T15:18:47Z</time>
      </trkpt>
      <trkpt lat="49.79758" lon="5.06291">
        <ele>336</ele>
        <time>2000-01-01T15:18:57Z</time>
      </trkpt>
      <trkpt lat="49.79748" lon="5.06287">
        <ele>303.1</ele>
        <time>2000-01-01T15:19:07Z</time>
      </trkpt>
      <trkpt lat="49.79738" lon="5.06275">
        <ele>335</ele>
        <time>2000-01-01T15:19:17Z</time>
      </trkpt>
      <trkpt lat="49.79721" lon="5.06272">
        <ele>301.3</ele>
        <time>2000-01-01T15:19:27Z</time>
      </trkpt>
      <trkpt lat="49.79713" lon="5.06264">
        <ele>335</ele>
        <time>2000-01-01T15:19:37Z</time>
      </trkpt>
      <trkpt lat="49.79702" lon="5.0627">
        <ele>299.9</ele>
        <time>2000-01-01T15:19:47Z</time>
      </trkpt>
      <trkpt lat="49.79692" lon="5.0626">
        <ele>330</ele>
        <time>2000-01-01T15:19:57Z</time>
      </trkpt>
      <trkpt lat="49.79681" lon="5.06264">
        <ele>301.7</ele>
        <time>2000-01-01T15:20:07Z</time>
      </trkpt>
      <trkpt lat="49.79664" lon="5.06264">
        <ele>332</ele>
        <time>2000-01-01T15:20:17Z</time>
      </trkpt>
      <trkpt lat="49.79645" lon="5.06269">
        <ele>327</ele>
        <time>2000-01-01T15:20:27Z</time>
      </trkpt>
      <trkpt lat="49.79634" lon="5.06267">
        <ele>299.5</ele>
        <time>2000-01-01T15:20:37Z</time>
      </trkpt>
      <trkpt lat="49.7962" lon="5.0627">
        <ele>330</ele>
        <time>2000-01-01T15:20:47Z</time>
      </trkpt>
      <trkpt lat="49.79614" lon="5.06276">
        <ele>305.2</ele>
        <time>2000-01-01T15:20:57Z</time>
      </trkpt>
      <trkpt lat="49.79605" lon="5.06276">
        <ele>305.1</ele>
        <time>2000-01-01T15:21:07Z</time>
      </trkpt>
      <trkpt lat="49.79602" lon="5.06264">
        <ele>326</ele>
        <time>2000-01-01T15:21:17Z</time>
      </trkpt>
      <trkpt lat="49.79596" lon="5.06254">
        <ele>310.7</ele>
        <time>2000-01-01T15:21:27Z</time>
      </trkpt>
      <trkpt lat="49.79591" lon="5.06243">
        <ele>325</ele>
        <time>2000-01-01T15:21:37Z</time>
      </trkpt>
      <trkpt lat="49.79584" lon="5.06238">
        <ele>311.7</ele>
        <time>2000-01-01T15:21:47Z</time>
      </trkpt>
      <trkpt lat="49.79569" lon="5.06201">
        <ele>325</ele>
        <time>2000-01-01T15:21:57Z</time>
      </trkpt>
      <trkpt lat="49.79561" lon="5.06196">
        <ele>313.6</ele>
        <time>2000-01-01T15:22:07Z</time>
      </trkpt>
      <trkpt lat="49.79557" lon="5.06187">
        <ele>313.9</ele>
        <time>2000-01-01T15:22:17Z</time>
      </trkpt>
      <trkpt lat="49.79547" lon="5.06182">
        <ele>322</ele>
        <time>2000-01-01T15:22:27Z</time>
      </trkpt>
      <trkpt lat="49.79535" lon="5.06168">
        <ele>309.4</ele>
        <time>2000-01-01T15:22:37Z</time>
      </trkpt>
      <trkpt lat="49.79528" lon="5.06165">
        <ele>322</ele>
        <time>2000-01-01T15:22:47Z</time>
      </trkpt>
      <trkpt lat="49.7952" lon="5.06167">
        <ele>303.9</ele>
        <time>2000-01-01T15:22:57Z</time>
      </trkpt>
      <trkpt lat="49.79523" lon="5.06194">
        <ele>318</ele>
        <time>2000-01-01T15:23:07Z</time>
      </trkpt>
      <trkpt lat="49.79536" lon="5.06232">
        <ele>310</ele>
        <time>2000-01-01T15:23:17Z</time>
      </trkpt>
      <trkpt lat="49.79543" lon="5.06244">
        <ele>296.4</ele>
        <time>2000-01-01T15:23:27Z</time>
      </trkpt>
      <trkpt lat="49.79543" lon="5.06255">
        <ele>293.6</ele>
        <time>2000-01-01T15:23:37Z</time>
      </trkpt>
      <trkpt lat="49.79529" lon="5.06242">
        <ele>305</ele>
        <time>2000-01-01T15:23:47Z</time>
      </trkpt>
      <trkpt lat="49.79502" lon="5.06221">
        <ele>301</ele>
        <time>2000-01-01T15:23:57Z</time>
      </trkpt>
      <trkpt lat="49.79496" lon="5.06222">
        <ele>285.5</ele>
        <time>2000-01-01T15:24:07Z</time>
      </trkpt>
      <trkpt lat="49.79495" lon="5.06233">
        <ele>282.8</ele>
        <time>2000-01-01T15:24:17Z</time>
      </trkpt>
      <trkpt lat="49.79508" lon="5.06271">
        <ele>289</ele>
        <time>2000-01-01T15:24:27Z</time>
      </trkpt>
      <trkpt lat="49.79506" lon="5.06273">
        <ele>277.8</ele>
        <time>2000-01-01T15:24:37Z</time>
      </trkpt>
      <trkpt lat="49.79488" lon="5.06248">
        <ele>280</ele>
        <time>2000-01-01T15:24:47Z</time>
      </trkpt>
      <trkpt lat="49.79482" lon="5.06248">
        <ele>274.9</ele>
        <time>2000-01-01T15:24:57Z</time>
      </trkpt>
      <trkpt lat="49.79478" lon="5.06244">
        <ele>274.2</ele>
        <time>2000-01-01T15:25:07Z</time>
      </trkpt>
      <trkpt lat="49.79476" lon="5.06248">
        <ele>272.7</ele>
        <time>2000-01-01T15:25:17Z</time>
      </trkpt>
      <trkpt lat="49.79477" lon="5.0626">
        <ele>280</ele>
        <time>2000-01-01T15:25:27Z</time>
      </trkpt>
      <trkpt lat="49.79485" lon="5.06287">
        <ele>275</ele>
        <time>2000-01-01T15:25:37Z</time>
      </trkpt>
      <trkpt lat="49.79486" lon="5.06292">
        <ele>266.4</ele>
        <time>2000-01-01T15:25:47Z</time>
      </trkpt>
      <trkpt lat="49.79484" lon="5.06295">
        <ele>265</ele>
        <time>2000-01-01T15:25:57Z</time>
      </trkpt>
      <trkpt lat="49.79463" lon="5.06283">
        <ele>275</ele>
        <time>2000-01-01T15:26:07Z</time>
      </trkpt>
      <trkpt lat="49.79459" lon="5.06285">
        <ele>259.2</ele>
        <time>2000-01-01T15:26:17Z</time>
      </trkpt>
      <trkpt lat="49.79477" lon="5.06328">
        <ele>265</ele>
        <time>2000-01-01T15:26:27Z</time>
      </trkpt>
      <trkpt lat="49.79476" lon="5.06331">
        <ele>252.5</ele>
        <time>2000-01-01T15:26:37Z</time>
      </trkpt>
      <trkpt lat="49.79457" lon="5.06321">
        <ele>261</ele>
        <time>2000-01-01T15:26:47Z</time>
      </trkpt>
      <trkpt lat="49.79447" lon="5.06312">
        <ele>249.2</ele>
        <time>2000-01-01T15:26:57Z</time>
      </trkpt>
      <trkpt lat="49.79445" lon="5.06315">
        <ele>247.8</ele>
        <time>2000-01-01T15:27:07Z</time>
      </trkpt>
      <trkpt lat="49.79461" lon="5.06361">
        <ele>260</ele>
        <time>2000-01-01T15:27:17Z</time>
      </trkpt>
      <trkpt lat="49.79432" lon="5.06352">
        <ele>239</ele>
        <time>2000-01-01T15:27:27Z</time>
      </trkpt>
      <trkpt lat="49.79422" lon="5.06351">
        <ele>231.5</ele>
        <time>2000-01-01T15:27:37Z</time>
      </trkpt>
      <trkpt lat="49.79427" lon="5.06359">
        <ele>230.6</ele>
        <time>2000-01-01T15:27:47Z</time>
      </trkpt>
      <trkpt lat="49.79436" lon="5.06368">
        <ele>239</ele>
        <time>2000-01-01T15:27:57Z</time>
      </trkpt>
      <trkpt lat="49.7944" lon="5.06378">
        <ele>228</ele>
        <time>2000-01-01T15:28:07Z</time>
      </trkpt>
      <trkpt lat="49.79449" lon="5.06386">
        <ele>237</ele>
        <time>2000-01-01T15:28:17Z</time>
      </trkpt>
      <trkpt lat="49.79453" lon="5.06397">
        <ele>223.5</ele>
        <time>2000-01-01T15:28:27Z</time>
      </trkpt>
      <trkpt lat="49.79442" lon="5.06407">
        <ele>237</ele>
        <time>2000-01-01T15:28:37Z</time>
      </trkpt>
      <trkpt lat="49.79443" lon="5.0645">
        <ele>223</ele>
        <time>2000-01-01T15:28:47Z</time>
      </trkpt>
      <trkpt lat="49.79443" lon="5.06486">
        <ele>214</ele>
        <time>2000-01-01T15:28:57Z</time>
      </trkpt>
      <trkpt lat="49.79444" lon="5.06527">
        <ele>212</ele>
        <time>2000-01-01T15:29:07Z</time>
      </trkpt>
      <trkpt lat="49.79409" lon="5.0652">
        <ele>212</ele>
        <time>2000-01-01T15:29:17Z</time>
      </trkpt>
      <trkpt lat="49.79387" lon="5.06515">
        <ele>212</ele>
        <time>2000-01-01T15:29:27Z</time>
      </trkpt>
      <trkpt lat="49.79365" lon="5.06509">
        <ele>212</ele>
        <time>2000-01-01T15:29:37Z</time>
      </trkpt>
      <trkpt lat="49.79344" lon="5.06496">
        <ele>212</ele>
        <time>2000-01-01T15:29:47Z</time>
      </trkpt>
      <trkpt lat="49.79321" lon="5.06482">
        <ele>208</ele>
        <time>2000-01-01T15:29:57Z</time>
      </trkpt>
      <trkpt lat="49.79302" lon="5.06462">
        <ele>208</ele>
        <time>2000-01-01T15:30:07Z</time>
      </trkpt>
      <trkpt lat="49.79283" lon="5.06433">
        <ele>207</ele>
        <time>2000-01-01T15:30:17Z</time>
      </trkpt>
      <trkpt lat="49.79253" lon="5.06387">
        <ele>207</ele>
        <time>2000-01-01T15:30:27Z</time>
      </trkpt>
      <trkpt lat="49.79233" lon="5.06364">
        <ele>206</ele>
        <time>2000-01-01T15:30:37Z</time>
      </trkpt>
      <trkpt lat="49.79207" lon="5.06333">
        <ele>206</ele>
        <time>2000-01-01T15:30:47Z</time>
      </trkpt>
      <trkpt lat="49.79196" lon="5.06327">
        <ele>220.3</ele>
        <time>2000-01-01T15:30:57Z</time>
      </trkpt>
      <trkpt lat="49.79194" lon="5.06345">
        <ele>206</ele>
        <time>2000-01-01T15:31:07Z</time>
      </trkpt>
      <trkpt lat="49.7919" lon="5.06357">
        <ele>228.5</ele>
        <time>2000-01-01T15:31:17Z</time>
      </trkpt>
      <trkpt lat="49.79149" lon="5.06452">
        <ele>214</ele>
        <time>2000-01-01T15:31:27Z</time>
      </trkpt>
      <trkpt lat="49.79142" lon="5.06473">
        <ele>222.5</ele>
        <time>2000-01-01T15:31:37Z</time>
      </trkpt>
      <trkpt lat="49.79148" lon="5.06479">
        <ele>222</ele>
        <time>2000-01-01T15:31:47Z</time>
      </trkpt>
    </trkseg>
  </trk>
</gpx>